[[{"header":{"parameterUnit":"m.s-1","parameterCategory":1,"la1":30.6,"la2":28.766,"lo1":-90.7593,"lo2":-88.6598,"dy":0.0162,"dx":0.0183,"nx":116,"ny":114,"refTime":"2024-04-18T12:00:00:Z","depth":0,"parameterNumber":2,"parameterNumberName":"U-component_of_WINDS"},"data":[0.0,0.0,0.0,0.0,0.0,0.0,0.0,0.0,0.0,0.0,0.0,0.0,0.0,0.0,0.0,0.0,0.0,0.0,0.0,0.0,0.0,0.0,0.0,0.0,0.0,0.0,0.0,0.0,0.0,0.0,0.0,0.0,0.0,0.0,0.0,0.0,0.0,0.0,0.0,0.0,0.0,0.0,0.0,0.0,0.0,0.0,0.0,0.0,0.0,0.0,0.0,0.0,0.0,0.0,0.0,0.0,0.0,0.0,0.0,0.0,0.0,0.0,0.0,0.0,0.0,0.0,0.0,0.0,0.0,0.0,0.0,0.0,0.0,0.0,0.0,0.0,0.0,0.0,0.0,0.0,0.0,0.0,0.0,0.0,0.0,0.0,0.0,0.0,0.0,0.0,0.0,0.0,0.0,0.0,0.0,0.0,0.0,0.0,0.0,0.0,0.0,0.0,0.0,0.0,0.0,0.0,0.0,0.0,0.0,0.0,0.0,0.0,0.0,0.0,0.0,0.0,0.0,0.0,0.0,0.0,0.0,0.0,0.0,0.0,0.0,0.0,0.0,0.0,0.0,0.0,0.0,0.0,0.0,0.0,0.0,0.0,0.0,0.0,0.0,0.0,0.0,0.0,0.0,0.0,0.0,0.0,0.0,0.0,0.0,0.0,0.0,0.0,0.0,0.0,0.0,0.0,0.0,0.0,0.0,0.0,0.0,0.0,0.0,0.0,0.0,0.0,0.0,0.0,0.0,0.0,0.0,0.0,0.0,0.0,0.0,0.0,0.0,0.0,0.0,0.0,0.0,0.0,0.0,0.0,0.0,0.0,0.0,0.0,0.0,0.0,0.0,0.0,0.0,0.0,0.0,0.0,0.0,0.0,0.0,0.0,0.0,0.0,0.0,0.0,0.0,0.0,0.0,0.0,0.0,0.0,0.0,0.0,0.0,0.0,0.0,0.0,0.0,0.0,0.0,0.0,0.0,0.0,0.0,0.0,0.0,0.0,0.0,0.0,0.0,0.0,0.0,0.0,0.0,0.0,0.0,0.0,0.0,0.0,0.0,0.0,0.0,0.0,0.0,0.0,0.0,0.0,0.0,0.0,0.0,0.0,0.0,0.0,0.0,0.0,0.0,0.0,0.0,0.0,0.0,0.0,0.0,0.0,0.0,0.0,0.0,0.0,0.0,0.0,0.0,0.0,0.0,0.0,0.0,0.0,0.0,0.0,0.0,0.0,0.0,0.0,0.0,0.0,0.0,0.0,0.0,0.0,0.0,0.0,0.0,0.0,0.0,0.0,0.0,0.0,0.0,0.0,0.0,0.0,0.0,0.0,0.0,0.0,0.0,0.0,0.0,0.0,0.0,0.0,0.0,0.0,0.0,0.0,0.0,0.0,0.0,0.0,0.0,0.0,0.0,0.0,0.0,0.0,0.0,0.0,0.0,0.0,0.0,0.0,0.0,0.0,0.0,0.0,0.0,0.0,0.0,0.0,0.0,0.0,0.0,0.0,0.0,0.0,0.0,0.0,0.0,0.0,0.0,0.0,0.0,0.0,0.0,0.0,0.0,0.0,0.0,0.0,0.0,0.0,0.0,0.0,0.0,0.0,0.0,0.0,0.0,0.0,0.0,0.0,0.0,0.0,0.0,0.0,0.0,0.0,0.0,0.0,0.0,0.0,0.0,0.0,0.0,0.0,0.0,0.0,0.0,0.0,0.0,0.0,0.0,0.0,0.0,0.0,0.0,0.0,0.0,0.0,0.0,0.0,0.0,0.0,0.0,0.0,0.0,0.0,0.0,0.0,0.0,0.0,0.0,0.0,0.0,0.0,0.0,0.0,0.0,0.0,0.0,0.0,0.0,0.0,0.0,0.0,0.0,0.0,0.0,0.0,0.0,0.0,0.0,0.0,0.0,0.0,0.0,0.0,0.0,0.0,0.0,0.0,0.0,0.0,0.0,0.0,0.0,0.0,0.0,0.0,0.0,0.0,0.0,0.0,0.0,0.0,0.0,0.0,0.0,0.0,0.0,0.0,0.0,0.0,0.0,0.0,0.0,0.0,0.0,0.0,0.0,0.0,0.0,0.0,0.0,0.0,0.0,0.0,0.0,0.0,0.0,0.0,0.0,0.0,0.0,0.0,0.0,0.0,0.0,0.0,0.0,0.0,0.0,0.0,0.0,0.0,0.0,0.0,0.0,0.0,0.0,0.0,0.0,0.0,0.0,0.0,0.0,0.0,0.0,0.0,0.0,0.0,0.0,0.0,0.0,0.0,0.0,0.0,0.0,0.0,0.0,0.0,0.0,0.0,0.0,0.0,0.0,0.0,0.0,0.0,0.0,0.0,0.0,0.0,0.0,0.0,0.0,0.0,0.0,0.0,0.0,0.0,0.0,0.0,0.0,0.0,0.0,0.0,0.0,0.0,0.0,0.0,0.0,0.0,0.0,0.0,0.0,0.0,0.0,0.0,0.0,0.0,0.0,0.0,0.0,0.0,0.0,0.0,0.0,0.0,0.0,0.0,0.0,0.0,0.0,0.0,0.0,0.0,0.0,0.0,0.0,0.0,0.0,0.0,0.0,0.0,0.0,0.0,0.0,0.0,0.0,0.0,0.0,0.0,0.0,0.0,0.0,0.0,0.0,0.0,0.0,0.0,0.0,0.0,0.0,0.0,0.0,0.0,0.0,0.0,0.0,0.0,0.0,0.0,0.0,0.0,0.0,0.0,0.0,0.0,0.0,0.0,0.0,0.0,0.0,0.0,0.0,0.0,0.0,0.0,0.0,0.0,0.0,0.0,0.0,0.0,0.0,0.0,0.0,0.0,0.0,0.0,0.0,0.0,0.0,0.0,0.0,0.0,0.0,0.0,0.0,0.0,0.0,0.0,0.0,0.0,0.0,0.0,0.0,0.0,0.0,0.0,0.0,0.0,0.0,0.0,0.0,0.0,0.0,0.0,0.0,0.0,0.0,0.0,0.0,0.0,0.0,0.0,0.0,0.0,0.0,0.0,0.0,0.0,0.0,0.0,0.0,0.0,0.0,0.0,0.0,0.0,0.0,0.0,0.0,0.0,0.0,0.0,0.0,0.0,0.0,0.0,0.0,0.0,0.0,0.0,0.0,0.0,0.0,0.0,0.0,0.0,0.0,0.0,0.0,0.0,0.0,0.0,0.0,0.0,0.0,0.0,0.0,0.0,0.0,0.0,0.0,0.0,0.0,0.0,0.0,0.0,0.0,0.0,0.0,0.0,0.0,0.0,0.0,0.0,0.0,0.0,0.0,0.0,0.0,0.0,0.0,0.0,0.0,0.0,0.0,0.0,0.0,0.0,0.0,0.0,0.0,0.0,0.0,0.0,0.0,0.0,0.0,0.0,0.0,0.0,0.0,0.0,0.0,0.0,0.0,0.0,0.0,0.0,0.0,0.0,0.0,0.0,0.0,0.0,0.0,0.0,0.0,0.0,0.0,0.0,0.0,0.0,0.0,0.0,0.0,0.0,0.0,0.0,0.0,0.0,0.0,0.0,0.0,0.0,0.0,0.0,0.0,0.0,0.0,0.0,0.0,0.0,0.0,0.0,0.0,0.0,0.0,0.0,0.0,0.0,0.0,0.0,0.0,0.0,0.0,0.0,0.0,0.0,0.0,0.0,0.0,0.0,0.0,0.0,0.0,0.0,0.0,0.0,0.0,0.0,0.0,0.0,0.0,0.0,0.0,0.0,0.0,0.0,0.0,0.0,0.0,0.0,0.0,0.0,0.0,0.0,0.0,0.0,0.0,0.0,0.0,0.0,0.0,0.0,0.0,0.0,0.0,0.0,0.0,0.0,0.0,0.0,0.0,0.0,0.0,0.0,0.0,0.0,0.0,0.0,0.0,0.0,0.0,0.0,0.0,0.0,0.0,0.0,0.0,0.0,0.0,0.0,0.0,0.0,0.0,0.0,0.0,0.0,0.0,0.0,0.0,0.0,0.0,0.0,0.0,0.0,0.0,0.0,0.0,0.0,0.0,0.0,0.0,0.0,0.0,0.0,0.0,0.0,0.0,0.0,0.0,0.0,0.0,0.0,0.0,0.0,0.0,0.0,0.0,0.0,0.0,0.0,0.0,0.0,0.0,0.0,0.0,0.0,0.0,0.0,0.0,0.0,0.0,0.0,0.0,0.0,0.0,0.0,0.0,0.0,0.0,0.0,0.0,0.0,0.0,0.0,0.0,0.0,0.0,0.0,0.0,0.0,0.0,0.0,0.0,0.0,0.0,0.0,0.0,0.0,0.0,0.0,0.0,0.0,0.0,0.0,0.0,0.0,0.0,0.0,0.0,0.0,0.0,0.0,0.0,0.0,0.0,0.0,0.0,0.0,0.0,0.0,0.0,0.0,0.0,0.0,0.0,0.0,0.0,0.0,0.0,0.0,0.0,0.0,0.0,0.0,0.0,0.0,0.0,0.0,0.0,0.0,0.0,0.0,0.0,0.0,0.0,0.0,0.0,0.0,0.0,0.0,0.0,0.0,0.0,0.0,0.0,0.0,0.0,0.0,0.0,0.0,0.0,0.0,0.0,0.0,0.0,0.0,0.0,0.0,0.0,0.0,0.0,0.0,0.0,0.0,0.0,0.0,0.0,0.0,0.0,0.0,0.0,0.0,0.0,0.0,0.0,0.0,0.0,0.0,0.0,0.0,0.0,0.0,0.0,0.0,0.0,0.0,0.0,0.0,0.0,0.0,0.0,0.0,0.0,0.0,0.0,0.0,0.0,0.0,0.0,0.0,0.0,0.0,0.0,0.0,0.0,0.0,0.0,0.0,0.0,0.0,0.0,0.0,0.0,0.0,0.0,0.0,0.0,0.0,0.0,0.0,0.0,0.0,0.0,0.0,0.0,0.0,0.0,0.0,0.0,0.0,0.0,0.0,0.0,0.0,0.0,0.0,0.0,0.0,0.0,0.0,0.0,0.0,0.0,0.0,0.0,0.0,0.0,0.0,0.0,0.0,0.0,0.0,0.0,0.0,0.0,0.0,0.0,0.0,0.0,0.0,0.0,0.0,0.0,0.0,0.0,0.0,0.0,0.0,0.0,0.0,0.0,0.0,0.0,0.0,0.0,0.0,0.0,0.0,0.0,0.0,0.0,0.0,0.0,0.0,0.0,0.0,0.0,0.0,0.0,0.0,0.0,0.0,0.0,0.0,0.0,0.0,0.0,0.0,0.0,0.0,0.0,0.0,0.0,0.0,0.0,0.0,0.0,0.0,0.0,0.0,0.0,0.0,0.0,0.0,0.0,0.0,0.0,0.0,0.0,0.0,0.0,0.0,0.0,0.0,0.0,0.0,0.0,0.0,0.0,0.0,0.0,0.0,0.0,0.0,0.0,0.0,0.0,0.0,0.0,0.0,0.0,0.0,0.0,0.0,0.0,0.0,0.0,0.0,0.0,0.0,0.0,0.0,0.0,0.0,0.0,0.0,0.0,0.0,0.0,0.0,0.0,0.0,0.0,0.0,0.0,0.0,0.0,0.0,0.0,0.0,0.0,0.0,0.0,0.0,0.0,0.0,0.0,0.0,0.0,0.0,0.0,0.0,0.0,0.0,0.0,0.0,0.0,0.0,0.0,0.0,0.0,0.0,0.0,0.0,0.0,0.0,0.0,0.0,0.0,0.0,0.0,0.0,0.0,0.0,0.0,0.0,0.0,0.0,0.0,0.0,0.0,0.0,0.0,0.0,0.0,0.0,0.0,0.0,0.0,0.0,0.0,0.0,0.0,0.0,0.0,0.0,0.0,0.0,0.0,0.0,0.0,0.0,0.0,0.0,0.0,0.0,0.0,0.0,0.0,0.0,0.0,0.0,0.0,0.0,0.0,0.0,0.0,0.0,0.0,0.0,0.0,0.0,0.0,0.0,0.0,0.0,0.0,0.0,0.0,0.0,0.0,0.0,0.0,0.0,0.0,0.0,0.0,0.0,0.0,0.0,0.0,0.0,0.0,0.0,0.0,0.0,0.0,0.0,0.0,0.0,0.0,0.0,0.0,0.0,0.0,0.0,0.0,0.0,0.0,0.0,0.0,0.0,0.0,0.0,0.0,0.0,0.0,0.0,0.0,0.0,0.0,0.0,0.0,0.0,0.0,0.0,5.3549,0.0,0.0,0.0,0.0,0.0,0.0,0.0,0.0,0.0,0.0,0.0,0.0,0.0,0.0,0.0,0.0,0.0,0.0,0.0,0.0,0.0,0.0,0.0,0.0,4.3497,4.3497,4.3497,4.3497,4.3314,4.2947,0.0,0.0,0.0,0.0,0.0,0.0,0.0,4.2506,4.2873,4.3681,4.4452,4.5186,4.5626,0.0,0.0,0.0,0.0,0.0,0.0,0.0,0.0,0.0,0.0,0.0,0.0,0.0,0.0,0.0,0.0,0.0,0.0,0.0,0.0,0.0,0.0,0.0,0.0,0.0,0.0,0.0,0.0,0.0,0.0,0.0,0.0,0.0,0.0,0.0,0.0,0.0,0.0,0.0,0.0,0.0,0.0,0.0,0.0,0.0,0.0,0.0,0.0,0.0,0.0,0.0,0.0,0.0,0.0,0.0,0.0,0.0,0.0,0.0,0.0,0.0,0.0,0.0,0.0,0.0,0.0,0.0,0.0,0.0,0.0,0.0,0.0,0.0,5.3703,0.0,0.0,0.0,0.0,0.0,0.0,0.0,0.0,0.0,0.0,0.0,0.0,0.0,0.0,0.0,0.0,0.0,0.0,0.0,0.0,0.0,4.3497,4.3497,4.3497,4.3497,4.3497,4.3497,4.3167,4.2359,4.2286,4.1992,4.1368,4.1332,4.1625,4.2286,4.2433,4.291,4.3718,4.4672,4.6214,4.8306,4.8306,0.0,0.0,0.0,0.0,0.0,0.0,0.0,0.0,0.0,0.0,0.0,0.0,0.0,0.0,0.0,0.0,0.0,0.0,0.0,0.0,0.0,0.0,0.0,0.0,0.0,0.0,0.0,0.0,0.0,0.0,0.0,0.0,0.0,0.0,0.0,0.0,0.0,0.0,0.0,0.0,0.0,0.0,0.0,0.0,0.0,0.0,0.0,0.0,0.0,0.0,0.0,0.0,0.0,0.0,0.0,0.0,0.0,0.0,0.0,0.0,0.0,0.0,0.0,0.0,0.0,0.0,5.6126,5.6665,5.6819,5.6819,5.6434,5.5895,5.6819,5.755,5.7896,5.578,0.0,0.0,0.0,0.0,0.0,0.0,0.0,0.0,0.0,0.0,0.0,0.0,0.0,0.0,0.0,0.0,0.0,0.0,0.0,4.3497,4.3497,4.3497,4.3497,4.3497,4.3497,4.3167,4.2359,4.2286,4.2249,4.2139,4.2139,4.2176,4.2286,4.2983,4.3754,4.4562,4.6067,4.7315,4.8306,4.8306,4.8086,4.7719,4.8673,0.0,0.0,0.0,0.0,0.0,0.0,0.0,0.0,0.0,0.0,0.0,0.0,0.0,0.0,0.0,0.0,0.0,0.0,0.0,0.0,0.0,0.0,0.0,0.0,0.0,0.0,0.0,0.0,0.0,0.0,0.0,0.0,0.0,0.0,0.0,0.0,0.0,0.0,0.0,0.0,0.0,0.0,0.0,5.0548,5.2779,0.0,0.0,0.0,0.0,0.0,0.0,0.0,0.0,0.0,0.0,0.0,0.0,0.0,5.428,5.4857,5.6819,5.7819,5.7819,5.9396,6.0512,6.1243,6.1243,6.1204,6.0973,5.8973,0.0,5.7126,5.6819,0.0,0.0,0.0,0.0,0.0,0.0,0.0,0.0,0.0,0.0,0.0,0.0,0.0,0.0,0.0,0.0,0.0,0.0,0.0,0.0,0.0,4.3901,4.4342,4.4819,4.4856,4.4305,4.3057,4.2947,4.258,4.1662,4.1625,4.1846,4.2286,4.2213,4.3424,4.6067,4.86,5.0288,5.1059,5.1059,5.1059,5.1096,5.1463,5.0508,4.871,4.9407,0.0,0.0,0.0,0.0,0.0,0.0,0.0,0.0,0.0,0.0,0.0,0.0,0.0,0.0,0.0,0.0,0.0,0.0,0.0,0.0,0.0,0.0,0.0,0.0,0.0,0.0,0.0,0.0,0.0,0.0,0.0,0.0,0.0,0.0,0.0,0.0,0.0,0.0,0.0,5.1202,5.2856,5.4434,5.378,5.2741,0.0,0.0,0.0,0.0,0.0,0.0,0.0,0.0,0.0,5.4472,5.6319,5.7242,5.7165,5.9781,6.1358,6.1858,6.2589,6.3397,6.4243,6.4243,6.4243,6.4128,6.2551,6.1627,6.105,5.8165,5.7011,5.678,0.0,0.0,0.0,0.0,5.1548,5.2818,0.0,0.0,0.0,0.0,0.0,0.0,0.0,0.0,0.0,0.0,0.0,0.0,4.3791,4.4525,4.5259,4.5847,4.6104,4.5516,4.3901,4.3608,4.2947,4.1772,4.1111,4.1479,4.2873,4.3167,4.5039,4.8673,5.1316,5.3041,5.3812,5.3812,5.3812,5.3812,5.3812,5.2601,5.0508,5.0729,4.9701,0.0,0.0,0.0,0.0,0.0,0.0,0.0,0.0,0.0,0.0,0.0,0.0,0.0,0.0,0.0,0.0,0.0,0.0,0.0,0.0,0.0,0.0,0.0,0.0,0.0,0.0,0.0,0.0,0.0,0.0,0.0,0.0,0.0,0.0,0.0,0.0,0.0,0.0,5.3164,5.4395,5.5857,5.5126,5.4164,0.0,0.0,0.0,0.0,0.0,0.0,5.5742,5.6357,5.678,5.7088,5.9511,6.0627,6.0242,6.2704,6.4282,6.4936,6.4936,6.5397,6.6205,6.6205,6.6205,6.6167,6.5513,6.5128,6.4589,6.0358,5.8627,5.855,5.7896,5.6626,5.5126,5.4895,5.5357,5.6088,0.0,0.0,0.0,0.0,0.0,0.0,0.0,0.0,0.0,0.0,0.0,4.4635,4.4635,4.5369,4.5847,4.5883,4.6617,4.6361,4.4745,4.3901,4.3461,4.3387,4.1185,4.1405,4.4525,4.7609,5.0398,5.2894,5.3812,5.4693,5.5464,5.5464,5.5464,5.5464,5.5464,5.3298,4.9701,5.0472,4.9407,4.7168,0.0,0.0,0.0,0.0,0.0,0.0,0.0,0.0,0.0,0.0,0.0,0.0,0.0,0.0,0.0,0.0,0.0,0.0,0.0,0.0,0.0,0.0,0.0,0.0,0.0,0.0,0.0,0.0,0.0,0.0,0.0,0.0,0.0,0.0,0.0,0.0,0.0,0.0,0.0,5.6549,5.7588,0.0,0.0,0.0,0.0,5.5511,5.5549,5.6703,5.9127,5.9281,6.0781,6.3974,6.4243,6.4705,6.5513,6.5705,6.5782,6.582,6.582,6.6244,6.7051,6.7051,6.7051,6.7051,6.6974,6.6551,6.5705,6.3782,6.2974,6.2743,6.0319,5.9781,6.0012,5.6819,5.7703,6.0358,0.0,0.0,0.0,0.0,0.0,4.3497,4.3497,4.3057,4.2727,4.2727,4.3424,4.4121,4.4635,4.5883,4.7131,4.8196,4.8526,4.8453,4.7865,4.6581,4.559,4.5076,4.3718,4.3791,4.5443,4.9187,5.1316,5.1683,5.4032,5.5574,5.6381,5.6381,5.6381,5.6381,5.6381,5.528,5.3445,5.3225,5.172,4.9481,4.9481,4.8526,0.0,0.0,0.0,0.0,0.0,0.0,0.0,0.0,0.0,0.0,0.0,0.0,0.0,0.0,0.0,0.0,0.0,0.0,0.0,0.0,0.0,0.0,0.0,0.0,0.0,0.0,0.0,0.0,0.0,0.0,0.0,0.0,0.0,0.0,0.0,0.0,0.0,5.8204,5.8434,0.0,5.7857,5.828,5.8473,5.8165,5.9665,6.1243,6.2704,6.2781,6.3589,6.5397,6.5936,6.6359,6.6667,6.7244,6.7782,6.8359,6.8359,6.8783,6.9552,6.9552,6.9552,6.9513,6.9013,6.859,6.8244,6.709,6.5936,6.4897,6.3974,6.3474,6.3089,6.1897,6.1858,6.2358,0.0,0.0,0.0,0.0,0.0,4.3497,4.3497,4.3057,4.28,4.3057,4.3791,4.4599,4.5443,4.6985,4.8379,4.9481,5.0068,5.0178,4.9627,4.8049,4.6764,4.592,4.592,4.6434,4.7535,5.1022,5.2931,5.3225,5.5354,5.6969,5.8033,5.8033,5.8033,5.8033,5.8033,5.7409,5.6345,5.5831,5.4216,5.1977,5.1426,4.9554,4.7131,0.0,0.0,0.0,0.0,0.0,0.0,0.0,0.0,0.0,0.0,0.0,0.0,0.0,0.0,0.0,0.0,0.0,0.0,0.0,0.0,0.0,0.0,0.0,0.0,0.0,0.0,0.0,0.0,0.0,0.0,0.0,0.0,0.0,0.0,0.0,5.6703,5.9204,5.955,5.9588,5.9588,6.0589,6.1204,6.1204,6.3051,6.4551,6.5397,6.5436,6.5974,6.7167,6.7705,6.809,6.8359,6.8936,6.9552,7.009,7.009,7.0398,7.0898,7.0898,7.0591,7.0052,7.009,6.9783,6.9244,6.9244,6.859,6.7513,6.6974,6.6397,6.5897,6.5897,6.5513,6.5013,0.0,0.0,0.0,0.0,0.0,4.3497,4.3497,4.3461,4.3718,4.4525,4.5369,4.6177,4.6985,4.8563,4.9591,4.9664,5.1096,5.1316,4.9738,4.8086,4.6801,4.5993,4.7498,4.915,5.0912,5.3298,5.5684,5.807,5.8107,5.8951,6.0529,6.0529,6.0529,6.0529,6.0493,5.9612,5.8107,5.807,5.6712,5.4363,5.2747,5.0178,4.7315,0.0,0.0,0.0,0.0,0.0,0.0,0.0,0.0,0.0,0.0,0.0,0.0,0.0,0.0,0.0,0.0,0.0,0.0,0.0,0.0,0.0,0.0,0.0,0.0,0.0,0.0,0.0,0.0,0.0,0.0,0.0,0.0,0.0,5.3126,5.6203,5.8627,5.9511,6.1127,6.2166,6.2204,6.3705,6.4666,6.4666,6.5474,6.632,6.7128,6.7128,6.7898,6.9629,6.9667,7.0052,7.086,7.0898,7.0937,7.0975,7.0975,7.0975,7.0975,7.0975,7.009,6.8667,7.0244,7.0014,6.8629,7.0244,7.0898,7.0744,6.9129,6.8475,6.8436,6.8436,6.8436,6.8398,0.0,0.0,0.0,4.3497,4.3497,4.3497,4.3497,4.2983,4.2727,4.2947,4.4158,4.5333,4.614,4.8233,5.0068,5.1242,5.172,5.1573,5.0545,4.8893,4.7865,4.7645,4.8673,5.0802,5.4216,5.6051,5.7923,5.9758,6.0309,6.1447,6.3062,6.3062,6.3062,6.3062,6.2438,6.1594,6.0566,5.9979,5.8694,5.6859,5.5244,5.3371,5.1536,0.0,0.0,0.0,0.0,0.0,0.0,0.0,0.0,0.0,0.0,0.0,0.0,0.0,0.0,0.0,0.0,0.0,0.0,0.0,0.0,0.0,0.0,0.0,0.0,0.0,0.0,0.0,0.0,0.0,0.0,0.0,5.4549,5.6626,5.6851,5.7703,5.9281,6.1935,6.3243,6.4166,6.4782,6.5782,6.6397,6.6397,6.7205,6.809,6.8936,6.7782,6.759,6.8744,6.8783,6.9167,7.0014,7.1245,7.2168,7.2783,7.2783,7.2783,7.2783,7.2783,7.2552,7.2091,7.1937,7.1591,7.1129,7.0975,7.0898,7.086,7.0398,6.986,6.936,6.936,6.8936,6.8129,0.0,0.0,0.0,4.3497,4.3497,4.3497,4.3497,4.3094,4.28,4.28,4.4525,4.5883,4.6361,4.893,5.0986,5.1903,5.2307,5.1867,5.0398,4.904,4.8746,4.9811,5.1279,5.3518,5.6528,5.851,6.0126,6.141,6.2254,6.3319,6.4604,6.4604,6.4604,6.4567,6.409,6.3392,6.2585,6.1777,6.0676,5.9355,5.7776,5.5354,5.2784,5.3445,5.2307,5.0435,5.1463,5.161,5.1316,5.1316,0.0,0.0,0.0,0.0,0.0,0.0,0.0,0.0,0.0,0.0,0.0,0.0,0.0,0.0,0.0,0.0,0.0,0.0,0.0,0.0,0.0,0.0,0.0,0.0,5.6007,5.8593,6.0326,6.0597,6.1416,6.3603,6.4897,6.5859,6.6359,6.7264,6.7803,6.7803,6.8608,6.9298,6.9864,6.947,6.9129,6.8936,6.9975,7.0437,7.0206,7.1898,7.3014,7.3514,7.3514,7.3514,7.3514,7.3514,7.3091,7.2437,7.2668,7.2322,7.1668,7.1898,7.1783,0.0,0.0,0.0,0.0,0.0,6.9898,6.9244,0.0,0.0,0.0,4.3497,4.3497,4.3497,4.3497,4.3497,4.3497,4.3497,4.559,4.7131,4.7241,5.0105,5.205,5.2123,5.2711,5.2123,4.9848,4.8746,4.9444,5.227,5.4436,5.6528,5.851,6.0639,6.2218,6.3246,6.398,6.4787,6.5595,6.5595,6.5595,6.5595,6.5485,6.5044,6.431,6.3466,6.2548,6.1594,6.0199,5.6895,5.2968,5.4289,5.3041,5.0802,5.2968,5.3298,5.2637,5.2564,0.0,0.0,0.0,0.0,0.0,0.0,0.0,0.0,0.0,0.0,0.0,0.0,0.0,0.0,0.0,0.0,0.0,0.0,0.0,0.0,0.0,0.0,0.0,0.0,5.7105,5.905,6.327,6.4025,6.4374,6.4872,6.6346,6.7345,6.7422,6.8373,6.8917,6.8883,6.9718,7.0213,7.0141,0.0,0.0,0.0,0.0,7.2514,7.1052,7.2783,7.364,7.3688,7.3755,7.3755,7.3688,7.3755,7.2937,7.1552,7.3014,7.2745,7.1437,7.2899,7.3053,7.2245,7.1283,7.0898,7.086,7.0591,7.0667,7.086,0.0,0.0,4.3497,4.3497,4.3497,4.3497,4.3497,4.3497,4.3497,4.3497,4.559,4.7352,4.8012,5.0435,5.227,5.2931,5.2527,5.1756,5.0655,4.8563,4.9591,5.4656,5.5354,5.7556,6.1777,6.2328,6.3613,6.5778,6.5962,6.6439,6.7247,6.7247,6.7247,6.721,6.6549,6.6182,6.5962,6.5154,6.3943,6.2548,6.2254,6.0382,5.7776,5.7446,5.6932,5.6418,5.6895,5.6969,5.6748,5.6088,5.5427,5.4987,5.55,0.0,0.0,0.0,0.0,0.0,0.0,0.0,0.0,0.0,0.0,0.0,0.0,0.0,0.0,0.0,0.0,0.0,0.0,0.0,0.0,5.7229,6.003,6.2653,6.3992,6.5602,6.6701,6.6968,6.7865,6.8776,6.9464,6.9742,6.969,6.9207,7.0343,7.0874,7.0455,7.0489,7.0386,7.0042,7.092,7.1591,7.1937,7.363,7.4566,7.4813,0.0,0.0,7.4813,7.5288,7.5322,7.4976,7.463,7.4284,7.3937,7.363,7.3399,7.3091,7.1514,7.0898,7.0667,6.859,6.9129,7.0591,0.0,4.3497,4.3497,4.3497,4.3497,4.3497,4.3497,4.3167,4.302,4.3424,4.5259,4.6985,4.8159,4.9811,5.1096,5.194,5.0875,5.0325,5.0765,5.0398,5.216,5.6602,5.796,5.9905,6.2768,6.4016,6.5264,6.6512,6.688,6.7283,6.7687,6.7687,6.7687,6.765,6.7283,6.71,6.7026,6.6256,6.5411,6.453,6.3319,6.2108,6.086,5.9208,5.8364,5.7997,5.7997,5.7997,5.7923,5.7556,5.7116,5.6859,5.7262,5.6565,5.528,0.0,0.0,0.0,0.0,0.0,0.0,0.0,0.0,0.0,0.0,0.0,0.0,0.0,0.0,5.4112,5.4112,0.0,5.7854,5.9123,6.1137,6.3325,6.5421,6.6635,6.7411,6.777,6.8563,6.9246,6.9663,6.9472,6.934,6.9491,7.0127,7.0541,7.0683,7.1203,7.1142,7.0308,7.1785,7.2386,7.1929,7.368,7.4709,7.5091,7.5413,7.5551,7.5551,7.5848,7.6015,7.5976,7.5553,7.5361,7.5284,7.4437,7.4091,7.3976,7.2706,7.1937,7.1398,7.0129,7.0167,7.0706,0.0,0.0,4.3497,4.3497,4.3497,4.3497,4.3497,4.2947,4.28,4.3608,4.5002,4.6434,4.7902,4.882,4.9554,5.0031,4.8857,4.893,5.0912,5.238,5.4803,5.8327,6.0493,6.2144,6.3282,6.5411,6.6586,6.6733,6.7357,6.7687,6.7687,6.7687,6.7687,6.7687,6.7687,6.7687,6.765,6.699,6.6623,6.6292,6.4163,6.3099,6.2548,6.0309,5.8951,5.8217,5.807,5.7997,5.7997,5.7997,5.7997,5.7997,5.7997,5.7997,5.7446,5.4509,5.4583,0.0,0.0,0.0,0.0,0.0,0.0,0.0,0.0,0.0,5.4289,5.3959,5.4803,5.5611,5.5757,5.7005,5.8804,6.1366,6.2187,6.3628,6.6664,6.728,6.7505,6.7921,6.865,6.9148,6.9148,6.89,6.8948,6.9509,6.9904,7.0388,7.0907,7.2286,7.2454,7.1137,7.3301,7.3878,7.2439,7.4029,7.4918,7.5245,7.5361,7.5586,7.5982,7.6082,7.6108,7.6048,7.6024,7.6015,7.5938,7.5245,7.4938,7.4899,7.4245,7.3437,7.2668,7.2514,7.2014,7.1398,0.0,0.0,0.0,4.3497,4.3497,4.3497,4.3497,4.3424,4.3644,4.4452,4.5333,4.625,4.7168,4.7976,4.8196,4.7572,4.7352,4.8563,5.1646,5.2711,5.528,5.9942,6.108,6.2658,6.4971,6.5999,6.6843,6.7577,6.765,6.7687,6.7687,6.7687,6.7687,6.7687,6.7687,6.7687,6.7687,6.7577,6.7136,6.6402,6.5411,6.4127,6.2622,6.0933,5.9795,5.8988,5.8253,5.7997,5.7997,5.7997,5.7997,5.7997,5.7997,5.7997,5.7629,5.5868,0.0,5.4876,5.1683,4.9334,0.0,4.9627,5.1059,5.2123,0.0,0.0,5.8143,5.6712,5.818,5.9942,6.0639,6.152,6.2475,6.3603,6.4985,6.6124,6.6507,6.7169,6.7663,6.7715,6.8234,6.8567,6.8567,6.9192,6.9422,6.9024,7.0768,7.1672,7.125,7.2578,7.3268,7.3081,7.459,7.5274,7.5085,7.5984,7.6207,7.572,7.6253,7.63,7.582,7.6391,7.6493,7.627,7.6063,7.6015,7.5976,7.5899,7.5861,7.5861,7.5745,7.5207,7.4322,7.363,7.3283,7.3091,0.0,0.0,0.0,4.3497,4.3497,4.3497,4.3497,4.3094,4.324,4.4525,4.4599,4.5186,4.6911,4.6581,4.57,4.4415,4.5186,4.6874,4.9664,5.194,5.517,5.9538,6.1374,6.3246,6.5264,6.6549,6.7357,6.7687,6.7687,6.7687,6.7687,6.7687,6.7687,6.7687,6.7687,6.7687,6.7687,6.7687,6.7504,6.71,6.5815,6.4604,6.3319,6.1227,5.9905,5.9061,5.7776,5.7005,0.0,0.0,5.7005,5.6748,5.7703,5.7373,5.6455,5.5794,5.495,0.0,5.1977,0.0,0.0,0.0,5.4987,5.6895,5.6895,5.8437,5.9832,5.9648,6.0786,6.2071,6.2879,6.3319,6.398,0.0,6.5668,6.6145,6.7063,6.7467,6.7687,6.7687,6.7067,6.6629,6.6629,6.8181,6.8963,6.8238,7.0347,7.1711,7.1982,7.2558,7.3056,7.3536,7.4158,7.4673,7.5118,7.549,7.5692,7.5813,7.6069,7.6268,7.6327,7.6563,7.6646,7.652,7.6424,7.6311,7.6174,7.6174,7.6108,7.6015,7.6015,7.5784,7.5361,7.4514,7.3899,7.3437,0.0,0.0,0.0,4.3497,4.3497,4.3571,4.3791,4.3351,4.3461,4.4856,4.4342,4.4415,4.5957,4.4892,4.3681,4.2727,4.4085,4.6067,4.8489,5.172,5.5133,5.8731,6.119,6.3135,6.4604,6.6402,6.7357,6.7357,6.7577,6.7687,6.7687,6.7687,6.7687,6.7687,6.7687,6.7687,6.7687,6.7467,6.7357,6.721,6.5375,6.4273,6.3466,6.1006,5.9428,5.8364,5.6969,5.5941,0.0,0.0,5.5574,5.5464,5.6638,5.6492,5.5868,5.5647,5.4473,5.3115,5.2747,0.0,0.0,5.6271,5.785,5.9722,6.0823,6.108,6.1374,6.2401,6.3099,6.3759,6.4604,6.4751,6.5228,6.6623,6.6329,6.6366,6.754,6.7687,6.754,6.71,6.6219,6.5301,6.4383,6.688,6.8605,6.8678,7.0513,7.1908,7.2459,7.2716,7.3083,7.367,7.4111,7.4625,7.5249,7.5469,7.5801,7.6235,7.6235,7.6468,7.6893,7.6777,7.6761,7.6761,7.6722,7.6582,7.6386,7.6386,7.6312,7.6207,7.6108,7.6063,7.6018,7.5302,7.4707,7.4168,0.0,0.0,0.0,0.0,4.3497,4.3754,4.4562,4.4635,4.4929,4.5773,4.5149,4.4378,4.3681,4.2873,4.2653,4.3387,4.4929,4.6874,4.9297,5.2527,5.5464,5.7923,6.0346,6.2034,6.2879,6.5301,6.6549,6.6549,6.732,6.7687,6.7687,6.7687,6.7687,6.7687,6.7687,6.7687,6.765,6.688,6.6549,6.6329,6.387,6.2879,6.2585,6.0162,5.8253,5.6748,5.5941,0.0,0.0,5.3555,5.3812,5.4436,5.4473,5.5537,0.0,5.5831,5.4473,5.3371,0.0,0.0,5.3115,5.6969,5.7409,5.7923,6.1851,6.2732,6.3209,6.4861,6.5228,6.5485,6.6292,6.6439,6.6696,6.7504,6.7614,6.7614,6.7687,6.7687,6.71,6.5558,6.6035,6.5191,0.0,6.5375,6.8678,7.1027,7.1982,7.2459,7.2496,7.323,7.367,7.3707,7.5212,7.6056,7.6056,7.6864,7.7231,7.7231,7.7231,7.7231,7.7255,7.7089,7.6952,7.6968,7.6798,7.6701,7.6663,7.6663,7.6663,7.6639,7.6387,7.6311,7.6271,7.6056,7.5938,7.5784,0.0,0.0,0.0,0.0,0.0,4.4562,4.5369,4.5039,4.4819,4.5076,4.4415,0.0,0.0,0.0,0.0,0.0,4.3497,4.5002,4.8489,5.0765,5.3592,5.7042,5.9538,6.119,6.1998,6.3906,6.4897,6.4897,6.5705,6.6366,6.688,6.688,6.7173,6.765,6.7136,6.688,6.6843,6.6035,6.5411,6.4787,6.3392,6.2181,6.0933,5.8547,5.6602,5.5023,0.0,0.0,5.1977,5.172,5.1793,5.2197,5.3261,5.3261,5.2674,5.1867,5.3115,5.4509,0.0,0.0,5.7776,5.8584,6.0236,6.2144,6.4053,6.4457,6.4787,6.5888,6.5264,6.4751,6.5558,6.4787,6.4494,6.5888,6.5191,6.5228,6.7393,6.6292,6.5888,6.7504,6.6512,0.0,0.0,0.0,0.0,6.8128,7.0844,7.2716,7.3266,7.356,7.4184,7.5249,7.5836,7.635,7.69,7.7194,7.7304,7.7304,7.7304,7.7304,7.7304,7.7215,7.7186,7.7186,7.7143,7.6993,7.6905,7.7307,7.7191,7.6746,7.7034,7.7151,7.7074,7.6418,7.6498,7.6746,0.0,0.0,0.0,0.0,0.0,0.0,0.0,0.0,0.0,0.0,0.0,0.0,0.0,0.0,0.0,0.0,0.0,4.4525,4.7682,4.9444,5.1793,5.495,5.6859,5.807,5.8584,6.0786,6.1924,6.1924,6.3906,6.5154,6.5632,6.5925,6.6366,6.6806,6.6292,6.5925,6.5595,6.4751,6.4127,6.3466,6.1484,6.0236,5.9281,5.6859,5.495,0.0,0.0,5.1059,5.0362,5.0362,5.0545,5.0986,5.2013,5.205,5.172,5.205,5.3775,5.55,0.0,5.785,6.0933,6.13,6.2989,6.4751,6.5558,6.5742,6.5962,6.6769,6.6109,6.5264,6.4934,6.4237,6.3943,6.4751,6.4237,6.4751,6.7687,6.6769,6.6476,6.8274,6.7357,6.7393,0.0,0.0,0.0,6.7871,7.044,7.2312,7.2826,7.3377,7.4441,7.6056,7.6387,7.679,7.7304,7.7304,7.7304,7.7304,7.7304,7.7304,7.7304,7.7304,7.6864,7.6056,7.6937,7.6737,7.5921,7.7442,7.7727,7.7335,7.7827,7.8065,7.7989,7.7332,7.7341,7.7553,0.0,0.0,0.0,0.0,0.0,0.0,0.0,0.0,0.0,0.0,0.0,0.0,0.0,0.0,0.0,0.0,0.0,0.0,4.7021,4.8636,5.0251,5.1903,5.2747,5.3188,5.3225,5.6161,5.7703,5.774,6.1667,6.3613,6.3686,6.4494,6.4897,6.4934,6.4897,6.4457,6.3649,6.2805,6.2438,6.2034,5.8217,5.7152,5.7556,5.517,5.3335,5.1867,5.1096,5.0288,4.9591,4.9517,5.0141,5.0949,5.1022,5.2087,5.3775,5.6088,5.6308,5.6492,5.9575,6.108,6.2365,6.4751,6.5375,6.5595,6.6366,6.6549,6.6733,6.743,6.7467,6.6659,0.0,0.0,6.464,6.4053,6.4567,6.5925,6.8421,6.8788,6.8531,0.0,0.0,0.0,0.0,0.0,0.0,7.0183,0.0,7.1468,7.1541,7.2973,7.4551,7.613,7.69,7.7304,7.7304,7.7304,7.7304,7.7304,7.7304,7.7304,7.7304,7.7304,7.6056,7.4001,7.6313,7.6019,7.4096,7.7107,7.8309,7.8304,7.8723,7.8904,7.8904,7.8596,7.8554,7.8323,0.0,0.0,0.0,0.0,0.0,0.0,0.0,0.0,0.0,0.0,0.0,0.0,0.0,0.0,0.0,0.0,0.0,0.0,4.6985,4.8086,4.9627,5.1903,5.2197,5.2601,5.3188,5.3408,5.3812,5.4436,5.6088,5.7189,5.7776,5.8584,5.9281,5.9832,5.9245,5.8841,5.8621,5.7776,5.7079,5.6455,5.5427,5.5133,5.5133,5.3298,5.2344,5.1867,5.1096,0.0,0.0,0.0,0.0,0.0,0.0,5.4656,5.5097,5.5721,5.7446,5.9355,6.0199,6.2365,6.464,6.5888,6.6182,6.6402,6.721,6.7393,6.71,6.6109,6.442,6.2585,0.0,0.0,0.0,6.1777,6.1924,0.0,6.6586,6.71,0.0,6.8495,0.0,7.011,7.0881,7.2055,0.0,0.0,7.2275,7.3597,7.4808,7.5285,7.5946,7.6974,7.7194,7.7304,7.7304,7.7304,7.7304,7.7304,7.7304,7.7304,7.7304,7.7304,7.6974,7.6423,7.7047,7.6974,7.6484,7.7756,7.8016,7.7614,7.8736,7.9122,7.9096,7.8866,7.9071,7.9323,0.0,0.0,0.0,0.0,0.0,0.0,0.0,0.0,0.0,0.0,0.0,0.0,0.0,0.0,0.0,0.0,0.0,0.0,0.0,4.7021,4.8196,5.0288,5.0031,5.0068,5.0508,5.0435,5.0765,5.161,5.2784,5.3775,5.4546,5.5023,5.5647,5.6381,5.5941,5.5757,5.5721,5.5244,5.4803,0.0,0.0,5.3261,5.3702,5.2087,5.1683,5.1867,0.0,0.0,0.0,0.0,0.0,5.3739,5.6748,5.7446,5.7446,5.8914,0.0,6.1704,6.2768,6.442,6.6035,6.6843,6.7026,6.6843,6.6256,6.6109,6.5558,6.3576,6.2034,0.0,5.851,5.7336,0.0,0.0,0.0,0.0,6.6512,6.732,6.8017,0.0,7.0146,0.0,7.2863,7.3744,7.4001,0.0,7.3597,7.4074,7.4992,7.5395,7.6093,7.7268,7.7304,7.7304,7.7304,7.7304,7.7304,7.7304,7.7304,7.7304,7.7304,7.7304,7.6754,7.5799,0.0,7.6717,7.5859,7.7571,7.8072,7.7846,7.8816,7.938,7.9604,7.9474,7.981,8.0285,0.0,0.0,0.0,0.0,0.0,0.0,0.0,0.0,0.0,0.0,4.5259,4.5223,0.0,0.0,0.0,0.0,0.0,0.0,0.0,0.0,4.6617,4.8233,4.7535,4.713,4.7278,4.7755,4.8416,4.926,5.0655,5.172,5.2417,5.2527,5.2931,5.3592,5.3592,5.3592,5.3592,5.3592,5.3592,5.3408,5.1316,5.1463,5.2747,0.0,0.0,0.0,0.0,0.0,0.0,0.0,5.5427,5.4509,5.9245,6.0346,6.0382,6.3135,6.3613,6.3759,6.5778,6.6512,6.6843,6.7504,6.7687,6.7136,6.5044,6.431,6.3429,6.1043,0.0,5.9318,5.7336,5.7446,5.84,6.0126,0.0,6.3759,6.6476,6.8054,6.9155,6.9853,7.077,7.1982,7.367,7.4404,7.5139,7.6019,7.4918,7.4184,7.4184,7.4845,7.5873,7.7268,7.7304,7.7304,7.7304,7.7304,7.7304,7.7304,7.7304,7.7304,7.7304,7.7304,7.6166,7.4294,7.6387,7.613,7.439,7.707,7.8146,7.8255,7.8816,7.938,7.9888,8.0008,8.0463,8.0991,0.0,0.0,0.0,0.0,0.0,0.0,0.0,0.0,0.0,0.0,4.4415,4.4819,0.0,0.0,0.0,0.0,0.0,0.0,0.0,0.0,0.0,4.8233,4.7535,4.7425,4.8086,4.6948,4.6728,4.7535,4.7829,4.8049,4.8196,4.8857,4.9224,4.937,4.937,4.937,4.937,4.937,4.937,4.9334,4.8893,4.9738,5.1206,0.0,0.0,0.0,0.0,0.0,0.0,0.0,5.6528,5.6895,6.108,6.2768,6.3209,6.3062,6.4383,6.5815,6.5595,6.6476,6.7504,6.765,6.7687,6.7577,6.7173,6.5521,0.0,0.0,5.9281,5.7519,5.774,5.7373,5.774,6.0052,6.1777,6.2768,6.2658,6.6256,6.8972,0.0,0.0,0.0,0.0,0.0,0.0,0.0,7.646,7.668,7.668,7.6827,7.7047,7.7304,7.7304,7.7304,7.7304,7.7304,7.7304,7.7304,7.7304,7.7304,7.7304,7.7304,7.7084,7.6717,7.7157,0.0,7.6717,7.7242,7.745,7.757,7.82,7.8536,7.8754,7.9727,8.0163,8.0352,0.0,0.0,0.0,0.0,0.0,0.0,0.0,4.5296,4.4856,4.3644,4.3461,4.3608,4.4011,4.3718,4.3497,0.0,0.0,0.0,0.0,0.0,0.0,0.0,0.0,0.0,4.8306,4.7131,0.0,0.0,0.0,4.6691,4.7131,0.0,0.0,4.7682,4.7682,4.7902,4.8306,4.8306,4.8306,4.8306,4.8306,4.9297,0.0,0.0,0.0,0.0,0.0,0.0,0.0,0.0,5.528,5.5868,6.1153,6.3686,6.4457,6.3209,6.4861,6.6843,6.5632,6.6476,6.7687,6.7687,6.7687,6.7026,6.4457,0.0,0.0,0.0,5.6014,5.506,5.5427,5.484,0.0,6.0272,6.1667,6.2915,6.5081,6.7797,0.0,7.011,7.1211,7.2532,0.0,0.0,0.0,7.5432,7.5836,7.6423,7.7268,7.7304,7.7304,7.7304,7.7304,7.7304,7.7304,7.7304,7.7304,7.7304,7.7304,7.7304,7.7304,7.7304,7.7304,7.7304,7.7304,0.0,7.5542,7.679,7.657,7.5602,7.7171,7.8016,7.8325,7.8951,7.9556,8.0163,0.0,0.0,0.0,0.0,0.0,0.0,4.5112,4.4672,4.4158,4.3351,4.2837,4.2727,4.3167,4.324,4.3314,0.0,0.0,0.0,0.0,0.0,0.0,0.0,0.0,0.0,0.0,0.0,0.0,0.0,0.0,0.0,0.0,0.0,0.0,0.0,0.0,0.0,4.8306,4.8306,4.8306,0.0,0.0,0.0,0.0,0.0,0.0,0.0,0.0,0.0,0.0,0.0,5.3592,5.4142,5.9575,6.2622,6.4053,6.3099,6.4897,6.699,6.6072,6.6733,6.7687,6.7687,6.7687,6.6549,6.2181,6.0786,0.0,0.0,5.3555,5.3371,5.3885,0.0,5.4913,0.0,6.13,6.2732,6.7467,6.8678,6.9706,0.0,7.2129,0.0,7.4331,7.4735,0.0,7.5395,7.5432,7.5983,7.7268,7.7304,7.7304,7.7304,7.7304,7.7304,7.7304,7.7304,7.7304,7.7304,7.7304,7.7304,7.7304,7.7304,7.7304,7.7304,7.7304,0.0,0.0,7.6313,7.5873,7.3927,7.6387,7.7592,7.809,7.8255,7.8902,7.9765,0.0,0.0,0.0,0.0,0.0,0.0,4.57,4.4562,4.3314,4.2506,4.2983,4.313,4.247,4.2396,4.269,0.0,0.0,0.0,0.0,0.0,0.0,0.0,0.0,0.0,0.0,0.0,0.0,0.0,0.0,0.0,0.0,0.0,0.0,0.0,0.0,0.0,0.0,4.8306,0.0,0.0,0.0,0.0,0.0,0.0,0.0,0.0,0.0,0.0,0.0,0.0,0.0,5.3555,5.5611,5.8364,6.1117,6.2438,0.0,0.0,6.71,6.7577,6.7687,6.7687,6.7687,6.699,6.4347,0.0,0.0,5.7005,5.473,5.3885,5.6088,5.6418,0.0,0.0,0.0,6.0896,6.5044,6.5705,6.7393,7.1872,0.0,0.0,7.668,7.5726,0.0,7.6974,7.7084,7.7157,7.7304,7.7304,7.7304,7.7304,7.7304,7.7304,7.7304,7.7304,7.7304,7.7304,7.7304,7.7304,7.7304,7.7304,7.7304,7.7304,7.7304,7.5946,0.0,7.6313,7.5873,7.3927,7.6387,7.7304,7.7487,7.8072,7.8325,7.8602,0.0,0.0,0.0,0.0,0.0,0.0,4.4488,4.3901,4.3387,4.3057,4.2873,4.2653,4.2323,4.2286,4.2616,4.3424,0.0,0.0,0.0,0.0,0.0,0.0,0.0,0.0,0.0,0.0,0.0,4.8306,0.0,0.0,0.0,0.0,0.0,0.0,0.0,0.0,0.0,0.0,0.0,0.0,0.0,0.0,0.0,0.0,0.0,0.0,0.0,0.0,0.0,0.0,0.0,0.0,5.2344,5.3922,0.0,0.0,6.1374,6.3943,6.4567,6.6182,6.7687,6.7687,6.7687,6.6659,6.2768,0.0,5.9318,5.5427,5.3885,5.3518,5.4473,5.4252,0.0,0.0,0.0,0.0,6.5888,6.6733,6.8531,7.3377,7.3964,0.0,0.0,0.0,7.5175,7.5836,7.5873,7.6313,7.7268,7.7304,7.7304,7.7304,7.7304,7.7304,7.7304,7.7304,7.7304,7.7304,7.7304,7.7304,7.7304,7.7304,7.7304,7.7304,7.7304,7.5139,0.0,7.5726,7.5028,7.1908,7.5799,7.7304,7.7304,7.7629,7.796,7.8432,0.0,0.0,0.0,0.0,0.0,4.4232,4.3901,4.3461,4.313,4.313,4.2653,4.2213,4.1992,4.2359,4.28,4.313,4.3351,0.0,0.0,0.0,0.0,0.0,0.0,0.0,0.0,0.0,4.8306,4.8306,4.8306,4.8306,0.0,0.0,0.0,0.0,0.0,0.0,0.0,0.0,0.0,0.0,0.0,0.0,0.0,0.0,0.0,0.0,0.0,0.0,0.0,0.0,0.0,0.0,0.0,0.0,0.0,0.0,5.9134,6.2254,6.2989,6.5375,6.7687,6.7687,6.7136,6.5521,0.0,0.0,5.818,5.4069,5.3225,5.3225,5.3225,5.2747,5.3665,5.7703,0.0,5.9722,6.6109,6.699,6.8678,7.3303,0.0,7.4331,0.0,7.5616,7.5616,7.5616,7.5616,7.613,7.7268,7.7304,7.7304,7.7304,7.7304,7.7304,7.7304,7.7304,7.7304,7.7304,7.7304,7.7084,7.6644,7.7084,7.7047,7.6644,7.7121,7.4992,0.0,7.5616,7.4882,7.1578,7.5689,7.7304,7.7304,7.7304,7.7629,7.809,0.0,0.0,0.0,0.0,0.0,0.0,4.4562,4.3351,4.2323,4.2323,4.2323,4.1992,4.1222,4.2543,4.3167,4.2396,4.302,0.0,0.0,0.0,0.0,0.0,0.0,0.0,0.0,0.0,4.8306,4.8306,4.8306,4.8306,4.8306,4.8306,4.8306,0.0,0.0,0.0,0.0,0.0,0.0,0.0,0.0,0.0,0.0,0.0,0.0,0.0,0.0,0.0,0.0,0.0,0.0,0.0,0.0,4.8343,4.9297,0.0,5.7886,6.097,6.3429,6.5852,6.7687,6.7687,6.5888,6.3466,0.0,0.0,5.6161,5.3702,5.3225,5.3225,5.3225,5.3188,5.4509,5.8547,5.9208,6.0639,6.4751,6.5338,6.6843,0.0,0.0,7.2936,7.69,7.7304,7.7304,7.7304,7.7304,0.0,7.7304,7.7304,7.7304,7.7304,7.7304,7.7304,7.7304,7.7304,7.7304,7.7304,7.7304,7.6497,7.4992,7.6607,7.646,7.5028,7.6644,7.5946,0.0,7.6313,7.5873,7.3891,7.635,7.7304,7.7304,7.7304,7.7304,7.751,0.0,0.0,0.0,0.0,0.0,0.0,4.3828,4.3461,4.313,4.313,4.313,4.28,4.2029,4.2873,4.3167,4.2359,4.3534,0.0,0.0,0.0,0.0,0.0,0.0,0.0,0.0,0.0,4.8306,4.8306,4.8306,4.8306,4.8306,4.8306,4.8306,4.8306,4.8306,0.0,0.0,0.0,0.0,0.0,0.0,0.0,0.0,0.0,0.0,0.0,0.0,0.0,0.0,0.0,0.0,0.0,0.0,0.0,0.0,5.0178,5.3298,5.6712,5.8621,6.086,6.2695,6.2695,6.2144,6.0933,5.851,5.7373,5.6124,5.3702,5.3225,5.3225,5.3225,5.3225,5.4363,5.7813,5.84,6.0382,0.0,0.0,0.0,7.323,7.4735,7.5909,0.0,0.0,7.613,7.7231,7.6313,7.6166,7.7268,7.7304,7.7304,7.7304,7.7304,7.7304,7.7304,7.7304,7.7304,7.7304,7.7304,7.6166,7.4147,7.635,7.613,7.4184,7.6387,7.5946,0.0,7.6313,7.5873,7.3927,7.6387,7.7304,7.7304,7.7304,7.7304,7.7426,0.0,0.0,0.0,0.0,0.0,0.0,4.3497,4.3497,4.3497,4.3497,4.3497,4.3167,4.2396,4.3277,4.3497,4.2396,4.4342,0.0,0.0,0.0,0.0,0.0,0.0,0.0,4.8306,4.8306,4.8306,4.8306,4.8012,4.8012,4.8306,4.8012,4.8012,4.8306,4.8306,4.8306,0.0,0.0,0.0,0.0,0.0,0.0,4.625,0.0,0.0,0.0,0.0,0.0,0.0,0.0,0.0,0.0,0.0,0.0,0.0,0.0,5.0105,5.3078,5.528,5.8107,6.0419,6.0419,5.9722,5.8657,5.7152,0.0,5.5023,5.3518,5.3922,5.4289,5.3371,5.3959,5.5133,5.6822,0.0,0.0,0.0,0.0,0.0,7.1762,0.0,0.0,0.0,7.6423,7.624,7.7231,7.6387,7.624,7.7268,7.7304,7.7304,7.7304,7.7304,7.7304,7.7304,7.7304,7.7304,7.7304,7.7304,7.6203,7.4221,7.635,7.6166,7.4258,7.6387,7.646,0.0,7.668,7.6423,7.5212,7.6717,7.7304,7.7304,7.7304,7.7304,7.7426,0.0,0.0,0.0,0.0,0.0,0.0,0.0,4.3534,4.3534,4.3497,4.3534,4.3277,4.247,4.3718,4.4011,4.2506,4.5186,0.0,0.0,0.0,0.0,0.0,0.0,0.0,4.8306,4.8306,4.8306,4.8306,4.7572,4.7572,4.8269,4.7572,4.7609,4.8306,4.8306,4.8306,0.0,0.0,0.0,0.0,4.7058,4.6104,0.0,0.0,0.0,0.0,0.0,0.0,0.0,0.0,0.0,0.0,0.0,0.0,0.0,0.0,0.0,0.0,0.0,5.6785,5.9832,5.9869,5.8217,5.6565,5.6565,0.0,0.0,5.3445,5.5244,5.6124,5.3885,5.5427,5.6785,0.0,0.0,0.0,0.0,6.409,0.0,0.0,7.2129,0.0,7.7011,7.7268,7.7304,7.7304,7.7304,7.7304,7.7304,7.7304,7.7304,7.7304,7.7304,7.7304,7.7304,7.7304,7.7231,7.7084,7.7231,7.635,7.4625,7.6497,7.6423,0.0,7.6607,7.7304,0.0,7.7304,7.7304,7.7304,7.7304,7.7304,7.7304,7.7304,7.7304,7.7365,0.0,0.0,0.0,0.0,0.0,0.0,0.0,0.0,0.0,0.0,4.4048,4.4121,4.3314,4.3534,4.3608,0.0,0.0,0.0,0.0,0.0,0.0,0.0,0.0,0.0,4.8306,4.8306,4.8306,4.8306,4.8122,4.8122,4.8306,4.8122,4.8122,4.8306,4.8306,4.8306,0.0,0.0,0.0,0.0,4.6434,4.559,0.0,0.0,0.0,0.0,4.6617,4.7241,0.0,0.0,0.0,0.0,0.0,0.0,0.0,0.0,4.7315,4.8636,4.8783,0.0,5.4106,5.4766,5.4473,5.4069,0.0,0.0,0.0,0.0,0.0,5.6638,5.6051,5.7923,5.9281,0.0,0.0,0.0,6.4273,0.0,0.0,0.0,0.0,0.0,7.5579,7.6607,7.7304,7.7304,7.7304,7.7304,7.7304,7.7304,7.7304,7.7304,7.7304,7.7304,7.7304,7.7304,7.6387,7.4551,7.6423,7.5175,7.1358,7.5469,7.6093,7.4111,7.635,7.7304,7.7304,7.7304,7.7304,7.7304,7.7304,7.7304,7.7304,7.7304,7.7304,7.7304,0.0,0.0,0.0,0.0,0.0,0.0,0.0,0.0,0.0,0.0,4.4195,4.4378,4.3571,4.4488,4.4709,0.0,0.0,0.0,0.0,0.0,0.0,0.0,0.0,4.8306,4.8306,4.8306,4.8306,4.8306,4.7939,4.7939,4.8306,4.7939,4.7976,4.8306,4.8306,4.8306,4.8269,0.0,0.0,0.0,4.5663,0.0,0.0,0.0,0.0,0.0,4.6104,4.6801,0.0,4.8049,4.8306,4.8233,0.0,0.0,0.0,0.0,4.6801,4.7829,4.8122,5.0068,5.238,5.3922,5.3739,5.3482,5.462,0.0,0.0,0.0,0.0,5.6345,5.6748,5.818,0.0,0.0,6.0639,0.0,0.0,0.0,0.0,7.0146,7.3083,7.5065,0.0,7.6387,7.7304,7.7304,7.7304,7.7304,7.7304,7.7304,7.7304,7.7304,7.7304,7.7304,7.7304,7.7304,7.6093,7.3707,7.6166,7.5359,7.1872,7.5616,7.6607,7.5359,7.5579,7.6276,7.7231,7.613,7.6313,7.7304,7.7304,7.7304,7.7304,7.7304,7.7304,7.7304,0.0,0.0,0.0,0.0,0.0,0.0,0.0,0.0,0.0,0.0,0.0,0.0,0.0,0.0,0.0,0.0,0.0,0.0,0.0,0.0,0.0,0.0,4.8306,4.8306,4.8306,4.8306,4.8233,4.8122,4.7462,4.7388,4.7939,4.7388,4.7462,4.8122,4.8122,4.8049,4.7902,4.7205,0.0,0.0,4.4966,0.0,0.0,0.0,0.0,0.0,0.0,0.0,0.0,4.8012,4.8306,4.8159,4.7352,0.0,0.0,0.0,0.0,0.0,4.8746,5.0435,5.2454,5.5097,5.4473,5.3849,5.6271,0.0,0.0,0.0,0.0,0.0,0.0,5.8621,0.0,0.0,0.0,0.0,6.6145,6.8752,7.0293,7.0293,7.2018,0.0,7.4808,7.6387,7.7304,7.7304,7.7304,7.7304,7.7304,7.7304,7.7304,7.7304,7.7304,7.7304,7.7304,7.7304,7.6093,7.3707,7.6166,7.6056,7.378,7.6203,7.7304,7.7194,0.0,0.0,7.7157,7.5102,7.5469,7.7304,7.7304,7.7304,7.7304,7.7304,7.7304,7.7304,0.0,0.0,0.0,0.0,0.0,0.0,0.0,0.0,0.0,0.0,0.0,0.0,0.0,0.0,0.0,0.0,0.0,0.0,0.0,0.0,0.0,4.8269,4.8306,4.8306,4.8306,4.8306,4.7976,4.7278,4.7168,4.6838,4.6287,4.6838,4.7205,4.7278,4.7278,4.6911,4.625,4.614,4.5626,4.4892,4.4745,0.0,0.0,0.0,0.0,0.0,0.0,0.0,0.0,4.7792,4.8306,4.8159,4.7352,0.0,0.0,0.0,0.0,0.0,4.7241,4.9187,5.1903,5.5684,5.4913,5.3849,5.6271,0.0,0.0,0.0,0.0,0.0,0.0,6.3906,0.0,0.0,0.0,0.0,0.0,0.0,7.1138,7.1138,0.0,7.613,7.5028,7.6387,7.7304,7.7304,7.7304,7.7304,7.7304,7.7304,7.7304,7.7304,7.7304,7.7304,7.7304,7.7304,7.6093,7.3707,7.6166,7.6056,7.378,7.6203,7.7304,7.7304,0.0,7.6974,7.7304,7.69,7.6974,7.7304,7.7304,7.7304,7.7304,7.7304,7.7304,7.7304,0.0,0.0,0.0,0.0,0.0,0.0,0.0,0.0,0.0,0.0,0.0,0.0,0.0,0.0,0.0,0.0,0.0,0.0,0.0,0.0,4.7902,4.8269,4.8306,4.8306,4.8306,4.8306,4.7902,4.7131,4.7131,4.6691,4.592,4.6287,4.6691,4.7095,4.6654,4.625,4.5883,4.5443,4.5039,4.4672,0.0,0.0,0.0,0.0,0.0,0.0,0.0,0.0,0.0,0.0,4.8306,4.8086,4.6838,0.0,0.0,0.0,0.0,0.0,4.7976,4.9591,5.2087,5.7409,5.5941,5.4546,5.9575,0.0,0.0,0.0,0.0,0.0,0.0,0.0,0.0,0.0,0.0,0.0,6.9596,7.0991,7.2275,0.0,0.0,7.5726,7.4992,7.6387,7.7304,7.7304,7.7304,7.7304,7.7304,7.7304,7.7304,7.7304,7.7304,7.7304,7.7304,7.7304,7.6093,7.3707,7.6166,7.6056,7.378,7.6203,7.7304,7.7268,0.0,7.6093,7.7231,7.5909,7.613,7.7304,7.7304,7.7304,7.7304,7.7304,7.7304,7.7304,0.0,0.0,0.0,0.0,0.0,0.0,0.0,0.0,0.0,0.0,0.0,0.0,0.0,0.0,0.0,0.0,0.0,0.0,0.0,4.7865,4.8306,4.8306,4.8306,4.8306,4.8306,4.8122,4.7645,4.6838,4.6654,4.6324,4.5883,4.57,4.6067,4.6801,4.5993,4.5516,4.5296,4.4672,4.4415,4.4378,0.0,0.0,0.0,0.0,0.0,0.0,0.0,0.0,0.0,0.0,0.0,0.0,0.0,0.0,0.0,4.4672,4.5112,4.6397,4.8673,5.0031,5.2197,5.8107,0.0,5.5133,6.2438,0.0,0.0,0.0,0.0,0.0,0.0,6.1484,0.0,0.0,0.0,0.0,0.0,7.2863,7.3891,7.5322,7.5469,7.5469,7.5469,7.6607,7.7304,7.7304,7.7304,7.7304,7.7304,7.7304,7.7304,7.7304,7.7304,7.7304,7.7304,7.7304,7.6387,7.4551,7.6423,7.635,7.4625,7.646,7.7304,7.7231,7.5359,7.5616,7.7194,7.5322,7.5652,7.7304,7.7304,7.7304,7.7304,7.7304,7.7304,7.7304,0.0,0.0,0.0,0.0,0.0,0.0,0.0,0.0,0.0,0.0,0.0,0.0,0.0,0.0,0.0,0.0,0.0,0.0,0.0,4.7865,4.8306,4.8306,4.8306,4.8306,4.8306,4.7572,4.6801,4.5993,4.5259,4.5223,4.5883,4.5149,4.5223,4.5957,4.5149,4.4378,4.3644,4.3608,4.3571,4.3571,4.3497,0.0,0.0,0.0,0.0,0.0,0.0,0.0,0.0,0.0,0.0,0.0,0.0,0.0,4.4635,4.3828,4.4672,4.625,4.7939,4.9591,5.183,5.6014,5.5133,0.0,6.2438,0.0,0.0,0.0,0.0,0.0,0.0,0.0,6.5705,6.8238,7.0183,7.2165,7.4331,0.0,7.6166,7.7047,7.7157,7.7157,7.7157,7.7268,7.7304,7.7304,7.7304,7.7304,7.7304,7.7304,7.7304,7.7304,7.7304,7.7304,7.7304,7.7304,7.7231,7.7047,7.7231,7.7231,7.7084,7.7231,7.7304,7.7304,7.7157,7.7157,7.7304,7.7121,7.7157,7.7304,7.7304,7.7304,7.7304,7.7304,7.7304,7.7304,0.0,0.0,0.0,0.0,0.0,0.0,0.0,0.0,0.0,0.0,0.0,0.0,0.0,0.0,0.0,0.0,0.0,0.0,0.0,4.8122,4.8306,4.8306,4.8306,4.8086,4.7572,4.7278,4.6471,4.5149,4.4856,4.5112,4.5883,4.5076,4.5149,4.5847,4.4525,4.3791,4.3497,4.3497,4.3497,4.3534,4.4048,4.4268,0.0,0.0,0.0,0.0,0.0,0.0,0.0,0.0,4.6764,4.6177,4.5039,4.4709,4.4562,4.3718,4.5002,4.6911,4.8012,4.9884,5.2747,5.7776,0.0,0.0,0.0,0.0,0.0,0.0,0.0,0.0,0.0,0.0,6.8017,6.9412,7.1431,7.3303,7.4698,7.5579,7.6387,7.7231,7.7304,7.7304,7.7304,7.7304,7.7304,7.7304,7.7304,7.7304,7.7304,7.7304,7.7304,7.7304,7.7304,7.7304,7.7304,7.7304,7.7304,7.7304,7.7304,7.7304,7.7304,7.7304,7.7304,7.7304,7.7304,7.7304,7.7304,7.7304,7.7304,7.7304,7.7304,7.7304,7.7304,7.7304,7.7304,7.7304,0.0,0.0,0.0,0.0,0.0,0.0,0.0,0.0,0.0,0.0,0.0,0.0,0.0,0.0,0.0,0.0,0.0,0.0,4.8269,4.8306,4.8306,4.8306,4.8306,4.7939,4.7094,4.7131,4.6324,4.4709,4.4452,4.4856,4.5883,4.5076,4.5149,4.5847,4.4745,4.4268,4.4268,4.4268,4.4268,4.4305,4.4856,4.5076,0.0,0.0,0.0,0.0,0.0,0.0,0.0,0.0,4.5993,4.5369,4.4562,4.4305,4.4305,4.4268,4.5626,4.7388,4.8746,5.0508,5.3151,0.0,0.0,0.0,0.0,0.0,0.0,0.0,0.0,0.0,0.0,0.0,0.0,0.0,7.1762,7.3707,7.4771,7.5836,7.668,7.7268,7.7304,7.7304,7.7304,7.7304,7.7304,7.7304,7.7304,7.7304,7.7304,7.7304,7.7304,7.7304,7.7304,7.7304,7.7304,7.7304,7.7304,7.7304,7.7304,7.7304,7.7304,7.7304,7.7304,7.7304,7.7304,7.7304,7.7304,7.7304,7.7304,7.7304,7.7304,7.7304,7.7304,7.7304,7.7304,7.7304,0.0,0.0,0.0,0.0,0.0,0.0,0.0,0.0,4.3497,4.3497,4.4195,0.0,0.0,0.0,0.0,0.0,0.0,0.0,4.8306,4.8306,4.8306,4.8306,4.8306,4.7939,4.7094,4.7095,4.6324,4.4709,4.3901,4.4305,4.5883,4.5076,4.5149,4.5883,4.592,4.592,4.5883,4.592,4.592,4.5883,4.592,4.592,4.592,0.0,0.0,0.0,0.0,0.0,0.0,0.0,4.4709,4.4562,4.3754,4.3497,4.3828,4.5443,4.6507,4.7682,5.0178,5.1389,5.2784,0.0,0.0,0.0,0.0,0.0,0.0,0.0,0.0,0.0,0.0,0.0,0.0,6.9045,7.0954,7.3083,7.4698,7.6313,7.7304,7.7304,7.7304,7.7304,7.7304,7.7304,7.7304,7.7304,7.7304,7.7304,7.7304,7.7304,7.7304,7.7304,7.7304,7.7304,7.7304,7.7304,7.7304,7.7304,7.7304,7.7304,7.7304,7.7304,7.7304,7.7304,7.7304,7.7304,7.7304,7.7304,7.7304,7.7304,7.7304,7.7304,7.7304,7.7304,7.7304,7.7304,0.0,0.0,0.0,0.0,0.0,0.0,0.0,0.0,4.3681,4.4268,4.4562,0.0,0.0,0.0,0.0,0.0,0.0,0.0,4.8306,4.8306,4.8306,4.8306,4.8306,4.7939,4.7094,4.5993,4.5186,4.4709,4.4452,4.4599,4.5076,4.5406,4.5663,4.5993,4.7719,4.7535,4.5993,4.7755,4.7498,4.5957,4.6544,4.6764,4.6838,0.0,0.0,0.0,0.0,0.0,0.0,0.0,0.0,0.0,4.3571,4.3901,4.4892,4.7682,4.8636,4.9444,5.2491,5.3078,0.0,0.0,0.0,0.0,0.0,0.0,0.0,0.0,0.0,0.0,0.0,0.0,0.0,7.0734,7.2606,7.4551,7.5616,7.6644,7.7304,7.7304,7.7304,7.7304,7.7304,7.7304,7.7304,7.7304,7.7304,7.7304,7.7304,7.7304,7.7304,7.7304,7.7304,7.7304,7.7304,7.7304,7.7304,7.7304,7.7304,7.7304,7.7304,7.7304,7.7304,7.7304,7.7304,7.7304,7.7304,7.7304,7.7304,7.7304,7.7304,7.7304,7.7304,7.7304,7.7304,7.7304,0.0,0.0,0.0,0.0,0.0,0.0,0.0,0.0,4.4158,4.4635,4.5259,4.603,0.0,0.0,0.0,0.0,0.0,0.0,0.0,4.8306,4.8306,4.8306,4.8306,4.7939,4.7094,4.5847,4.5039,4.4709,4.4378,4.4562,4.5186,4.5663,4.6067,4.6471,4.8269,4.8233,4.6948,4.8453,4.8233,4.6911,4.7388,4.7609,4.7645,0.0,0.0,0.0,0.0,0.0,0.0,0.0,0.0,0.0,4.3975,4.5406,4.7462,4.9077,5.0435,5.2013,5.4656,5.5023,0.0,0.0,0.0,0.0,0.0,0.0,0.0,0.0,0.0,0.0,0.0,7.1431,0.0,7.2349,7.4001,7.5542,7.6019,7.679,7.7304,7.7304,7.7304,7.7304,7.7304,7.7304,7.7304,7.7304,7.7304,7.7304,7.7304,7.7304,7.7304,7.7304,7.7304,7.7304,7.7304,7.7304,7.7304,7.7304,7.7304,7.7304,7.7304,7.7304,7.7304,7.7304,7.7304,7.7304,7.7304,7.7304,7.7304,7.7304,7.7304,7.7304,7.7304,7.7304,7.7304,7.7304,0.0,0.0,4.3497,4.3497,0.0,0.0,0.0,0.0,4.4856,4.4929,4.6214,4.7131,0.0,0.0,0.0,0.0,0.0,0.0,0.0,4.8306,4.8306,4.8306,4.8306,4.7939,4.7094,4.6324,4.5553,4.4819,4.4011,4.4342,4.5773,4.5957,4.6397,4.713,4.8196,4.8526,4.8306,4.8526,4.8526,4.8306,4.8306,4.8306,4.8306,4.8306,0.0,0.0,0.0,0.0,0.0,0.0,0.0,0.0,4.4819,4.7425,5.0398,4.9958,5.2013,5.4803,5.6638,0.0,0.0,0.0,0.0,0.0,0.0,0.0,0.0,0.0,0.0,7.2349,7.2569,7.3193,7.3744,7.3891,7.5139,7.613,7.6203,7.6864,7.7304,7.7304,7.7304,7.7304,7.7304,7.7304,7.7304,7.7304,7.7304,7.7304,7.7304,7.7304,7.7304,7.7304,7.7304,7.7304,7.7304,7.7304,7.7304,7.7304,7.7304,7.7304,7.7304,7.7304,7.7304,7.7304,7.7304,7.7304,7.7304,7.7304,7.7304,7.7304,7.7304,7.7304,7.7304,7.7304,7.7304,7.7304,0.0,0.0,4.3497,4.3497,0.0,0.0,0.0,0.0,0.0,4.6507,0.0,0.0,0.0,0.0,0.0,0.0,0.0,0.0,0.0,4.8306,4.8306,4.8306,4.8306,4.7939,4.7094,4.6324,4.581,4.5626,4.4856,4.4635,4.5002,4.625,4.6948,4.7241,4.9994,5.0105,4.8416,5.0362,5.0068,4.8306,4.8306,4.8306,4.8306,4.8306,4.8196,0.0,0.0,0.0,0.0,0.0,0.0,0.0,4.5626,4.6691,4.8489,5.1536,5.3371,5.517,5.8657,5.8694,0.0,0.0,6.0199,6.2658,6.8678,6.9669,6.9889,7.1835,7.1358,7.1211,7.3083,7.356,7.4111,7.5395,7.5873,7.6313,7.6974,7.7194,7.7304,7.7304,7.7304,7.7304,7.7304,7.7304,7.7304,7.7304,7.7304,7.7304,7.7304,7.7304,7.7304,7.7304,7.7304,7.7304,7.7304,7.7304,7.7304,7.7304,7.7304,7.7304,7.7304,7.7304,7.7304,7.7304,7.7304,7.7304,7.7304,7.7304,7.7304,7.7304,7.7304,7.7304,7.7304,7.7304,7.7304,7.7304,0.0,0.0,0.0,0.0,0.0,0.0,0.0,0.0,0.0,0.0,0.0,0.0,0.0,0.0,0.0,0.0,0.0,0.0,0.0,0.0,4.8306,4.8306,4.7939,4.7352,4.6544,4.6104,4.57,4.5333,4.57,4.5847,4.5883,4.6728,4.7315,4.7755,4.9481,4.9517,4.8379,4.9664,4.9481,4.8306,4.8306,4.8306,4.8306,4.8306,4.8086,4.7645,4.6801,0.0,0.0,0.0,0.0,0.0,0.0,0.0,5.0288,5.1646,5.3445,5.55,5.7997,0.0,0.0,6.2071,0.0,6.6549,6.9963,7.0991,7.1505,7.2349,7.2129,7.2202,7.345,7.4331,7.5102,7.5946,7.6423,7.6827,7.7268,7.7304,7.7304,7.7304,7.7304,7.7304,7.7304,7.7304,7.7304,7.7304,7.7304,7.7304,7.7304,7.7304,7.7304,7.7304,7.7304,7.7304,7.7304,7.7304,7.7304,7.7304,7.7304,7.7304,7.7304,7.7304,7.7304,7.7304,7.7304,7.7304,7.7304,7.7304,7.7304,7.7304,7.7304,7.7304,7.7304,7.7304,7.7304,7.7304,0.0,0.0,0.0,0.0,0.0,0.0,0.0,0.0,0.0,0.0,0.0,0.0,0.0,0.0,0.0,0.0,0.0,0.0,0.0,0.0,0.0,4.8306,4.7535,4.6874,4.6324,4.603,4.57,4.5333,4.6544,4.7388,4.7976,4.7976,4.8306,4.893,4.893,4.871,4.8306,4.8306,4.8306,4.8306,4.8306,4.8379,4.8526,0.0,0.0,4.7719,4.7425,4.6985,4.6471,4.6214,0.0,0.0,0.0,0.0,5.2123,5.0949,5.2858,5.5574,5.6381,0.0,6.1741,6.6512,6.8495,0.0,7.033,7.1321,7.2165,7.2459,7.312,7.3744,7.3891,7.5102,7.6166,7.6276,7.69,7.7304,7.7304,7.7304,7.7304,7.7304,7.7304,7.7304,7.7304,7.7304,7.7304,7.7304,7.7304,7.7304,7.7304,7.7304,7.7304,7.7304,7.7304,7.7304,7.7304,7.7304,7.7304,7.7304,7.7304,7.7304,7.7304,7.7304,7.7304,7.7304,7.7304,7.7304,7.7304,7.7304,7.7304,7.7304,7.7304,7.7304,7.7304,7.7304,7.7304,7.7304,0.0,0.0,0.0,0.0,0.0,0.0,0.0,0.0,0.0,0.0,4.8233,4.8306,0.0,4.8306,4.8306,4.8306,4.8306,4.8306,4.8306,0.0,0.0,4.8306,4.7535,4.7388,4.7976,4.6617,4.6544,4.7829,4.7352,0.0,0.0,0.0,0.0,5.1499,5.1499,5.0325,4.8306,4.8306,4.8306,4.8306,4.8306,4.8746,4.9407,0.0,0.0,0.0,0.0,4.8563,4.8857,4.7425,4.7498,0.0,0.0,0.0,4.9077,4.9591,5.205,5.473,0.0,0.0,6.2438,0.0,6.6806,6.7063,0.0,0.0,7.0807,0.0,7.312,7.3891,7.4625,7.5506,7.635,7.7047,7.7268,7.7304,7.7304,7.7304,7.7304,7.7304,7.7304,7.7304,7.7304,7.7304,7.7304,7.7304,7.7304,7.7304,7.7304,7.7304,7.7304,7.7304,7.7304,7.7304,7.7304,7.7304,7.7304,7.7304,7.7304,7.7304,7.7304,7.7304,7.7304,7.7304,7.7304,7.7304,7.7304,7.7304,7.7304,7.7304,7.7304,7.7304,7.7304,7.7304,7.7304,7.7304,0.0,0.0,0.0,0.0,0.0,0.0,0.0,0.0,0.0,0.0,0.0,4.8306,4.8306,4.8306,4.8306,4.8306,4.8306,4.8306,4.8306,4.7902,4.7645,4.7645,4.6874,4.6581,4.6948,4.6691,4.6948,4.7645,4.7719,0.0,0.0,5.3995,5.3298,0.0,0.0,5.1867,4.8416,5.0251,5.0251,4.9077,4.9517,4.9921,0.0,0.0,0.0,0.0,0.0,0.0,0.0,0.0,0.0,4.8306,4.8306,0.0,0.0,0.0,5.0912,5.3261,5.7226,5.8584,6.0529,0.0,6.6806,6.5999,7.1321,7.1248,7.055,7.2165,7.3487,7.4478,7.4845,7.5946,7.69,7.7268,7.7304,7.7304,7.7304,7.7304,7.7304,7.7304,7.7304,7.7304,7.7304,7.7304,7.7304,7.7304,7.7304,7.7304,7.7304,7.7304,7.7304,7.7304,7.7304,7.7304,7.7304,7.7304,7.7304,7.7304,7.7304,7.7304,7.7304,7.7304,7.7304,7.7304,7.7304,7.7304,7.7304,7.7304,7.7304,7.7304,7.7304,7.7304,7.7304,7.7304,7.7304,7.7304,0.0,0.0,0.0,0.0,0.0,0.0,0.0,0.0,0.0,0.0,0.0,4.8306,4.8306,0.0,0.0,0.0,4.8306,4.8233,4.8012,4.7645,4.7315,4.7131,4.6544,4.6287,4.6507,4.6911,4.7205,4.7425,0.0,0.0,5.4693,5.5317,5.473,0.0,5.5097,0.0,0.0,0.0,0.0,0.0,0.0,0.0,0.0,0.0,0.0,0.0,0.0,0.0,0.0,0.0,0.0,0.0,0.0,0.0,0.0,0.0,0.0,0.0,0.0,0.0,5.8657,6.6329,6.5852,6.4787,0.0,0.0,6.9926,0.0,7.3523,7.4918,7.4918,7.624,7.7304,7.7304,7.7304,7.7304,7.7304,7.7304,7.7304,7.7304,7.7304,7.7304,7.7304,7.7304,7.7304,7.7304,7.7304,7.7304,7.7304,7.7304,7.7304,7.7304,7.7304,7.7304,7.7304,7.7304,7.7304,7.7304,7.7304,7.7304,7.7304,7.7304,7.7304,7.7304,7.7304,7.7304,7.7304,7.7304,7.7304,7.7304,7.7304,7.7304,7.7304,7.7304,7.7304,7.7304,0.0,0.0,0.0,0.0,0.0,0.0,0.0,0.0,0.0,0.0,0.0,4.8306,4.8306,4.8306,4.8306,4.8306,4.8306,4.7976,4.7241,4.7865,4.7902,4.7131,4.7095,0.0,4.8159,4.7498,4.7498,0.0,0.0,0.0,5.2234,5.4509,5.5941,5.6565,5.6675,5.6602,5.6271,0.0,0.0,0.0,0.0,0.0,0.0,0.0,0.0,0.0,0.0,0.0,0.0,0.0,0.0,0.0,0.0,0.0,0.0,0.0,0.0,0.0,0.0,5.6895,0.0,6.2108,6.2438,6.2622,0.0,0.0,6.8274,6.9889,7.2716,7.4918,7.4918,7.624,7.7304,7.7304,7.7304,7.7304,7.7304,7.7304,7.7304,7.7304,7.7304,7.7304,7.7304,7.7304,7.7304,7.7304,7.7304,7.7304,7.7304,7.7304,7.7304,7.7304,7.7304,7.7304,7.7304,7.7304,7.7304,7.7304,7.7304,7.7304,7.7304,7.7304,7.7304,7.7304,7.7304,7.7304,7.7304,7.7304,7.7304,7.7304,7.7304,7.7304,7.7304,7.7304,7.7304,7.7304,0.0,0.0,0.0,0.0,0.0,0.0,0.0,0.0,0.0,0.0,0.0,0.0,0.0,4.8306,4.8306,4.8306,4.8306,4.8416,4.8673,4.7976,4.7425,4.7131,4.7131,4.7241,4.7535,4.7755,4.8012,0.0,0.0,4.9848,5.2784,5.3665,5.5317,5.7666,6.0309,5.9171,5.5464,5.851,0.0,0.0,0.0,0.0,0.0,0.0,0.0,0.0,0.0,0.0,0.0,0.0,0.0,0.0,0.0,0.0,0.0,0.0,0.0,0.0,0.0,0.0,0.0,6.141,6.0639,5.9905,6.5264,6.6733,6.7247,6.8311,7.1945,7.4588,7.356,7.5542,7.7304,7.7304,7.7304,7.7304,7.7304,7.7304,7.7304,7.7304,7.7304,7.7304,7.7304,7.7304,7.7304,7.7304,7.635,7.624,7.7268,7.635,7.624,7.7304,7.7304,7.7304,7.7304,7.7304,7.7304,7.7304,7.7304,7.7304,7.7304,7.7304,7.7304,7.7304,7.7304,7.7304,7.7304,7.7304,7.7304,7.7304,7.7304,7.7304,7.7304,7.7304,7.7304,7.7304,0.0,0.0,0.0,0.0,0.0,4.8306,4.8306,4.8306,4.8306,0.0,0.0,0.0,0.0,0.0,4.8746,4.8746,4.8489,4.8416,4.8746,4.7976,4.7388,4.7131,4.7388,4.7498,4.7498,4.7498,4.7755,0.0,0.0,0.0,0.0,5.3115,5.4876,5.7336,6.086,6.0529,0.0,0.0,0.0,5.6308,0.0,0.0,5.5721,0.0,0.0,0.0,0.0,0.0,0.0,0.0,0.0,0.0,0.0,0.0,0.0,0.0,0.0,0.0,5.5023,0.0,0.0,0.0,5.8584,5.8143,6.3282,6.5521,6.6733,6.7504,7.1321,7.4258,7.345,7.5285,7.7011,7.7268,7.7304,7.7304,7.7304,7.7304,7.7304,7.7304,7.7304,7.7304,7.7304,7.7304,7.7304,7.7304,7.6313,0.0,7.7268,7.6313,7.6203,7.7304,7.7304,7.7304,7.7304,7.7304,7.7304,7.7304,7.7304,7.7304,7.7304,7.7304,7.7304,7.7304,7.7304,7.7304,7.7304,7.7304,7.7304,7.7304,7.7304,7.7304,7.7304,7.7304,7.7304,7.7304,0.0,0.0,4.8233,4.8233,4.8233,4.8233,4.8233,4.8233,4.8233,4.8269,0.0,0.0,0.0,0.0,0.0,4.9591,4.8783,4.7976,4.7241,4.7902,4.7976,4.7205,4.7902,4.8306,4.8306,4.6764,4.6764,0.0,0.0,0.0,0.0,0.0,5.4766,5.5611,5.807,6.0456,6.2695,0.0,6.398,6.3576,0.0,6.0456,5.9979,0.0,0.0,0.0,5.9538,5.84,0.0,0.0,0.0,0.0,0.0,0.0,0.0,0.0,0.0,0.0,0.0,0.0,0.0,0.0,5.6161,5.7409,5.9795,6.3466,6.6623,6.743,7.0807,7.3854,7.4661,7.5506,7.635,7.7157,7.7304,7.7304,7.7304,7.7304,7.7304,7.7304,7.7304,7.7304,7.7304,7.7304,7.7304,7.7304,7.7268,7.7268,7.7304,7.7304,7.7304,7.7304,7.7304,7.7304,7.7304,7.7304,7.7304,7.7304,7.7304,7.7304,7.7304,7.7304,7.7304,7.7304,7.7304,7.7304,7.7304,7.7304,7.7304,7.7304,7.7304,7.7304,7.7304,7.7304,7.7304,7.7268,0.0,4.6544,4.6544,4.6544,4.6544,4.6544,4.6544,4.6544,4.6764,0.0,0.0,0.0,0.0,0.0,4.8893,4.9517,4.8783,4.8489,4.8857,4.8526,4.8196,4.7976,4.8196,4.8306,4.8306,4.7865,4.8159,0.0,0.0,0.0,0.0,0.0,0.0,0.0,5.6381,5.785,5.8731,6.2511,0.0,0.0,6.3135,6.1814,0.0,0.0,0.0,0.0,0.0,6.0199,0.0,0.0,5.8327,5.5831,0.0,0.0,0.0,0.0,0.0,0.0,5.3225,0.0,0.0,0.0,0.0,0.0,5.8253,6.1337,6.409,6.4897,6.8752,7.2055,7.2275,7.3927,7.5506,7.6313,7.6937,7.7304,7.7304,7.7304,7.7304,7.7304,7.7304,7.7304,7.7304,7.7304,7.7304,0.0,7.624,7.6093,7.7268,7.7304,7.7304,7.7304,7.7304,7.7304,7.7304,7.7304,7.7304,7.7304,7.7304,7.7304,7.7304,7.7304,7.7304,7.7304,7.7304,7.7304,7.7304,7.7304,7.7304,7.7304,7.7304,7.7304,7.7304,7.7304,7.6937,7.6423,4.5883,4.5883,4.5883,4.5883,4.6177,4.6397,4.6397,4.6691,4.7058,0.0,0.0,0.0,0.0,0.0,0.0,4.9554,4.8783,4.8526,4.9003,4.86,4.8306,4.8306,4.8636,4.882,4.882,4.8489,4.8893,0.0,0.0,0.0,0.0,0.0,0.0,0.0,5.4693,5.5317,0.0,0.0,0.0,0.0,6.2768,0.0,0.0,6.3025,6.2915,0.0,0.0,0.0,6.2732,6.3246,6.1153,0.0,0.0,0.0,0.0,0.0,0.0,0.0,0.0,0.0,0.0,0.0,0.0,0.0,5.807,6.1263,6.409,6.4934,6.8678,7.1615,7.0917,7.2239,7.356,7.4037,7.4771,7.5799,7.7121,7.7304,7.7304,7.7304,7.7304,7.7304,7.7304,7.7304,7.7304,7.7304,7.646,7.6313,7.7268,7.7304,7.7304,7.7304,7.7304,7.7304,7.7304,7.7304,7.7304,7.7304,7.7304,7.7304,7.7304,7.7304,7.7304,7.7304,7.7304,7.7304,7.7304,7.7304,7.7304,7.7304,7.7304,7.7121,7.6827,7.6827,7.6313,7.5616,0.0,4.5773,4.5773,4.5883,4.6507,4.6985,4.6985,4.7572,4.8086,0.0,0.0,0.0,0.0,0.0,0.0,0.0,4.882,4.8453,4.8453,4.8526,4.86,4.86,4.9297,4.9701,4.9701,4.8967,4.937,0.0,0.0,0.0,0.0,0.0,0.0,0.0,5.3225,5.3225,5.3335,0.0,0.0,6.3246,6.152,6.3319,0.0,0.0,6.4273,0.0,6.6806,6.6182,6.453,6.6586,6.442,0.0,0.0,0.0,0.0,0.0,5.4876,0.0,0.0,0.0,0.0,0.0,0.0,0.0,5.8437,6.1887,6.4897,6.5778,6.8862,7.1027,6.9816,7.0146,7.066,7.077,7.1394,7.301,7.6313,7.6937,7.7011,7.6937,7.7084,7.7231,7.7304,7.7304,7.7304,7.7304,7.7304,7.7304,7.7304,7.7304,7.7304,7.7304,7.7304,7.7304,7.7304,7.7304,7.7304,7.7304,7.7304,7.7304,7.7304,7.7304,7.7304,7.7304,7.7304,7.7304,7.7304,7.7304,7.7304,7.7304,7.7231,7.6754,7.6093,7.6019,7.5469,7.4771,4.4819,4.4929,4.5149,4.5773,4.603,4.614,4.614,4.6287,4.6617,4.7278,4.7902,0.0,0.0,0.0,0.0,0.0,4.904,4.9334,4.9334,4.9958,5.0325,5.0325,5.0472,5.0582,5.0582,5.0398,5.0802,0.0,0.0,0.0,0.0,0.0,0.0,0.0,5.3225,5.3225,0.0,0.0,0.0,5.9428,6.2254,0.0,6.3099,6.5925,6.5375,6.3466,6.6586,6.6549,6.5044,0.0,6.4163,6.2695,0.0,0.0,0.0,0.0,0.0,0.0,0.0,0.0,0.0,0.0,0.0,0.0,5.7005,5.8914,6.0823,6.2254,6.3686,6.5007,6.6072,6.6366,6.6696,6.732,6.7577,6.9009,7.2899,7.4551,7.5139,7.4478,7.5542,7.6607,7.7268,7.7304,7.7304,7.7304,7.7304,7.7304,7.7304,7.7304,7.7304,7.7304,7.7304,7.7304,7.7304,7.7304,7.7304,7.7304,7.7304,7.7304,7.7304,7.7304,7.7304,7.7304,7.7304,7.7304,7.7304,7.7304,7.7304,7.7268,7.6607,7.624,7.6019,7.5395,7.4625,7.3927,4.5223,4.5296,4.5443,4.5847,4.625,4.6507,4.6507,4.6838,4.7241,4.7645,4.8049,0.0,0.0,0.0,0.0,0.0,0.0,0.0,0.0,5.0582,5.0802,5.0802,5.1169,5.1389,5.1389,5.1793,5.2197,0.0,0.0,0.0,0.0,0.0,0.0,0.0,0.0,0.0,0.0,0.0,5.506,5.8253,6.1117,0.0,6.3759,6.6586,6.6916,6.6072,6.7724,6.8054,6.7504,6.6292,6.5632,0.0,0.0,5.9355,5.7079,0.0,5.4142,5.3298,0.0,0.0,0.0,5.5317,0.0,0.0,0.0,5.8951,6.0639,6.141,6.2915,6.3943,6.3539,6.3796,6.4053,6.4053,6.4383,6.5375,6.7393,7.0807,7.3413,7.4221,7.5028,7.5652,7.6093,7.613,7.6276,7.668,7.6717,7.69,7.7304,7.7304,7.7304,7.7304,7.7304,7.7304,7.7304,7.7304,7.7304,7.7304,7.7304,7.7304,7.7304,7.7304,7.7304,7.7304,7.7304,7.7084,7.6717,7.6717,7.6497,7.613,7.6093,7.5616,7.4845,7.4441,7.378,7.3083,4.6177,4.614,4.6177,4.6324,4.6911,4.7352,4.7352,4.7902,4.8379,4.8526,0.0,0.0,0.0,0.0,0.0,0.0,0.0,0.0,0.0,0.0,5.1553,5.1279,5.1867,5.2234,5.2234,5.2858,5.3225,5.3225,0.0,0.0,0.0,0.0,0.0,0.0,0.0,0.0,0.0,0.0,0.0,5.8841,0.0,6.2622,6.5044,6.7136,6.8128,6.8495,6.8972,6.9559,6.9853,6.8238,0.0,6.6329,6.5375,6.1924,0.0,0.0,0.0,0.0,0.0,0.0,0.0,0.0,0.0,5.7005,0.0,0.0,0.0,6.0896,6.2511,6.3282,6.1263,6.1447,6.163,6.0823,6.1337,6.1998,6.2291,6.6439,7.0293,7.2569,7.3083,7.334,7.3523,7.3927,7.4698,7.5799,7.5873,7.624,7.7047,7.7084,7.7157,7.7304,7.7304,7.7304,7.7304,7.7304,7.7304,7.7304,7.7304,7.7304,7.7304,7.7304,7.7304,7.7304,7.7157,7.6717,7.6093,7.5946,7.5395,7.4735,7.5395,7.4845,7.367,7.3523,7.3046,7.2496,4.7131,4.6985,4.7205,4.7902,4.8122,4.8159,4.8159,4.8233,0.0,0.0,0.0,0.0,0.0,0.0,0.0,0.0,0.0,0.0,5.1921,0.0,0.0,5.2999,5.3004,5.3078,5.3078,5.3151,5.3225,5.3225,0.0,0.0,0.0,0.0,0.0,0.0,5.3225,0.0,0.0,0.0,5.8253,0.0,6.2989,6.3429,0.0,6.732,6.7944,6.7063,6.9192,7.0,6.9853,0.0,6.7173,6.6219,0.0,6.1851,0.0,0.0,0.0,0.0,0.0,0.0,0.0,0.0,5.6822,0.0,0.0,0.0,5.84,5.84,0.0,5.8731,0.0,0.0,0.0,5.7483,5.8033,5.9024,6.0493,6.1851,6.3356,6.5118,6.6586,6.7724,6.8421,7.044,7.2642,7.4882,7.5065,7.5395,7.6203,7.624,7.657,7.7304,7.7304,7.7304,7.7304,7.7304,7.7304,7.7304,7.7304,7.7304,7.7304,7.7304,7.7304,7.7268,7.657,7.6166,7.6056,7.5322,7.4551,7.3854,7.3927,7.3854,7.3597,7.2899,7.2569,7.2496,4.7865,4.7792,4.7902,4.8233,4.8306,4.8489,4.8967,4.9444,0.0,0.0,0.0,0.0,0.0,0.0,0.0,0.0,0.0,0.0,0.0,0.0,0.0,0.0,0.0,0.0,5.3225,5.3225,5.3225,5.3225,5.3225,0.0,0.0,0.0,0.0,0.0,5.3702,0.0,5.6822,0.0,0.0,0.0,0.0,0.0,0.0,6.754,6.9082,6.9376,6.9889,7.0697,7.1101,0.0,6.8715,0.0,0.0,0.0,0.0,0.0,0.0,0.0,0.0,0.0,0.0,0.0,0.0,0.0,0.0,0.0,5.7997,0.0,0.0,0.0,0.0,0.0,0.0,0.0,5.7776,5.8253,5.8914,5.9281,6.0823,6.4383,6.5411,0.0,6.8238,6.8054,6.9009,7.1908,7.2129,7.2459,7.3266,7.4661,7.5763,7.6607,7.6607,7.6827,7.7304,7.7304,7.7304,7.7304,7.7304,7.7304,7.7304,7.7304,7.7047,7.6607,7.624,7.5579,7.4661,7.4331,7.3744,7.301,7.301,7.301,7.2973,7.2606,7.2496,7.2496,4.8673,0.0,0.0,0.0,4.8857,4.9187,4.9811,5.1169,0.0,0.0,0.0,0.0,5.6895,5.6061,0.0,0.0,0.0,5.8769,0.0,0.0,5.6206,0.0,0.0,0.0,0.0,0.0,5.3225,5.3225,5.3225,0.0,0.0,0.0,0.0,0.0,0.0,5.5207,5.7189,0.0,0.0,6.3025,6.4053,6.5118,6.6292,6.8201,7.0036,7.1578,7.0954,7.1505,7.2092,6.9265,6.9743,0.0,6.765,0.0,0.0,0.0,0.0,0.0,6.1263,0.0,0.0,0.0,0.0,0.0,0.0,0.0,0.0,0.0,0.0,0.0,0.0,0.0,0.0,0.0,0.0,5.785,5.7409,5.7519,5.8988,6.2548,6.3576,0.0,0.0,6.5668,6.6182,6.8311,6.9265,7.011,7.0954,7.3266,7.4955,7.5763,7.5763,7.6166,7.6974,7.6974,7.7084,7.7304,7.7304,7.7194,7.6974,7.6974,7.6533,7.5763,7.5542,7.4771,7.367,7.345,7.3046,7.2496,7.2496,7.2496,7.2496,7.2496,7.2496,7.2496,4.9554,4.9554,0.0,0.0,0.0,0.0,5.0765,0.0,0.0,0.0,0.0,0.0,0.0,0.0,0.0,0.0,0.0,5.7871,5.7838,0.0,5.6976,0.0,0.0,0.0,0.0,0.0,0.0,5.3225,0.0,0.0,0.0,0.0,0.0,0.0,0.0,5.5023,5.807,5.9648,6.2658,6.6476,6.8091,6.9669,7.0917,0.0,7.0403,7.2459,7.2422,0.0,0.0,7.0587,6.9559,0.0,0.0,0.0,0.0,0.0,0.0,0.0,0.0,0.0,0.0,6.2181,0.0,0.0,0.0,0.0,5.7997,0.0,0.0,0.0,0.0,0.0,0.0,0.0,0.0,0.0,0.0,5.6345,5.6895,5.7042,5.9134,0.0,0.0,6.3025,6.5007,0.0,6.7173,6.9302,7.011,7.2422,7.4111,7.4918,7.4955,7.5322,7.613,7.613,7.6533,7.7304,7.7304,7.69,7.613,7.613,7.5689,7.4918,7.4111,7.3744,7.3634,7.2863,7.2532,7.2496,7.2496,7.2496,7.2496,7.2496,7.2496,7.2496,5.0692,0.0,0.0,0.0,0.0,0.0,0.0,5.2968,0.0,0.0,0.0,0.0,0.0,0.0,5.9628,0.0,0.0,6.1286,6.0289,5.9425,0.0,0.0,0.0,5.6341,0.0,0.0,0.0,0.0,0.0,0.0,0.0,0.0,0.0,0.0,0.0,5.55,0.0,0.0,0.0,0.0,0.0,6.9559,7.055,0.0,0.0,7.2496,7.2496,7.2496,0.0,7.0624,7.0624,7.1138,7.033,6.9339,6.8862,7.0734,6.8825,0.0,0.0,0.0,6.7504,6.6659,0.0,0.0,0.0,0.0,0.0,0.0,0.0,0.0,0.0,0.0,0.0,0.0,0.0,0.0,0.0,0.0,5.4436,5.4436,5.6088,0.0,0.0,0.0,0.0,0.0,6.3429,0.0,6.4457,6.8311,7.0881,7.1688,7.3266,7.4478,7.5322,7.5322,7.5432,7.5726,7.5726,7.5579,7.5322,7.5322,7.4882,7.4074,7.3817,7.3377,7.2899,7.2606,7.2496,7.2496,7.2496,7.2496,7.2496,7.2496,7.2496,7.2496,5.1683,0.0,0.0,0.0,0.0,0.0,0.0,0.0,0.0,0.0,5.7334,0.0,6.1467,0.0,6.0447,0.0,6.1599,6.1693,6.1796,5.9526,0.0,6.1606,5.9046,0.0,0.0,0.0,0.0,0.0,0.0,5.3665,0.0,0.0,0.0,0.0,0.0,5.5317,5.7776,0.0,6.398,0.0,0.0,6.9963,0.0,0.0,7.2018,7.2496,0.0,7.2496,7.2349,7.1284,7.1651,7.2312,7.1284,7.0954,7.1174,7.2202,7.066,6.8862,6.9889,7.0183,0.0,6.9119,6.7724,0.0,6.5521,0.0,0.0,0.0,0.0,0.0,0.0,0.0,0.0,0.0,0.0,0.0,0.0,5.3775,0.0,5.2784,5.4693,0.0,0.0,0.0,0.0,0.0,0.0,0.0,0.0,6.6256,6.9155,6.9669,7.2018,7.367,7.4478,7.4478,7.4625,7.4918,7.4918,7.4771,7.4478,7.4478,7.4037,7.3266,7.3266,7.2973,7.2496,7.2496,7.2496,7.2496,7.2496,7.2496,7.2496,7.2496,7.2496,7.2496,5.2527,0.0,0.0,0.0,5.2784,0.0,0.0,0.0,5.8339,0.0,6.0582,6.0061,6.2258,5.9826,5.8875,6.1014,5.9306,0.0,6.2042,5.7645,0.0,0.0,5.7604,5.6556,6.0013,0.0,0.0,0.0,0.0,0.0,0.0,0.0,0.0,0.0,5.3261,0.0,5.7042,6.0309,6.3649,6.688,6.9082,7.0954,7.2202,7.066,7.1101,7.2496,7.2496,7.2496,7.2496,7.2496,7.2496,7.2496,7.2496,7.2496,7.2496,7.2496,7.2496,7.2496,7.2496,7.2496,7.1945,6.9669,0.0,0.0,0.0,0.0,6.5301,0.0,0.0,0.0,0.0,0.0,0.0,0.0,0.0,0.0,0.0,0.0,0.0,0.0,5.462,0.0,0.0,0.0,0.0,0.0,0.0,0.0,0.0,6.5999,6.8641,6.8898,7.1027,7.2642,7.3634,7.3523,7.3927,7.4808,7.4808,7.4368,7.3634,7.3634,7.323,7.2496,7.2496,7.2496,7.2496,7.2496,7.2496,7.2496,7.2496,7.2496,7.2496,7.2496,7.2496,7.2496,5.3371,5.3078,5.3151,0.0,5.4546,5.5871,0.0,0.0,0.0,0.0,5.9547,6.0082,6.069,6.1006,6.0755,5.9667,6.0129,0.0,0.0,0.0,0.0,6.2313,6.1689,6.0982,6.0117,5.9925,0.0,5.9114,0.0,0.0,5.6748,0.0,0.0,0.0,0.0,0.0,5.7079,6.1557,6.5668,6.9119,6.8531,6.9265,0.0,0.0,7.1101,7.2496,7.2496,7.2496,7.2496,7.2496,7.2496,7.2496,7.2496,7.2496,7.2496,7.2496,7.2496,7.2496,7.2496,7.2496,7.2349,7.1725,7.022,6.8752,0.0,0.0,0.0,0.0,0.0,0.0,0.0,0.0,0.0,0.0,0.0,0.0,0.0,0.0,0.0,5.0288,0.0,0.0,0.0,0.0,0.0,0.0,0.0,0.0,6.1484,0.0,6.5154,6.8788,6.776,6.8972,7.2789,7.1027,7.1138,7.312,7.312,7.301,7.2826,7.2826,7.2716,7.2496,7.2496,7.2496,7.2496,7.2496,7.2496,7.2496,7.2496,7.2496,7.2496,7.2496,7.2496,7.2496,5.3665,5.3225,0.0,5.3225,0.0,0.0,5.7133,0.0,0.0,6.0288,6.0524,0.0,6.1545,6.2651,6.2854,6.1569,6.1028,0.0,0.0,0.0,0.0,6.326,6.2889,6.2027,6.0613,6.0773,0.0,6.0675,0.0,0.0,5.829,0.0,0.0,0.0,0.0,5.55,5.7666,6.2915,6.7063,7.0,6.9119,6.9502,0.0,7.0621,7.1348,7.2498,7.3296,7.334,7.3083,7.345,7.356,7.356,7.356,7.356,7.356,7.356,7.356,7.356,7.356,7.356,7.356,7.356,7.2275,7.0991,7.0991,6.9669,6.8458,0.0,0.0,0.0,0.0,0.0,0.0,0.0,0.0,0.0,0.0,0.0,0.0,0.0,5.1169,0.0,0.0,5.2601,0.0,0.0,0.0,0.0,0.0,0.0,6.3613,6.5632,6.6476,6.7687,6.9339,6.8017,6.8531,7.0917,7.0917,7.1468,7.2496,7.2496,7.2496,7.2496,7.2496,7.2496,7.2496,7.2496,7.2496,7.2496,7.2496,7.2496,7.2496,7.2496,7.2496,7.2496,5.3536,0.0,0.0,0.0,0.0,0.0,0.0,5.955,0.0,6.3093,0.0,6.2042,6.3226,6.4106,6.4546,6.4478,0.0,6.167,6.4275,6.0791,6.0419,6.4444,6.2753,6.1738,6.1738,6.1023,0.0,0.0,0.0,0.0,0.0,0.0,0.0,0.0,0.0,0.0,0.0,6.4237,6.7743,6.9905,6.9905,7.0301,7.0943,7.1318,7.1927,7.2834,7.4495,7.4551,7.3964,7.4661,7.4918,7.4918,7.4918,7.4918,7.4918,7.4918,7.4918,7.4918,7.4918,7.4918,7.4918,7.4918,7.4368,7.3854,7.3854,7.323,7.2679,7.2679,7.2569,7.1872,0.0,0.0,0.0,0.0,0.0,0.0,0.0,0.0,0.0,0.0,0.0,0.0,4.7535,5.1242,0.0,0.0,0.0,0.0,0.0,0.0,6.2695,6.2108,6.5888,6.7247,6.5815,6.5485,6.6659,6.9376,6.9045,7.0183,7.2496,7.2496,7.2496,7.2496,7.2496,7.2496,7.2496,7.2496,7.2496,7.2496,7.2496,7.2496,7.2496,7.2496,7.2496,7.2496,0.0,0.0,0.0,0.0,0.0,5.7152,5.9578,6.1606,6.2606,6.1817,6.2493,6.299,6.2618,6.3802,6.4377,6.3768,6.3226,0.0,0.0,0.0,0.0,6.4546,6.4241,6.4038,6.4038,6.3894,6.3999,0.0,0.0,0.0,0.0,0.0,0.0,0.0,0.0,0.0,6.409,6.5081,0.0,6.8971,6.8971,6.9415,7.0265,7.1648,7.3078,7.4592,7.5519,7.5359,7.4735,7.4845,7.4918,7.4918,7.4918,7.4918,7.4918,7.4918,7.4918,7.4918,7.4918,7.4918,7.4918,7.4918,7.4808,7.4698,7.4698,7.4074,7.3487,7.3487,7.2973,7.2386,7.1945,0.0,0.0,0.0,0.0,0.0,0.0,0.0,0.0,0.0,0.0,5.2344,0.0,0.0,0.0,0.0,0.0,5.5133,5.8621,0.0,5.9391,0.0,6.3503,6.4604,0.0,0.0,6.7504,7.1835,6.9853,7.0183,7.2496,7.2496,7.2496,7.2496,7.2496,7.2496,7.2496,7.2496,7.2496,7.2496,7.2496,7.2496,7.2496,7.2496,7.2496,7.2496,0.0,0.0,0.0,0.0,0.0,0.0,0.0,6.2135,0.0,6.2629,6.3734,6.4512,6.414,6.5087,6.5595,6.5256,6.4512,6.441,6.5189,6.4512,6.458,6.5696,6.5358,0.0,6.4072,6.441,6.4449,6.4239,0.0,0.0,0.0,0.0,0.0,5.6308,0.0,6.0586,0.0,0.0,0.0,6.8118,6.9332,6.9738,6.9849,7.1943,7.294,7.3439,7.4716,7.4925,7.4771,7.5786,7.6166,7.6166,7.6166,7.6166,7.6166,7.6166,7.6166,7.6166,7.6166,7.6166,7.6166,7.6166,7.5836,7.5542,7.5542,7.4918,7.4184,7.378,7.3377,7.2606,7.0954,6.8421,0.0,0.0,0.0,0.0,0.0,0.0,0.0,0.0,0.0,0.0,0.0,0.0,0.0,0.0,0.0,5.3518,5.7152,0.0,5.8841,0.0,0.0,0.0,6.7026,0.0,6.71,7.0624,6.9449,7.0183,7.2496,7.2496,7.2496,7.2496,7.2496,7.2496,7.2496,7.2496,7.2496,7.2496,7.2496,7.2496,7.2496,7.2496,7.2496,7.2496,0.0,5.4469,0.0,0.0,5.672,0.0,6.0078,6.2532,6.4275,6.4005,6.4986,6.5764,6.5899,6.644,6.6677,6.6373,6.5561,6.529,6.5831,6.5358,6.5459,6.6305,6.6068,6.5392,6.4241,6.4783,6.4778,0.0,0.0,0.0,0.0,0.0,0.0,0.0,0.0,0.0,0.0,0.0,6.6776,6.7694,6.9666,7.0167,6.9896,7.1967,7.2598,7.245,7.3793,7.431,7.4535,7.613,7.6793,7.7019,7.7243,7.7304,7.7304,7.7304,7.7304,7.7304,7.7304,7.7304,7.7304,7.7304,7.6827,7.635,7.635,7.5726,7.4918,7.4111,7.367,7.2679,7.0146,6.9265,0.0,0.0,0.0,0.0,0.0,0.0,0.0,0.0,0.0,0.0,5.2747,0.0,0.0,0.0,4.9921,5.1903,5.5647,5.6565,5.8327,0.0,0.0,6.453,6.5044,0.0,6.6769,6.9669,6.9155,7.0183,7.2496,7.2496,7.2496,7.2496,7.2496,7.2496,7.2496,7.2496,7.2496,7.2496,7.2496,7.2496,7.2496,7.2496,7.2496,7.2496,0.0,0.0,0.0,0.0,0.0,0.0,6.3509,6.3848,6.4072,6.5324,6.5595,6.5933,6.6643,6.6779,6.6271,6.4918,6.5899,6.5527,6.2956,6.5189,6.6068,6.485,6.6034,6.6643,6.6508,6.6576,6.6287,0.0,0.0,0.0,0.0,0.0,0.0,0.0,0.0,0.0,0.0,6.6772,6.755,6.8239,6.9176,6.9896,7.0625,7.1538,7.2792,7.4087,7.4234,7.431,7.431,7.4535,7.5227,7.6094,7.7019,7.7304,7.7304,7.7304,7.7304,7.7304,7.7304,7.7304,7.7304,7.7304,7.7268,7.7194,7.7194,7.657,7.5763,7.4955,7.3634,7.2532,7.2239,7.0367,6.8128,0.0,0.0,0.0,0.0,0.0,0.0,0.0,0.0,0.0,0.0,5.0398,0.0,0.0,4.8489,5.0912,5.6418,5.4766,5.5757,6.0382,6.075,6.1924,6.42,6.4934,6.7614,7.2129,6.9963,7.0183,7.2496,7.2496,7.2496,7.2496,7.2496,7.2496,7.2496,7.2496,7.2496,7.2496,7.2496,7.2496,7.2496,7.2496,7.2496,7.2496,0.0,0.0,0.0,0.0,0.0,0.0,0.0,6.4816,6.5865,6.688,6.6643,6.6474,6.6779,6.6812,6.6576,6.5967,6.6474,6.6305,6.5121,6.617,6.6542,6.5967,6.6508,6.6812,6.6812,6.6812,6.6677,0.0,0.0,0.0,0.0,0.0,0.0,0.0,0.0,6.5163,6.5924,6.6685,6.7353,6.809,6.891,6.9696,7.0414,7.1165,7.1868,7.2533,7.2533,7.2533,7.2582,7.3206,7.4082,7.5084,7.6094,7.6396,7.6498,7.7082,7.7304,7.7304,7.7304,7.7304,7.7304,7.7304,7.7304,7.7304,7.7304,7.7084,7.6607,7.5799,7.4331,7.3083,7.2606,7.1725,7.0257,0.0,0.0,0.0,0.0,0.0,0.0,0.0,0.0,0.0,0.0,0.0,0.0,0.0,0.0,4.871,5.2968,5.4106,5.6859,6.1704,0.0,6.5228,6.9082,6.8017,6.9155,7.2496,7.1541,7.1578,7.2496,7.2496,7.2496,7.2496,7.2496,7.2496,7.2496,7.2496,7.2496,7.2496,7.2496,7.2496,7.2496,7.2496,7.2496,7.2496,6.2222,0.0,6.1571,0.0,6.2922,6.4343,6.3903,6.5696,6.7151,6.7218,6.7387,6.7489,6.7489,6.7489,6.732,6.6846,6.7218,6.7117,6.6203,6.6981,6.7184,6.6508,6.6914,0.0,6.6812,6.6812,6.6812,6.6812,6.4708,0.0,0.0,0.0,0.0,0.0,6.5036,6.5842,6.6186,6.6792,6.7421,6.7996,6.9011,6.9722,7.0263,7.1041,7.1312,7.1312,7.1312,7.1312,7.1367,7.2142,7.2797,7.3729,7.5299,7.5787,7.6027,7.7019,7.7304,7.7304,7.7304,7.7304,7.7304,7.7304,7.7304,7.7304,7.7304,7.7304,7.7011,7.5983,7.4661,7.345,7.2642,7.2496,7.1725,6.9302,0.0,0.0,0.0,0.0,0.0,0.0,6.3943,6.2438,6.3282,5.7629,0.0,0.0,0.0,4.8893,5.172,5.3775,5.7005,0.0,0.0,0.0,6.9963,6.8568,6.9412,7.2496,7.2496,7.2496,7.2496,7.2496,7.2496,7.2496,7.2496,7.2496,7.2496,7.2496,7.2496,7.2496,7.2496,7.2496,7.2496,7.2496,7.2496,7.2496,6.4546,6.5121,6.5595,6.5595,6.6237,6.6271,6.4816,6.6474,6.7354,6.5899,6.7658,6.9079,6.9079,6.9079,6.847,6.6948,6.8199,6.7793,6.4816,6.7421,6.8064,0.0,0.0,6.7557,6.6846,6.6812,6.6812,6.6812,0.0,0.0,6.4571,0.0,6.505,6.3645,6.6755,6.7673,6.6846,6.7557,6.7895,6.803,6.9553,7.0195,7.0263,7.1041,7.1312,7.1312,7.1312,7.1312,7.1312,7.1312,7.1312,7.183,7.483,7.5787,7.6027,7.7019,7.7304,7.7304,7.7304,7.7304,7.7304,7.7304,7.7304,7.7304,7.7304,7.7304,7.6864,7.5249,7.4258,7.345,7.2642,7.2496,7.1725,6.9302,0.0,0.0,0.0,0.0,0.0,0.0,6.1961,6.075,6.1557,5.796,0.0,0.0,0.0,0.0,0.0,0.0,0.0,5.9134,5.774,0.0,6.4127,6.4971,6.776,7.2496,7.2496,7.2496,7.2496,7.2496,7.2496,7.2496,7.2496,7.2496,7.2496,7.2496,7.2496,7.2496,7.2496,7.2496,7.2496,7.2496,7.2496,7.2496,6.3193,6.4918,6.6136,6.5121,6.6406,6.7387,6.6914,6.7895,6.8741,6.8741,6.9383,7.0026,7.0534,6.9722,6.891,0.0,6.7861,6.759,0.0,6.759,6.7692,6.7996,6.7455,6.7049,6.6812,6.6305,6.6034,6.6034,0.0,0.0,0.0,6.4932,6.5278,6.5831,6.7282,6.7826,6.759,6.8402,6.9011,6.9485,6.9992,7.05,7.0973,7.121,7.1312,7.1312,7.1312,7.1312,7.1312,7.1312,7.1312,7.1634,7.3252,7.3772,7.3928,7.4976,7.5754,7.6264,7.6264,7.6793,7.7304,7.7304,7.7304,7.7304,7.7304,7.7304,7.6864,7.5249,7.4698,7.4111,7.2753,7.2496,7.1725,6.9302,7.0293,0.0,0.0,0.0,0.0,0.0,6.4751,6.3649,6.5558,6.1594,0.0,0.0,0.0,0.0,0.0,0.0,0.0,0.0,6.4751,0.0,6.9816,6.8458,6.9339,7.2496,7.2496,7.2496,7.2496,7.2496,7.2496,7.2496,7.2496,7.2496,7.2496,7.2496,7.2496,7.2496,7.2496,7.2496,7.2496,7.2496,7.2165,7.1688,6.414,6.5764,6.6914,6.6,6.7218,6.8166,6.759,6.8639,6.9451,6.935,7.006,7.0804,7.1278,7.05,0.0,6.9925,6.9045,6.891,6.9857,6.9045,6.8808,6.9485,6.8605,6.7963,6.7692,6.7218,0.0,6.6981,6.6508,6.6305,6.6305,6.6305,6.6779,6.7692,6.8166,6.8335,6.8402,6.918,6.9755,7.0195,7.05,7.0906,7.1312,7.1312,7.1312,7.1312,7.1312,7.1312,7.1312,7.1312,7.1312,7.1367,7.2056,7.2193,7.2498,7.385,7.4976,7.5787,7.5787,7.6563,7.7304,7.7304,7.7304,7.7304,7.7304,7.7304,7.6864,7.5249,7.4918,7.4404,7.2789,7.2496,7.2018,7.0513,7.1505,7.1982,7.0477,0.0,0.0,0.0,0.0,0.0,0.0,6.4934,6.2585,0.0,0.0,0.0,0.0,0.0,0.0,6.5448,6.688,6.8715,7.1138,6.9669,7.011,7.2496,7.2496,7.2496,7.2496,7.2496,7.2496,7.2496,7.2496,7.2496,7.2496,7.2496,7.2496,7.2496,7.2496,7.2496,7.2459,7.2165,7.1725,7.1284,6.6677,6.7387,6.7963,0.0,6.8571,0.0,6.7286,6.8876,6.9755,6.8335,6.9992,7.1312,7.1312,7.1312,7.1312,7.1312,0.0,0.0,0.0,7.121,7.0906,7.0297,7.0161,6.9789,6.9113,6.9045,6.9045,6.9113,6.9113,6.9113,6.9113,6.9113,6.9113,6.9113,6.9147,6.918,6.9214,6.9958,7.0263,7.0331,7.1041,7.1312,7.1312,7.1312,7.1312,7.1312,7.1312,7.1312,7.1312,7.1312,7.1312,7.1312,7.1312,7.1312,7.1688,7.3571,7.483,7.558,7.5649,7.6396,7.7181,7.7243,7.7304,7.7304,7.7304,7.7304,7.6864,7.5249,7.4918,7.4404,7.2789,7.2496,7.2496,7.2496,7.2496,7.2459,7.2275,0.0,0.0,0.0,0.0,0.0,0.0,6.7871,6.754,0.0,0.0,0.0,0.0,0.0,5.9685,6.453,6.5411,6.688,6.9119,6.9155,7.0293,7.2496,7.2496,7.2496,7.2496,7.2496,7.2496,7.2496,7.2496,7.2496,7.2496,7.2496,7.2496,7.2496,7.2459,7.2422,7.2312,7.1541,7.1211,7.1027,0.0,0.0,6.8436,6.7286,6.8673,6.9823,6.9451,7.0331,7.0906,7.0534,7.0973,7.1312,7.1312,7.1312,7.1312,7.1312,7.0263,7.0094,7.1244,7.0263,7.006,7.1007,6.9958,6.9282,6.9113,6.8504,6.847,6.9113,6.9113,6.9113,6.9113,6.9113,6.9113,6.9113,6.9688,6.9925,6.9992,7.0737,7.1041,7.1075,7.1244,7.1312,7.1312,7.1312,7.1312,7.1312,7.1312,7.1312,7.1312,7.1312,7.1312,7.1312,7.1312,7.1312,7.1401,7.183,7.2749,7.3694,7.446,7.5369,7.633,7.7118,7.7304,7.7304,7.7304,7.7304,7.6864,7.5249,7.4918,7.4404,7.2789,7.2496,7.2496,7.2496,7.2496,7.1872,7.0,6.9265,6.8238,0.0,6.7283,6.8201,6.8568,6.9743,6.9339,0.0,0.0,0.0,6.6696,6.5154,6.6145,7.0367,7.0697,7.1064,7.1651,7.1651,7.1945,7.2496,7.2496,7.2496,7.2496,7.2496,7.2496,7.2496,7.2496,7.2496,7.2496,7.2496,7.2496,7.2459,7.1835,7.1578,7.1505,7.0697,7.0,6.9449,6.6745,6.8233,6.935,6.8504,6.9654,7.0703,7.0703,7.1041,7.1312,7.1312,7.1312,7.1312,7.1312,7.1312,7.1312,7.1312,7.0567,7.0466,7.1278,7.0567,7.0466,7.1278,7.0534,7.0128,7.0128,6.9688,6.9688,7.0128,7.0128,7.0128,7.0128,7.0128,7.0128,7.0128,7.0534,7.0703,7.0737,7.1142,7.1312,7.1312,7.1312,7.1312,7.1312,7.1312,7.1312,7.1312,7.1312,7.1312,7.1312,7.1312,7.1312,7.1312,7.1312,7.1312,7.1312,7.1312,7.1969,7.3044,7.4005,7.5048,7.6027,7.7019,7.7304,7.7304,7.7304,7.7304,7.6864,7.5249,7.4918,7.4404,7.2789,7.2496,7.2496,7.2496,7.1578,7.0403,6.9082,6.7944,6.7173,6.699,6.8091,6.9339,7.044,7.1358,7.1138,6.9376,6.7834,0.0,6.9155,6.8201,6.9119,7.2386,7.2496,7.2496,7.2496,7.2496,7.2496,7.2496,7.2496,7.2496,7.2496,7.2496,7.2496,7.2496,7.2496,7.2496,7.2496,7.2496,7.2275,7.1908,7.1468,7.1101,7.066,6.9853,6.9302,6.8862,6.9417,6.9925,7.0364,7.0364,7.0872,7.1312,7.1312,7.1312,7.1312,7.1312,7.1312,7.1312,7.1312,7.1312,7.1312,7.1312,7.1312,7.1312,7.1312,7.1312,7.1312,7.1312,7.1312,7.1312,7.1312,7.1312,7.1312,7.1312,7.1312,7.1312,7.1312,7.1312,7.1312,7.1312,7.1312,7.1312,7.1312,7.1312,7.1312,7.1312,7.1312,7.1312,7.1312,7.1312,7.1312,7.1312,7.1312,7.1312,7.1312,7.1312,7.1312,7.1312,7.1312,7.1312,7.1312,7.1312,7.1917,7.2797,7.3807,7.4903,7.6027,7.6856,7.7181,7.7304,7.7304,7.7304,7.6864,7.5249,7.4918,7.4404,7.2789,7.2496,7.2386,7.2018,7.0257,6.8788,6.8421,0.0,6.6623,6.8678,6.9229,7.0257,7.2312,7.2496,7.2496,7.2496,7.0587,7.033,7.2386,7.055,7.0403,7.2459,7.2496,7.2496,7.2496,7.2496,7.2496,7.2496,7.2496,7.2496,7.2496,7.2496,7.2496,7.2496,7.2496,7.2422,7.2312,7.2312,7.1835,7.1138,7.0991,7.0513,6.9816,6.9009,6.8715,6.8605,7.0838,7.1075,7.1142,7.1142,7.1244,7.1312,7.1312,7.1312,7.1312,7.1312,7.1312,7.1312,7.1312,7.1312,7.1312,7.1312,7.1312,7.1312,7.1312,7.1312,7.1312,7.1312,7.1312,7.1312,7.1312,7.1312,7.1312,7.1312,7.1312,7.1312,7.1312,7.1312,7.1312,7.1312,7.1312,7.1312,7.1312,7.1312,7.1312,7.1312,7.1312,7.1312,7.1312,7.1312,7.1312,7.1312,7.1312,7.1312,7.1312,7.1312,7.1312,7.1312,7.1312,7.1312,7.1312,7.1312,7.1367,7.1776,7.2714,7.4385,7.5823,7.6027,7.6628,7.7304,7.7304,7.7304,7.6864,7.5249,7.4918,7.4404,7.2789,7.2496,7.1835,6.9779,6.9155,6.8201,6.6145,0.0,6.8495,6.8862,7.0697,7.2092,7.2459,7.2496,7.2496,7.2496,7.2165,7.2092,7.2496,7.2129,7.2129,7.2496,7.2496,7.2496,7.2496,7.2496,7.2496,7.2496,7.2496,7.2496,7.2496,7.2496,7.2496,7.2496,7.2496,7.2129,7.1505,7.1505,7.1027,7.022,6.9559,6.9192,6.9009,6.8164,6.7871,6.7871,7.1244,7.1312,7.1312,7.1312,7.1312,7.1312,7.1312,7.1312,7.1312,7.1312,7.1312,7.1312,7.1312,7.1312,7.1312,7.1312,7.1312,7.1312,7.1312,7.1312,7.1312,7.1312,7.1312,7.1312,7.1312,7.1312,7.1312,7.1312,7.1312,7.1312,7.1312,7.1312,7.1312,7.1312,7.1312,7.1312,7.1312,7.1312,7.1312,7.1312,7.1312,7.1312,7.1312,7.1312,7.1312,7.1312,7.1312,7.1312,7.1312,7.1312,7.1312,7.1312,7.1312,7.1312,7.1312,7.1312,7.1688,7.2364,7.3332,7.4684,7.5959,7.6498,7.6956,7.7304,7.7304,7.7304,7.6864,7.5249,7.4918,7.4404,7.2789,7.2496,7.2129,7.1027,6.9743,0.0,6.7393,6.8201,6.8898,6.8898,7.1027,7.2496,7.2496,7.2496,7.2496,7.2496,7.2496,7.2496,7.2496,7.2496,7.2496,7.2496,7.2496,7.2496,7.2496,7.2496,7.2496,7.2496,7.2496,7.2496,7.2496,7.2496,7.2496,7.2496,7.2055,7.1651,7.1284,7.0844,7.0183,6.9412,6.9045,6.8641,6.8201,6.7834,6.7687,6.7687,7.1312,7.1312,7.1312,7.1312,7.1312,7.1312,7.1312,7.1312,7.1312,7.1312,7.1312,7.1312,7.1312,7.1312,7.1312,7.1312,7.1312,7.1312,7.1312,7.1312,7.1312,7.1312,7.1312,7.1312,7.1312,7.1312,7.1312,7.1312,7.1312,7.1312,7.1312,7.1312,7.1312,7.1312,7.1312,7.1312,7.1312,7.1312,7.1312,7.1312,7.1312,7.1312,7.1312,7.1312,7.1312,7.1312,7.1312,7.1312,7.1312,7.1312,7.1312,7.1312,7.1312,7.1312,7.1312,7.1312,7.183,7.2582,7.3412,7.4535,7.5649,7.6432,7.6956,7.7304,7.7304,7.7304,7.6864,7.5249,7.4918,7.4404,7.2789,7.2496,7.2312,7.1762,0.0,0.0,0.0,6.8898,6.9119,6.9669,7.1358,7.2496,7.2496,7.2496,7.2496,7.2496,7.2496,7.2496,7.2496,7.2496,7.2496,7.2496,7.2496,7.2496,7.2496,7.2496,7.2496,7.2496,7.2496,7.2496,7.2496,7.2496,7.2422,7.2202,7.1578,7.1101,7.0697,7.0073,6.9339,6.8605,6.8605,6.8238,6.7687,6.7687,6.7687,6.7687,7.1312,7.1312,7.1312,7.1312,7.1312,7.1312,7.1312,7.1312,7.1312,7.1312,7.1312,7.1312,7.1312,7.1312,7.1312,7.1312,7.1312,7.1312,7.1312,7.1312,7.1312,7.1312,7.1312,7.1312,7.1312,7.1312,7.1312,7.1312,7.1312,7.1312,7.1312,7.1312,7.1312,7.1312,7.1312,7.1312,7.1312,7.1312,7.1312,7.1312,7.1312,7.1312,7.1312,7.1312,7.1312,7.1312,7.1312,7.1312,7.1312,7.1312,7.1312,7.1312,7.1312,7.1312,7.1312,7.1312,7.1401,7.1457,7.1546,7.2962,7.4385,7.446,7.5891,7.7304,7.7304,7.7304,7.6864,7.5249,7.4918,7.4404,7.2789,7.2496,7.1762,6.9522,0.0,0.0,6.8898,6.8898,6.9743,7.1982,7.2386,7.2496,7.2496,7.2496,7.2496,7.2496,7.2496,7.2496,7.2496,7.2496,7.2496,7.2496,7.2496,7.2496,7.2496,7.2496,7.2496,7.2496,7.2496,7.2496,7.2496,7.2496,7.2092,7.1394,7.1358,7.0477,6.9082,6.9009,6.8495,6.7797,6.7797,6.7724,6.7687,6.7687,6.7687,6.7687,7.1312,7.1312,7.1312,7.1312,7.1312,7.1312,7.1312,7.1312,7.1312,7.1312,7.1312,7.1312,7.1312,7.1312,7.1312,7.1312,7.1312,7.1312,7.1312,7.1312,7.1312,7.1312,7.1312,7.1312,7.1312,7.1312,7.1312,7.1312,7.1312,7.1312,7.1312,7.1312,7.1312,7.1312,7.1312,7.1312,7.1312,7.1312,7.1312,7.1312,7.1312,7.1312,7.1312,7.1312,7.1312,7.1312,7.1312,7.1312,7.1312,7.1312,7.1312,7.1312,7.1312,7.1312,7.1312,7.1312,7.1312,7.1312,7.1312,7.2279,7.365,7.4903,7.5787,7.6563,7.7181,7.6937,7.624,7.5139,7.4515,7.3817,7.2716,7.2496,7.2202,7.1284,0.0,7.1138,7.1138,7.1138,7.1468,7.2386,7.2496,7.2496,7.2496,7.2496,7.2496,7.2496,7.2496,7.2496,7.2496,7.2496,7.2496,7.2496,7.2496,7.2496,7.2496,7.2496,7.2496,7.2496,7.2496,7.2496,7.2496,7.2496,7.2055,7.1284,7.077,6.9926,6.8862,6.8348,6.7981,6.7687,6.7687,6.7687,6.7687,6.7687,6.7687,6.7687,7.1312,7.1312,7.1312,7.1312,7.1312,7.1312,7.1312,7.1312,7.1312,7.1312,7.1312,7.1312,7.1312,7.1312,7.1312,7.1312,7.1312,7.1312,7.1312,7.1312,7.1312,7.1312,7.1312,7.1312,7.1312,7.1312,7.1312,7.1312,7.1312,7.1312,7.1312,7.1312,7.1312,7.1312,7.1312,7.1312,7.1312,7.1312,7.1312,7.1312,7.1312,7.1312,7.1312,7.1312,7.1312,7.1312,7.1312,7.1312,7.1312,7.1312,7.1312,7.1312,7.1312,7.1312,7.1312,7.1312,7.1312,7.1312,7.1312,7.183,7.2797,7.483,7.558,7.6027,7.7082,7.668,7.5873,7.5065,7.4258,7.345,7.2642,7.2496,7.2496,7.2496,7.2496,7.2496,7.2496,7.2496,7.2496,7.2496,7.2496,7.2496,7.2496,7.2496,7.2496,7.2496,7.2496,7.2496,7.2496,7.2496,7.2496,7.2496,7.2496,7.2496,7.2496,7.2496,7.2496,7.2496,7.2496,7.2496,7.2496,7.2239,7.1688,7.0881,7.0073,6.9265,6.8495,6.7907,6.7687,6.7687,6.7687,6.7687,6.7687,6.7687,6.7687,6.7687,7.1312,7.1312,7.1312,7.1312,7.1312,7.1312,7.1312,7.1312,7.1312,7.1312,7.1312,7.1312,7.1312,7.1312,7.1312,7.1312,7.1312,7.1312,7.1312,7.1312,7.1312,7.1312,7.1312,7.1312,7.1312,7.1312,7.1312,7.1312,7.1312,7.1312,7.1312,7.1312,7.1312,7.1312,7.1312,7.1312,7.1312,7.1312,7.1312,7.1312,7.1312,7.1312,7.1312,7.1312,7.1312,7.1312,7.1312,7.1312,7.1312,7.1312,7.1312,7.1312,7.1312,7.1312,7.1312,7.1312,7.1312,7.1312,7.1312,7.1312,7.1776,7.3807,7.5048,7.6027,7.7082,7.668,7.5873,7.5065,7.4258,7.345,7.2642,7.2496,7.2496,7.2496,7.2496,7.2496,7.2496,7.2496,7.2496,7.2496,7.2496,7.2496,7.2496,7.2496,7.2496,7.2496,7.2496,7.2496,7.2496,7.2496,7.2496,7.2496,7.2496,7.2496,7.2496,7.2496,7.2496,7.2496,7.2496,7.2496,7.2459,7.1688,7.0881,7.0036,6.9265,6.8458,6.7687,6.7687,6.7687,6.7687,6.7687,6.7687,6.7687,6.7687,6.7687,6.7687,7.1312,7.1312,7.1312,7.1312,7.1312,7.1312,7.1312,7.1312,7.1312,7.1312,7.1312,7.1312,7.1312,7.1312,7.1312,7.1312,7.1312,7.1312,7.1312,7.1312,7.1312,7.1312,7.1312,7.1312,7.1312,7.1312,7.1312,7.1312,7.1312,7.1312,7.1312,7.1312,7.1312,7.1312,7.1312,7.1312,7.1312,7.1312,7.1312,7.1312,7.1312,7.1312,7.1312,7.1312,7.1312,7.1312,7.1312,7.1312,7.1312,7.1312,7.1312,7.1312,7.1312,7.1312,7.1312,7.1312,7.1312,7.1312,7.1312,7.1312,7.16,7.288,7.4005,7.4833,7.5339,7.5333,7.5028,7.4221,7.3413,7.2789,7.2532,7.2496,7.2496,7.2496,7.2496,7.2496,7.2496,7.2496,7.2496,7.2496,7.2496,7.2496,7.2496,7.2496,7.2496,7.2496,7.2496,7.2496,7.2496,7.2496,7.2496,7.2496,7.2496,7.2496,7.2496,7.2496,7.2496,7.2496,7.2496,7.2202,7.1651,7.1431,7.055,6.9229,6.9009,6.8458,6.7687,6.7687,6.7687,6.7687,6.7687,6.7687,6.7687,6.7687,6.7687,6.7687,7.1312,7.1312,7.1312,7.1312,7.1312,7.1312,7.1312,7.1312,7.1312,7.1312,7.1312,7.1312,7.1312,7.1312,7.1312,7.1312,7.1312,7.1312,7.1312,7.1312,7.1312,7.1312,7.1312,7.1312,7.1312,7.1312,7.1312,7.1312,7.1312,7.1312,7.1312,7.1312,7.1312,7.1312,7.1312,7.1312,7.1312,7.1312,7.1312,7.1312,7.1312,7.1312,7.1312,7.1312,7.1312,7.1312,7.1312,7.1312,7.1312,7.1312,7.1312,7.1312,7.1312,7.1312,7.1312,7.1312,7.1312,7.1312,7.1312,7.1312,7.1389,7.1679,7.2799,7.3967,7.4467,7.4524,7.4294,7.378,7.3046,7.2496,7.2496,7.2496,7.2496,7.2496,7.2496,7.2496,7.2496,7.2496,7.2496,7.2496,7.2496,7.2496,7.2496,7.2496,7.2496,7.2496,7.2496,7.2496,7.2496,7.2496,7.2496,7.2496,7.2496,7.2496,7.2496,7.2496,7.2496,7.2496,7.2202,7.1798,7.1284,7.066,6.9816,6.8898,6.8568,6.8128,6.7687,6.7687,6.7687,6.7687,6.7687,6.7687,6.7687,6.7687,6.7687,6.7687,7.1312,7.1312,7.1312,7.1312,7.1312,7.1312,7.1312,7.1312,7.1312,7.1312,7.1312,7.1312,7.1312,7.1312,7.1312,7.1312,7.1312,7.1312,7.1312,7.1312,7.1312,7.1312,7.1312,7.1312,7.1312,7.1312,7.1312,7.1312,7.1312,7.1312,7.1312,7.1312,7.1312,7.1312,7.1312,7.1312,7.1312,7.1312,7.1312,7.1312,7.1312,7.1312,7.1312,7.1312,7.1312,7.1312,7.1312,7.1312,7.1312,7.1312,7.1312,7.1312,7.1312,7.1312,7.1312,7.1312,7.1312,7.1312,7.1312,7.1278,7.1041,7.0364,7.1503,7.3003,7.4039,7.3888,7.3516,7.3443,7.2951,7.2496,7.238,7.2438,7.2496,7.2496,7.2496,7.2496,7.2496,7.2496,7.2496,7.2496,7.2496,7.2496,7.2496,7.2496,7.2496,7.2496,7.2496,7.2496,7.2496,7.2496,7.2496,7.2496,7.2496,7.2496,7.2496,7.2496,7.2459,7.2386,7.1651,7.1248,7.1064,6.9596,6.8862,6.8752,6.8017,6.7687,6.7687,6.7687,6.7687,6.7687,6.7687,6.7687,6.7687,6.7687,6.7687,6.7687,7.1312,7.1312,7.1312,7.1312,7.1312,7.1312,7.1312,7.1312,7.1312,7.1312,7.1312,7.1312,7.1312,7.1312,7.1312,7.1312,7.1312,7.1312,7.1312,7.1312,7.1312,7.1312,7.1312,7.1312,7.1312,7.1312,7.1312,7.1312,7.1312,7.1312,7.1312,7.1312,7.1312,7.1312,7.1312,7.1312,7.1312,7.1312,7.1312,7.1312,7.1312,7.1312,7.1312,7.1312,7.1312,7.1312,7.1312,7.1312,7.1312,7.1312,7.1312,7.1312,7.1312,7.1312,7.1312,7.1312,7.1312,7.1312,7.1312,7.0872,7.0398,7.0229,7.0202,7.0476,7.1409,7.2171,7.2463,7.1811,7.2121,7.2285,7.1511,7.2011,7.2496,7.2496,7.2496,7.2496,7.2496,7.2496,7.2496,7.2496,7.2496,7.2496,7.2496,7.2496,7.2496,7.2496,7.2496,7.2496,7.2496,7.2496,7.2496,7.2496,7.2496,7.2496,7.2496,7.2496,7.2202,7.1578,7.1394,7.066,6.9412,6.9082,6.8568,6.7944,6.776,6.7687,6.7687,6.7687,6.7687,6.7687,6.7687,6.7687,6.7687,6.7687,6.7687,6.7687,7.1312,7.1312,7.1312,7.1312,7.1312,7.1312,7.1312,7.1312,7.1312,7.1312,7.1312,7.1312,7.1312,7.1312,7.1312,7.1312,7.1312,7.1312,7.1312,7.1312,7.1312,7.1312,7.1312,7.1312,7.1312,7.1312,7.1312,7.1312,7.1312,7.1312,7.1312,7.1312,7.1312,7.1312,7.1312,7.1312,7.1312,7.1312,7.1312,7.1312,7.1312,7.1312,7.1312,7.1312,7.1312,7.1312,7.1312,7.1312,7.1312,7.1312,7.1312,7.1312,7.1312,7.1312,7.1312,7.1312,7.1312,7.1244,7.0872,7.05,6.9992,6.9282,6.8863,6.8957,6.991,7.0629,7.0969,7.0539,7.1159,7.1635,7.1223,7.1854,7.2496,7.2496,7.2496,7.2496,7.2496,7.2496,7.2496,7.2496,7.2496,7.2496,7.2496,7.2496,7.2496,7.2496,7.2496,7.2496,7.2496,7.2496,7.2496,7.2496,7.2496,7.2496,7.2496,7.2129,7.1541,7.0734,7.0734,7.011,6.8898,6.8495,6.8091,6.7687,6.7687,6.7687,6.7687,6.7687,6.7687,6.7687,6.7687,6.7687,6.7687,6.7687,6.7687,6.7687,7.1312,7.1312,7.1312,7.1312,7.1312,7.1312,7.1312,7.1312,7.1312,7.1312,7.1312,7.1312,7.1312,7.1312,7.1312,7.1312,7.1312,7.1312,7.1312,7.1312,7.1312,7.1312,7.1312,7.1312,7.1312,7.1312,7.1312,7.1312,7.1312,7.1312,7.1312,7.1312,7.1312,7.1312,7.1312,7.1312,7.1312,7.1312,7.1312,7.1312,7.1312,7.1312,7.1312,7.1312,7.1312,7.1312,7.1312,7.1312,7.1312,7.1312,7.1312,7.1312,7.1312,7.1312,7.1312,7.1312,7.1312,7.1142,7.0398,7.0094,6.9654,6.8233,6.7793,6.7946,6.8785,6.9212,6.9458,6.9458,7.0332,7.1095,7.0865,7.1732,7.2496,7.2496,7.2496,7.2496,7.2496,7.2496,7.2496,7.2496,7.2496,7.2496,7.2496,7.2496,7.2496,7.2496,7.2496,7.2496,7.2496,7.2496,7.2496,7.2496,7.2496,7.2422,7.2312,7.1651,7.0844,6.9889,6.9889,6.9486,6.8678,6.7981,6.7687,6.7687,6.7687,6.7687,6.7687,6.7687,6.7687,6.7687,6.7687,6.7687,6.7687,6.7687,6.7687,6.7687,7.1312,7.1312,7.1312,7.1312,7.1312,7.1312,7.1312,7.1312,7.1312,7.1312,7.1312,7.1312,7.1312,7.1312,7.1312,7.1312,7.1312,7.1312,7.1312,7.1312,7.1312,7.1312,7.1312,7.1312,7.1312,7.1312,7.1312,7.1312,7.1312,7.1312,7.1312,7.1312,7.1312,7.1312,7.1312,7.1312,7.1312,7.1312,7.1312,7.1312,7.1312,7.1312,7.1312,7.1312,7.1312,7.1312,7.1312,7.1312,7.1312,7.1312,7.1312,7.1312,7.1312,7.1312,7.1312,7.1312,7.1312,7.1142,7.0398,6.9722,6.9045,6.8132,6.7421,6.6948,6.7116,6.7811,6.842,6.842,6.9848,7.0865,7.0058,7.1323,7.2496,7.2496,7.2496,7.2496,7.2496,7.2496,7.2496,7.2496,7.2496,7.2496,7.2496,7.2496,7.2496,7.2496,7.2496,7.2496,7.2496,7.2496,7.2496,7.2496,7.2496,7.2165,7.1468,7.1358,7.055,6.9082,6.9082,6.8641,6.7834,6.7724,6.7687,6.7687,6.7687,6.7687,6.7687,6.7687,6.7687,6.7687,6.7687,6.7687,6.7687,6.7687,6.7687,6.7687,7.1312,7.1312,7.1312,7.1312,7.1312,7.1312,7.1312,7.1312,7.1312,7.1312,7.1312,7.1312,7.1312,7.1312,7.1312,7.1312,7.1312,7.1312,7.1312,7.1312,7.1312,7.1312,7.1312,7.1312,7.1312,7.1312,7.1312,7.1312,7.1312,7.1312,7.1312,7.1312,7.1312,7.1312,7.1312,7.1312,7.1312,7.1312,7.1312,7.1312,7.1312,7.1312,7.1312,7.1312,7.1312,7.1312,7.1312,7.1312,7.1312,7.1312,7.1312,7.1312,7.1312,7.1312,7.1312,7.1312,7.1312,7.1142,7.0398,6.9654,6.891,6.8098,6.7354,6.6812,6.6812,6.7078,6.7454,6.7454,6.8947,7.0196,6.9778,7.1223,7.2496,7.2496,7.2496,7.2496,7.2496,7.2496,7.2496,7.2496,7.2496,7.2496,7.2496,7.2496,7.2496,7.2496,7.2496,7.2496,7.2496,7.2496,7.2496,7.2496,7.2055,7.1688,7.1321,7.044,6.9596,6.8898,6.8458,6.8017,6.7687,6.7687,6.7687,6.7687,6.7687,6.7687,6.7687,6.7687,6.7687,6.7687,6.7687,6.7687,6.7687,6.7687,6.7687,6.7687]},{"header":{"parameterUnit":"m.s-1","parameterCategory":1,"la1":30.6,"la2":28.766,"lo1":-90.7593,"lo2":-88.6598,"dy":0.0162,"dx":0.0183,"nx":116,"ny":114,"refTime":"2024-04-18T12:00:00:Z","depth":0,"parameterNumber":3,"parameterNumberName":"V-component_of_WINDS"},"data":[0.0,0.0,0.0,0.0,0.0,0.0,0.0,0.0,0.0,0.0,0.0,0.0,0.0,0.0,0.0,0.0,0.0,0.0,0.0,0.0,0.0,0.0,0.0,0.0,0.0,0.0,0.0,0.0,0.0,0.0,0.0,0.0,0.0,0.0,0.0,0.0,0.0,0.0,0.0,0.0,0.0,0.0,0.0,0.0,0.0,0.0,0.0,0.0,0.0,0.0,0.0,0.0,0.0,0.0,0.0,0.0,0.0,0.0,0.0,0.0,0.0,0.0,0.0,0.0,0.0,0.0,0.0,0.0,0.0,0.0,0.0,0.0,0.0,0.0,0.0,0.0,0.0,0.0,0.0,0.0,0.0,0.0,0.0,0.0,0.0,0.0,0.0,0.0,0.0,0.0,0.0,0.0,0.0,0.0,0.0,0.0,0.0,0.0,0.0,0.0,0.0,0.0,0.0,0.0,0.0,0.0,0.0,0.0,0.0,0.0,0.0,0.0,0.0,0.0,0.0,0.0,0.0,0.0,0.0,0.0,0.0,0.0,0.0,0.0,0.0,0.0,0.0,0.0,0.0,0.0,0.0,0.0,0.0,0.0,0.0,0.0,0.0,0.0,0.0,0.0,0.0,0.0,0.0,0.0,0.0,0.0,0.0,0.0,0.0,0.0,0.0,0.0,0.0,0.0,0.0,0.0,0.0,0.0,0.0,0.0,0.0,0.0,0.0,0.0,0.0,0.0,0.0,0.0,0.0,0.0,0.0,0.0,0.0,0.0,0.0,0.0,0.0,0.0,0.0,0.0,0.0,0.0,0.0,0.0,0.0,0.0,0.0,0.0,0.0,0.0,0.0,0.0,0.0,0.0,0.0,0.0,0.0,0.0,0.0,0.0,0.0,0.0,0.0,0.0,0.0,0.0,0.0,0.0,0.0,0.0,0.0,0.0,0.0,0.0,0.0,0.0,0.0,0.0,0.0,0.0,0.0,0.0,0.0,0.0,0.0,0.0,0.0,0.0,0.0,0.0,0.0,0.0,0.0,0.0,0.0,0.0,0.0,0.0,0.0,0.0,0.0,0.0,0.0,0.0,0.0,0.0,0.0,0.0,0.0,0.0,0.0,0.0,0.0,0.0,0.0,0.0,0.0,0.0,0.0,0.0,0.0,0.0,0.0,0.0,0.0,0.0,0.0,0.0,0.0,0.0,0.0,0.0,0.0,0.0,0.0,0.0,0.0,0.0,0.0,0.0,0.0,0.0,0.0,0.0,0.0,0.0,0.0,0.0,0.0,0.0,0.0,0.0,0.0,0.0,0.0,0.0,0.0,0.0,0.0,0.0,0.0,0.0,0.0,0.0,0.0,0.0,0.0,0.0,0.0,0.0,0.0,0.0,0.0,0.0,0.0,0.0,0.0,0.0,0.0,0.0,0.0,0.0,0.0,0.0,0.0,0.0,0.0,0.0,0.0,0.0,0.0,0.0,0.0,0.0,0.0,0.0,0.0,0.0,0.0,0.0,0.0,0.0,0.0,0.0,0.0,0.0,0.0,0.0,0.0,0.0,0.0,0.0,0.0,0.0,0.0,0.0,0.0,0.0,0.0,0.0,0.0,0.0,0.0,0.0,0.0,0.0,0.0,0.0,0.0,0.0,0.0,0.0,0.0,0.0,0.0,0.0,0.0,0.0,0.0,0.0,0.0,0.0,0.0,0.0,0.0,0.0,0.0,0.0,0.0,0.0,0.0,0.0,0.0,0.0,0.0,0.0,0.0,0.0,0.0,0.0,0.0,0.0,0.0,0.0,0.0,0.0,0.0,0.0,0.0,0.0,0.0,0.0,0.0,0.0,0.0,0.0,0.0,0.0,0.0,0.0,0.0,0.0,0.0,0.0,0.0,0.0,0.0,0.0,0.0,0.0,0.0,0.0,0.0,0.0,0.0,0.0,0.0,0.0,0.0,0.0,0.0,0.0,0.0,0.0,0.0,0.0,0.0,0.0,0.0,0.0,0.0,0.0,0.0,0.0,0.0,0.0,0.0,0.0,0.0,0.0,0.0,0.0,0.0,0.0,0.0,0.0,0.0,0.0,0.0,0.0,0.0,0.0,0.0,0.0,0.0,0.0,0.0,0.0,0.0,0.0,0.0,0.0,0.0,0.0,0.0,0.0,0.0,0.0,0.0,0.0,0.0,0.0,0.0,0.0,0.0,0.0,0.0,0.0,0.0,0.0,0.0,0.0,0.0,0.0,0.0,0.0,0.0,0.0,0.0,0.0,0.0,0.0,0.0,0.0,0.0,0.0,0.0,0.0,0.0,0.0,0.0,0.0,0.0,0.0,0.0,0.0,0.0,0.0,0.0,0.0,0.0,0.0,0.0,0.0,0.0,0.0,0.0,0.0,0.0,0.0,0.0,0.0,0.0,0.0,0.0,0.0,0.0,0.0,0.0,0.0,0.0,0.0,0.0,0.0,0.0,0.0,0.0,0.0,0.0,0.0,0.0,0.0,0.0,0.0,0.0,0.0,0.0,0.0,0.0,0.0,0.0,0.0,0.0,0.0,0.0,0.0,0.0,0.0,0.0,0.0,0.0,0.0,0.0,0.0,0.0,0.0,0.0,0.0,0.0,0.0,0.0,0.0,0.0,0.0,0.0,0.0,0.0,0.0,0.0,0.0,0.0,0.0,0.0,0.0,0.0,0.0,0.0,0.0,0.0,0.0,0.0,0.0,0.0,0.0,0.0,0.0,0.0,0.0,0.0,0.0,0.0,0.0,0.0,0.0,0.0,0.0,0.0,0.0,0.0,0.0,0.0,0.0,0.0,0.0,0.0,0.0,0.0,0.0,0.0,0.0,0.0,0.0,0.0,0.0,0.0,0.0,0.0,0.0,0.0,0.0,0.0,0.0,0.0,0.0,0.0,0.0,0.0,0.0,0.0,0.0,0.0,0.0,0.0,0.0,0.0,0.0,0.0,0.0,0.0,0.0,0.0,0.0,0.0,0.0,0.0,0.0,0.0,0.0,0.0,0.0,0.0,0.0,0.0,0.0,0.0,0.0,0.0,0.0,0.0,0.0,0.0,0.0,0.0,0.0,0.0,0.0,0.0,0.0,0.0,0.0,0.0,0.0,0.0,0.0,0.0,0.0,0.0,0.0,0.0,0.0,0.0,0.0,0.0,0.0,0.0,0.0,0.0,0.0,0.0,0.0,0.0,0.0,0.0,0.0,0.0,0.0,0.0,0.0,0.0,0.0,0.0,0.0,0.0,0.0,0.0,0.0,0.0,0.0,0.0,0.0,0.0,0.0,0.0,0.0,0.0,0.0,0.0,0.0,0.0,0.0,0.0,0.0,0.0,0.0,0.0,0.0,0.0,0.0,0.0,0.0,0.0,0.0,0.0,0.0,0.0,0.0,0.0,0.0,0.0,0.0,0.0,0.0,0.0,0.0,0.0,0.0,0.0,0.0,0.0,0.0,0.0,0.0,0.0,0.0,0.0,0.0,0.0,0.0,0.0,0.0,0.0,0.0,0.0,0.0,0.0,0.0,0.0,0.0,0.0,0.0,0.0,0.0,0.0,0.0,0.0,0.0,0.0,0.0,0.0,0.0,0.0,0.0,0.0,0.0,0.0,0.0,0.0,0.0,0.0,0.0,0.0,0.0,0.0,0.0,0.0,0.0,0.0,0.0,0.0,0.0,0.0,0.0,0.0,0.0,0.0,0.0,0.0,0.0,0.0,0.0,0.0,0.0,0.0,0.0,0.0,0.0,0.0,0.0,0.0,0.0,0.0,0.0,0.0,0.0,0.0,0.0,0.0,0.0,0.0,0.0,0.0,0.0,0.0,0.0,0.0,0.0,0.0,0.0,0.0,0.0,0.0,0.0,0.0,0.0,0.0,0.0,0.0,0.0,0.0,0.0,0.0,0.0,0.0,0.0,0.0,0.0,0.0,0.0,0.0,0.0,0.0,0.0,0.0,0.0,0.0,0.0,0.0,0.0,0.0,0.0,0.0,0.0,0.0,0.0,0.0,0.0,0.0,0.0,0.0,0.0,0.0,0.0,0.0,0.0,0.0,0.0,0.0,0.0,0.0,0.0,0.0,0.0,0.0,0.0,0.0,0.0,0.0,0.0,0.0,0.0,0.0,0.0,0.0,0.0,0.0,0.0,0.0,0.0,0.0,0.0,0.0,0.0,0.0,0.0,0.0,0.0,0.0,0.0,0.0,0.0,0.0,0.0,0.0,0.0,0.0,0.0,0.0,0.0,0.0,0.0,0.0,0.0,0.0,0.0,0.0,0.0,0.0,0.0,0.0,0.0,0.0,0.0,0.0,0.0,0.0,0.0,0.0,0.0,0.0,0.0,0.0,0.0,0.0,0.0,0.0,0.0,0.0,0.0,0.0,0.0,0.0,0.0,0.0,0.0,0.0,0.0,0.0,0.0,0.0,0.0,0.0,0.0,0.0,0.0,0.0,0.0,0.0,0.0,0.0,0.0,0.0,0.0,0.0,0.0,0.0,0.0,0.0,0.0,0.0,0.0,0.0,0.0,0.0,0.0,0.0,0.0,0.0,0.0,0.0,0.0,0.0,0.0,0.0,0.0,0.0,0.0,0.0,0.0,0.0,0.0,0.0,0.0,0.0,0.0,0.0,0.0,0.0,0.0,0.0,0.0,0.0,0.0,0.0,0.0,0.0,0.0,0.0,0.0,0.0,0.0,0.0,0.0,0.0,0.0,0.0,0.0,0.0,0.0,0.0,0.0,0.0,0.0,0.0,0.0,0.0,0.0,0.0,0.0,0.0,0.0,0.0,0.0,0.0,0.0,0.0,0.0,0.0,0.0,0.0,0.0,0.0,0.0,0.0,0.0,0.0,0.0,0.0,0.0,0.0,0.0,0.0,0.0,0.0,0.0,0.0,0.0,0.0,0.0,0.0,0.0,0.0,0.0,0.0,0.0,0.0,0.0,0.0,0.0,0.0,0.0,0.0,0.0,0.0,0.0,0.0,0.0,0.0,0.0,0.0,0.0,0.0,0.0,0.0,0.0,0.0,0.0,0.0,0.0,0.0,0.0,0.0,0.0,0.0,0.0,0.0,0.0,0.0,0.0,0.0,0.0,0.0,0.0,0.0,0.0,0.0,0.0,0.0,0.0,0.0,0.0,0.0,0.0,0.0,0.0,0.0,0.0,0.0,0.0,0.0,0.0,0.0,0.0,0.0,0.0,0.0,0.0,0.0,0.0,0.0,0.0,0.0,0.0,0.0,0.0,0.0,0.0,0.0,0.0,0.0,0.0,0.0,0.0,0.0,0.0,0.0,0.0,0.0,0.0,0.0,0.0,0.0,0.0,0.0,0.0,0.0,0.0,0.0,0.0,0.0,0.0,0.0,0.0,0.0,0.0,0.0,0.0,0.0,0.0,0.0,0.0,0.0,0.0,0.0,0.0,0.0,0.0,0.0,0.0,0.0,0.0,0.0,0.0,0.0,0.0,0.0,0.0,0.0,0.0,0.0,0.0,0.0,0.0,0.0,0.0,0.0,0.0,0.0,0.0,0.0,0.0,0.0,0.0,0.0,0.0,0.0,0.0,0.0,0.0,0.0,0.0,0.0,0.0,0.0,0.0,0.0,0.0,0.0,0.0,0.0,0.0,0.0,0.0,0.0,0.0,0.0,0.0,0.0,0.0,0.0,0.0,0.0,0.0,0.0,0.0,0.0,0.0,0.0,0.0,0.0,0.0,0.0,0.0,0.0,0.0,0.0,0.0,0.0,0.0,0.0,0.0,0.0,0.0,0.0,0.0,0.0,0.0,0.0,0.0,0.0,0.0,0.0,0.0,0.0,0.0,0.0,0.0,0.0,0.0,0.0,0.0,0.0,0.0,0.0,0.0,0.0,0.0,0.0,0.0,0.0,0.0,0.0,0.0,0.0,0.0,0.0,0.0,0.0,0.0,0.0,0.0,0.0,0.0,0.0,0.0,0.0,0.0,0.0,0.0,0.0,0.0,0.0,0.0,0.0,0.0,0.0,0.0,0.0,0.0,0.0,0.0,0.0,0.0,0.0,0.0,0.0,0.0,0.0,0.0,0.0,0.0,0.0,0.0,0.0,0.0,0.0,0.0,0.0,0.0,0.0,0.0,0.9442,0.0,0.0,0.0,0.0,0.0,0.0,0.0,0.0,0.0,0.0,0.0,0.0,0.0,0.0,0.0,0.0,0.0,0.0,0.0,0.0,0.0,0.0,0.0,0.0,1.5832,1.5832,1.5832,1.5832,1.5765,1.5631,0.0,0.0,0.0,0.0,0.0,0.0,0.0,1.5471,1.5605,1.5899,1.6179,1.6446,1.6607,0.0,0.0,0.0,0.0,0.0,0.0,0.0,0.0,0.0,0.0,0.0,0.0,0.0,0.0,0.0,0.0,0.0,0.0,0.0,0.0,0.0,0.0,0.0,0.0,0.0,0.0,0.0,0.0,0.0,0.0,0.0,0.0,0.0,0.0,0.0,0.0,0.0,0.0,0.0,0.0,0.0,0.0,0.0,0.0,0.0,0.0,0.0,0.0,0.0,0.0,0.0,0.0,0.0,0.0,0.0,0.0,0.0,0.0,0.0,0.0,0.0,0.0,0.0,0.0,0.0,0.0,0.0,0.0,0.0,0.0,0.0,0.0,0.0,0.9469,0.0,0.0,0.0,0.0,0.0,0.0,0.0,0.0,0.0,0.0,0.0,0.0,0.0,0.0,0.0,0.0,0.0,0.0,0.0,0.0,0.0,1.5832,1.5832,1.5832,1.5832,1.5832,1.5832,1.5712,1.5418,1.5391,1.5284,1.5057,1.5044,1.515,1.5391,1.5444,1.5618,1.5912,1.6259,1.682,1.7582,1.7582,0.0,0.0,0.0,0.0,0.0,0.0,0.0,0.0,0.0,0.0,0.0,0.0,0.0,0.0,0.0,0.0,0.0,0.0,0.0,0.0,0.0,0.0,0.0,0.0,0.0,0.0,0.0,0.0,0.0,0.0,0.0,0.0,0.0,0.0,0.0,0.0,0.0,0.0,0.0,0.0,0.0,0.0,0.0,0.0,0.0,0.0,0.0,0.0,0.0,0.0,0.0,0.0,0.0,0.0,0.0,0.0,0.0,0.0,0.0,0.0,0.0,0.0,0.0,0.0,0.0,0.0,0.9897,0.9992,1.0019,1.0019,0.9951,0.9856,1.0019,1.0148,1.0209,0.9836,0.0,0.0,0.0,0.0,0.0,0.0,0.0,0.0,0.0,0.0,0.0,0.0,0.0,0.0,0.0,0.0,0.0,0.0,0.0,1.5832,1.5832,1.5832,1.5832,1.5832,1.5832,1.5712,1.5418,1.5391,1.5378,1.5337,1.5337,1.5351,1.5391,1.5645,1.5925,1.6219,1.6767,1.7221,1.7582,1.7582,1.7502,1.7368,1.7716,0.0,0.0,0.0,0.0,0.0,0.0,0.0,0.0,0.0,0.0,0.0,0.0,0.0,0.0,0.0,0.0,0.0,0.0,0.0,0.0,0.0,0.0,0.0,0.0,0.0,0.0,0.0,0.0,0.0,0.0,0.0,0.0,0.0,0.0,0.0,0.0,0.0,0.0,0.0,0.0,0.0,0.0,0.0,0.8913,0.9306,0.0,0.0,0.0,0.0,0.0,0.0,0.0,0.0,0.0,0.0,0.0,0.0,0.0,0.9571,0.9673,1.0019,1.0195,1.0195,1.0473,1.067,1.0799,1.0799,1.0792,1.0751,1.0399,0.0,1.0073,1.0019,0.0,0.0,0.0,0.0,0.0,0.0,0.0,0.0,0.0,0.0,0.0,0.0,0.0,0.0,0.0,0.0,0.0,0.0,0.0,0.0,0.0,1.5979,1.6139,1.6313,1.6326,1.6126,1.5671,1.5631,1.5498,1.5164,1.515,1.5231,1.5391,1.5364,1.5805,1.6767,1.7689,1.8303,1.8584,1.8584,1.8584,1.8597,1.8731,1.8384,1.7729,1.7983,0.0,0.0,0.0,0.0,0.0,0.0,0.0,0.0,0.0,0.0,0.0,0.0,0.0,0.0,0.0,0.0,0.0,0.0,0.0,0.0,0.0,0.0,0.0,0.0,0.0,0.0,0.0,0.0,0.0,0.0,0.0,0.0,0.0,0.0,0.0,0.0,0.0,0.0,0.0,0.9028,0.932,0.9598,0.9483,0.93,0.0,0.0,0.0,0.0,0.0,0.0,0.0,0.0,0.0,0.9605,0.993,1.0093,1.008,1.0541,1.0819,1.0907,1.1036,1.1179,1.1328,1.1328,1.1328,1.1307,1.1029,1.0867,1.0765,1.0256,1.0053,1.0012,0.0,0.0,0.0,0.0,0.9089,0.9313,0.0,0.0,0.0,0.0,0.0,0.0,0.0,0.0,0.0,0.0,0.0,0.0,1.5939,1.6206,1.6473,1.6687,1.678,1.6567,1.5979,1.5872,1.5631,1.5204,1.4963,1.5097,1.5605,1.5712,1.6393,1.7716,1.8677,1.9305,1.9586,1.9586,1.9586,1.9586,1.9586,1.9145,1.8384,1.8464,1.809,0.0,0.0,0.0,0.0,0.0,0.0,0.0,0.0,0.0,0.0,0.0,0.0,0.0,0.0,0.0,0.0,0.0,0.0,0.0,0.0,0.0,0.0,0.0,0.0,0.0,0.0,0.0,0.0,0.0,0.0,0.0,0.0,0.0,0.0,0.0,0.0,0.0,0.0,0.9374,0.9591,0.9849,0.972,0.9551,0.0,0.0,0.0,0.0,0.0,0.0,0.9829,0.9937,1.0012,1.0066,1.0493,1.069,1.0622,1.1056,1.1335,1.145,1.145,1.1531,1.1674,1.1674,1.1674,1.1667,1.1552,1.1484,1.1389,1.0643,1.0337,1.0324,1.0209,0.9985,0.972,0.968,0.9761,0.989,0.0,0.0,0.0,0.0,0.0,0.0,0.0,0.0,0.0,0.0,0.0,1.6246,1.6246,1.6513,1.6687,1.67,1.6967,1.6874,1.6286,1.5979,1.5818,1.5792,1.499,1.507,1.6206,1.7328,1.8343,1.9252,1.9586,1.9907,2.0187,2.0187,2.0187,2.0187,2.0187,1.9399,1.809,1.837,1.7983,1.7168,0.0,0.0,0.0,0.0,0.0,0.0,0.0,0.0,0.0,0.0,0.0,0.0,0.0,0.0,0.0,0.0,0.0,0.0,0.0,0.0,0.0,0.0,0.0,0.0,0.0,0.0,0.0,0.0,0.0,0.0,0.0,0.0,0.0,0.0,0.0,0.0,0.0,0.0,0.0,0.9971,1.0154,0.0,0.0,0.0,0.0,0.9788,0.9795,0.9998,1.0426,1.0453,1.0717,1.128,1.1328,1.1409,1.1552,1.1586,1.1599,1.1606,1.1606,1.1681,1.1823,1.1823,1.1823,1.1823,1.1809,1.1735,1.1586,1.1246,1.1104,1.1063,1.0636,1.0541,1.0582,1.0019,1.0175,1.0643,0.0,0.0,0.0,0.0,0.0,1.5832,1.5832,1.5671,1.5551,1.5551,1.5805,1.6059,1.6246,1.67,1.7154,1.7542,1.7662,1.7635,1.7422,1.6954,1.6593,1.6406,1.5912,1.5939,1.654,1.7903,1.8677,1.8811,1.9666,2.0227,2.0521,2.0521,2.0521,2.0521,2.0521,2.012,1.9452,1.9372,1.8824,1.8009,1.8009,1.7662,0.0,0.0,0.0,0.0,0.0,0.0,0.0,0.0,0.0,0.0,0.0,0.0,0.0,0.0,0.0,0.0,0.0,0.0,0.0,0.0,0.0,0.0,0.0,0.0,0.0,0.0,0.0,0.0,0.0,0.0,0.0,0.0,0.0,0.0,0.0,0.0,0.0,1.0263,1.0304,0.0,1.0202,1.0276,1.031,1.0256,1.0521,1.0799,1.1056,1.107,1.1212,1.1531,1.1626,1.1701,1.1755,1.1857,1.1952,1.2054,1.2054,1.2128,1.2264,1.2264,1.2264,1.2257,1.2169,1.2094,1.2033,1.183,1.1626,1.1443,1.128,1.1192,1.1124,1.0914,1.0907,1.0995,0.0,0.0,0.0,0.0,0.0,1.5832,1.5832,1.5671,1.5578,1.5671,1.5939,1.6233,1.654,1.7101,1.7609,1.8009,1.8223,1.8263,1.8063,1.7488,1.7021,1.6714,1.6714,1.6901,1.7301,1.8571,1.9265,1.9372,2.0147,2.0735,2.1122,2.1122,2.1122,2.1122,2.1122,2.0895,2.0508,2.0321,1.9733,1.8918,1.8718,1.8036,1.7154,0.0,0.0,0.0,0.0,0.0,0.0,0.0,0.0,0.0,0.0,0.0,0.0,0.0,0.0,0.0,0.0,0.0,0.0,0.0,0.0,0.0,0.0,0.0,0.0,0.0,0.0,0.0,0.0,0.0,0.0,0.0,0.0,0.0,0.0,0.0,0.9998,1.0439,1.05,1.0507,1.0507,1.0683,1.0792,1.0792,1.1118,1.1382,1.1531,1.1538,1.1633,1.1843,1.1938,1.2006,1.2054,1.2155,1.2264,1.2359,1.2359,1.2413,1.2501,1.2501,1.2447,1.2352,1.2359,1.2305,1.221,1.221,1.2094,1.1904,1.1809,1.1708,1.1619,1.1619,1.1552,1.1463,0.0,0.0,0.0,0.0,0.0,1.5832,1.5832,1.5818,1.5912,1.6206,1.6513,1.6807,1.7101,1.7675,1.805,1.8076,1.8597,1.8677,1.8103,1.7502,1.7034,1.674,1.7288,1.7889,1.8531,1.9399,2.0267,2.1136,2.1149,2.1456,2.2031,2.2031,2.2031,2.2031,2.2017,2.1697,2.1149,2.1136,2.0641,1.9786,1.9199,1.8263,1.7221,0.0,0.0,0.0,0.0,0.0,0.0,0.0,0.0,0.0,0.0,0.0,0.0,0.0,0.0,0.0,0.0,0.0,0.0,0.0,0.0,0.0,0.0,0.0,0.0,0.0,0.0,0.0,0.0,0.0,0.0,0.0,0.0,0.0,0.9367,0.991,1.0337,1.0493,1.0778,1.0962,1.0968,1.1233,1.1402,1.1402,1.1545,1.1694,1.1837,1.1837,1.1972,1.2277,1.2284,1.2352,1.2494,1.2501,1.2508,1.2515,1.2515,1.2515,1.2515,1.2515,1.2359,1.2108,1.2386,1.2345,1.2101,1.2386,1.2501,1.2474,1.2189,1.2074,1.2067,1.2067,1.2067,1.206,0.0,0.0,0.0,1.5832,1.5832,1.5832,1.5832,1.5645,1.5551,1.5631,1.6072,1.65,1.6794,1.7555,1.8223,1.8651,1.8824,1.8771,1.8397,1.7796,1.7422,1.7341,1.7716,1.849,1.9733,2.0401,2.1082,2.175,2.1951,2.2365,2.2953,2.2953,2.2953,2.2953,2.2726,2.2418,2.2044,2.183,2.1363,2.0695,2.0107,1.9426,1.8758,0.0,0.0,0.0,0.0,0.0,0.0,0.0,0.0,0.0,0.0,0.0,0.0,0.0,0.0,0.0,0.0,0.0,0.0,0.0,0.0,0.0,0.0,0.0,0.0,0.0,0.0,0.0,0.0,0.0,0.0,0.0,1.147,1.1649,1.028,1.0175,1.0453,1.0921,1.1151,1.1314,1.1423,1.1599,1.1708,1.1708,1.185,1.2006,1.2155,1.1952,1.1918,1.2121,1.2128,1.2196,1.2345,1.2562,1.2725,1.2834,1.2834,1.2834,1.2834,1.2834,1.2793,1.2712,1.2684,1.2623,1.2542,1.2515,1.2501,1.2494,1.2413,1.2318,1.223,1.223,1.2155,1.2013,0.0,0.0,0.0,1.5832,1.5832,1.5832,1.5832,1.5685,1.5578,1.5578,1.6206,1.67,1.6874,1.7809,1.8557,1.8891,1.9038,1.8878,1.8343,1.7849,1.7742,1.813,1.8664,1.9479,2.0575,2.1296,2.1884,2.2352,2.2659,2.3046,2.3514,2.3514,2.3514,2.35,2.3327,2.3073,2.2779,2.2485,2.2084,2.1603,2.1029,2.0147,1.9212,1.9452,1.9038,1.8357,1.8731,1.8784,1.8677,1.8677,0.0,0.0,0.0,0.0,0.0,0.0,0.0,0.0,0.0,0.0,0.0,0.0,0.0,0.0,0.0,0.0,0.0,0.0,0.0,0.0,0.0,0.0,0.0,0.0,1.3188,1.3797,1.2274,1.1916,1.1799,1.1358,1.1443,1.1613,1.1701,1.2618,1.3333,1.3333,1.3491,1.3627,1.358,1.2719,1.2189,1.2155,1.2338,1.242,1.2379,1.2678,1.2874,1.2963,1.2963,1.2963,1.2963,1.2963,1.2888,1.2773,1.2813,1.2752,1.2637,1.2678,1.2657,0.0,0.0,0.0,0.0,0.0,1.2325,1.221,0.0,0.0,0.0,1.5832,1.5832,1.5832,1.5832,1.5832,1.5832,1.5832,1.6593,1.7154,1.7194,1.8237,1.8945,1.8971,1.9185,1.8971,1.8143,1.7742,1.7996,1.9025,1.9813,2.0575,2.1296,2.2071,2.2645,2.302,2.3287,2.3581,2.3875,2.3875,2.3875,2.3875,2.3834,2.3674,2.3407,2.31,2.2766,2.2418,2.1911,2.0708,1.9279,1.976,1.9305,1.849,1.9279,1.9399,1.9158,1.9132,0.0,0.0,0.0,0.0,0.0,0.0,0.0,0.0,0.0,0.0,0.0,0.0,0.0,0.0,0.0,0.0,0.0,0.0,0.0,0.0,0.0,0.0,0.0,0.0,1.4768,1.5822,1.4898,1.4928,1.4271,1.2023,1.1997,1.2178,1.2192,1.4066,1.5436,1.5587,1.5616,1.5727,1.5871,0.0,0.0,0.0,0.0,1.2786,1.2528,1.2834,1.315,1.3325,1.3171,1.3171,1.3325,1.3171,1.2861,1.2617,1.2874,1.2827,1.2596,1.2854,1.2881,1.2739,1.2569,1.2501,1.2494,1.2447,1.2461,1.2494,0.0,0.0,1.5832,1.5832,1.5832,1.5832,1.5832,1.5832,1.5832,1.5832,1.6593,1.7235,1.7475,1.8357,1.9025,1.9265,1.9118,1.8838,1.8437,1.7675,1.805,1.9893,2.0147,2.0949,2.2485,2.2686,2.3153,2.3941,2.4008,2.4182,2.4476,2.4476,2.4476,2.4462,2.4222,2.4088,2.4008,2.3714,2.3273,2.2766,2.2659,2.1977,2.1029,2.0909,2.0722,2.0535,2.0708,2.0735,2.0655,2.0414,2.0174,2.0013,2.0201,0.0,0.0,0.0,0.0,0.0,0.0,0.0,0.0,0.0,0.0,0.0,0.0,0.0,0.0,0.0,0.0,0.0,0.0,0.0,0.0,1.6816,1.8353,1.8857,1.7147,1.8656,1.8498,1.4846,1.458,1.4619,1.4765,1.5142,1.6089,1.7898,1.6726,1.6689,1.8221,1.6274,1.5122,1.5048,1.3465,1.2623,1.2684,1.2983,1.4157,1.5902,0.0,0.0,1.5902,1.4124,1.3281,1.322,1.3159,1.3098,1.3037,1.2983,1.2942,1.2888,1.261,1.2501,1.2461,1.2094,1.2189,1.2447,0.0,1.5832,1.5832,1.5832,1.5832,1.5832,1.5832,1.5712,1.5658,1.5805,1.6473,1.7101,1.7528,1.813,1.8597,1.8905,1.8517,1.8317,1.8477,1.8343,1.8985,2.0601,2.1096,2.1804,2.2846,2.33,2.3754,2.4209,2.4342,2.4489,2.4636,2.4636,2.4636,2.4623,2.4489,2.4422,2.4396,2.4115,2.3808,2.3487,2.3046,2.2605,2.2151,2.155,2.1243,2.1109,2.1109,2.1109,2.1082,2.0949,2.0788,2.0695,2.0842,2.0588,2.012,0.0,0.0,0.0,0.0,0.0,0.0,0.0,0.0,0.0,0.0,0.0,0.0,0.0,0.0,1.85,1.85,0.0,1.838,1.8641,2.016,2.0882,1.969,2.0531,2.0128,1.7054,1.6777,1.6944,1.7046,1.7967,1.9067,2.0255,1.9448,1.9563,2.077,1.8912,1.7738,1.753,1.6738,1.6213,1.6111,1.6334,1.6563,1.6647,1.5514,1.5028,1.5028,1.3887,1.3403,1.3397,1.3322,1.3288,1.3275,1.3125,1.3064,1.3044,1.282,1.2684,1.2589,1.2366,1.2372,1.2467,0.0,0.0,1.5832,1.5832,1.5832,1.5832,1.5832,1.5631,1.5578,1.5872,1.638,1.6901,1.7435,1.7769,1.8036,1.821,1.7782,1.7809,1.8531,1.9065,1.9947,2.1229,2.2017,2.2619,2.3033,2.3808,2.4235,2.4289,2.4516,2.4636,2.4636,2.4636,2.4636,2.4636,2.4636,2.4636,2.4623,2.4382,2.4249,2.4128,2.3354,2.2966,2.2766,2.1951,2.1456,2.1189,2.1136,2.1109,2.1109,2.1109,2.1109,2.1109,2.1109,2.1109,2.0909,1.984,1.9867,0.0,0.0,0.0,0.0,0.0,0.0,0.0,0.0,0.0,1.976,1.9639,1.9947,2.0241,2.0294,2.0748,2.0824,2.0087,2.1565,2.2532,2.1983,2.186,2.1284,1.9637,1.9361,1.9176,1.9176,2.0737,2.1905,2.2585,2.2377,2.2531,2.321,2.1412,2.0264,1.9895,1.9984,1.9796,1.958,1.9836,1.9375,1.8065,1.7572,1.6757,1.5459,1.4961,1.4622,1.4095,1.3576,1.3403,1.339,1.3268,1.3214,1.3207,1.3091,1.2949,1.2813,1.2786,1.2698,1.2589,0.0,0.0,0.0,1.5832,1.5832,1.5832,1.5832,1.5805,1.5885,1.6179,1.65,1.6834,1.7168,1.7462,1.7542,1.7315,1.7235,1.7675,1.8798,1.9185,2.012,2.1817,2.2231,2.2806,2.3647,2.4022,2.4329,2.4596,2.4623,2.4636,2.4636,2.4636,2.4636,2.4636,2.4636,2.4636,2.4636,2.4596,2.4436,2.4168,2.3808,2.334,2.2792,2.2178,2.1764,2.147,2.1203,2.1109,2.1109,2.1109,2.1109,2.1109,2.1109,2.1109,2.0975,2.0334,0.0,1.9973,1.8811,1.7956,0.0,1.8063,1.8584,1.8971,0.0,0.0,2.1162,2.0641,2.1176,2.1817,2.2071,2.2392,2.2739,2.2836,2.3492,2.3904,2.3879,2.4116,2.4127,2.3979,2.2335,2.1291,2.1291,2.165,2.2724,2.4612,2.3507,2.3634,2.5581,2.3757,2.275,2.2692,2.1037,2.017,2.0119,2.0538,2.1493,2.315,2.1326,2.116,2.2819,2.0827,1.8718,1.656,1.4441,1.3403,1.3397,1.3383,1.3376,1.3376,1.3356,1.3261,1.3105,1.2983,1.2922,1.2888,0.0,0.0,0.0,1.5832,1.5832,1.5832,1.5832,1.5685,1.5738,1.6206,1.6233,1.6446,1.7074,1.6954,1.6633,1.6166,1.6446,1.7061,1.8076,1.8905,2.008,2.167,2.2338,2.302,2.3754,2.4222,2.4516,2.4636,2.4636,2.4636,2.4636,2.4636,2.4636,2.4636,2.4636,2.4636,2.4636,2.4636,2.4569,2.4422,2.3955,2.3514,2.3046,2.2285,2.1804,2.1496,2.1029,2.0748,0.0,0.0,2.0748,2.0655,2.1002,2.0882,2.0548,2.0307,2.0,0.0,1.8918,0.0,0.0,0.0,2.0013,2.0708,2.0708,2.1269,2.1777,2.171,2.2124,2.2592,2.2886,2.3046,2.3287,0.0,2.3901,2.4075,2.4409,2.4556,2.4636,2.4636,2.3585,2.2942,2.2942,2.3476,2.4083,2.4836,2.4739,2.5218,2.6199,2.5516,2.5155,2.532,2.4454,2.4263,2.4407,2.4528,2.4411,2.3904,2.3075,2.2411,2.2067,2.1233,2.0179,1.9256,1.8171,1.6918,1.5498,1.5498,1.4622,1.3403,1.3403,1.3363,1.3288,1.3139,1.303,1.2949,0.0,0.0,0.0,1.5832,1.5832,1.5858,1.5939,1.5778,1.5818,1.6326,1.6139,1.6166,1.6727,1.6339,1.5899,1.5551,1.6046,1.6767,1.7649,1.8824,2.0067,2.1376,2.2271,2.2979,2.3514,2.4168,2.4516,2.4516,2.4596,2.4636,2.4636,2.4636,2.4636,2.4636,2.4636,2.4636,2.4636,2.4556,2.4516,2.4462,2.3794,2.3394,2.31,2.2205,2.163,2.1243,2.0735,2.0361,0.0,0.0,2.0227,2.0187,2.0615,2.0561,2.0334,2.0254,1.9826,1.9332,1.9199,0.0,0.0,2.0481,2.1056,2.1737,2.2138,2.2231,2.2338,2.2712,2.2966,2.3207,2.3514,2.3567,2.3741,2.4249,2.4142,2.4155,2.4583,2.4636,2.4583,2.4422,2.4102,2.3768,2.3434,2.4342,2.497,2.4997,2.5665,2.6172,2.6373,2.6466,2.66,2.6814,2.6974,2.7161,2.7388,2.7468,2.6657,2.5139,2.5139,2.4294,2.2777,2.2197,2.183,2.183,2.1097,1.9805,1.8162,1.8162,1.7093,1.5331,1.4622,1.4441,1.4261,1.3617,1.3173,1.3078,0.0,0.0,0.0,0.0,1.5832,1.5925,1.6219,1.6246,1.6353,1.666,1.6433,1.6152,1.5899,1.5605,1.5524,1.5792,1.6353,1.7061,1.7943,1.9118,2.0187,2.1082,2.1964,2.2579,2.2886,2.3768,2.4222,2.4222,2.4502,2.4636,2.4636,2.4636,2.4636,2.4636,2.4636,2.4636,2.4623,2.4342,2.4222,2.4142,2.3247,2.2886,2.2779,2.1897,2.1203,2.0655,2.0361,0.0,0.0,1.9492,1.9586,1.9813,1.9826,2.0214,0.0,2.0321,1.9826,1.9426,0.0,0.0,1.9332,2.0735,2.0895,2.1082,2.2512,2.2832,2.3006,2.3607,2.3741,2.3834,2.4128,2.4182,2.4275,2.4569,2.4609,2.4609,2.4636,2.4636,2.4422,2.3861,2.4035,2.3728,0.0,2.3794,2.4997,2.5852,2.6199,2.6373,2.6386,2.6653,2.6814,2.6827,2.7375,2.7682,2.7682,2.7976,2.811,2.811,2.811,2.811,2.7928,2.542,2.4448,2.4268,2.184,2.0731,2.0721,2.0721,2.0721,2.0356,1.7987,1.6918,1.6734,1.4268,1.339,1.3363,0.0,0.0,0.0,0.0,0.0,1.6219,1.6513,1.6393,1.6313,1.6406,1.6166,0.0,0.0,0.0,0.0,0.0,1.5832,1.638,1.7649,1.8477,1.9506,2.0762,2.167,2.2271,2.2565,2.326,2.3621,2.3621,2.3915,2.4155,2.4342,2.4342,2.4449,2.4623,2.4436,2.4342,2.4329,2.4035,2.3808,2.3581,2.3073,2.2632,2.2178,2.1309,2.0601,2.0027,0.0,0.0,1.8918,1.8824,1.8851,1.8998,1.9386,1.9386,1.9172,1.8878,1.9332,1.984,0.0,0.0,2.1029,2.1323,2.1924,2.2619,2.3313,2.346,2.3581,2.3981,2.3754,2.3567,2.3861,2.3581,2.3474,2.3981,2.3728,2.3741,2.4529,2.4128,2.3981,2.4569,2.4209,0.0,0.0,0.0,0.0,2.4796,2.5785,2.6466,2.6667,2.6774,2.7001,2.7388,2.7602,2.7789,2.7989,2.8096,2.8136,2.8136,2.8136,2.8136,2.8136,2.7343,2.6955,2.6955,2.5999,2.4831,2.3146,2.1621,2.0864,2.0564,1.8139,1.7281,1.7087,1.6243,1.487,1.3532,0.0,0.0,0.0,0.0,0.0,0.0,0.0,0.0,0.0,0.0,0.0,0.0,0.0,0.0,0.0,0.0,0.0,1.6206,1.7355,1.7996,1.8851,2.0,2.0695,2.1136,2.1323,2.2124,2.2539,2.2539,2.326,2.3714,2.3888,2.3995,2.4155,2.4315,2.4128,2.3995,2.3875,2.3567,2.334,2.31,2.2378,2.1924,2.1577,2.0695,2.0,0.0,0.0,1.8584,1.833,1.833,1.8397,1.8557,1.8931,1.8945,1.8824,1.8945,1.9573,2.0201,0.0,2.1056,2.2178,2.2311,2.2926,2.3567,2.3861,2.3928,2.4008,2.4302,2.4062,2.3754,2.3634,2.338,2.3273,2.3567,2.338,2.3567,2.4636,2.4302,2.4195,2.485,2.4516,2.4529,0.0,0.0,0.0,2.4703,2.5638,2.6319,2.6507,2.6707,2.7094,2.7682,2.7802,2.7949,2.8136,2.8136,2.8136,2.8136,2.8136,2.8136,2.8136,2.8136,2.7976,2.7682,2.8003,2.7174,2.5219,2.3123,2.2288,2.1811,1.8685,1.7307,1.729,1.6261,1.5034,1.3675,0.0,0.0,0.0,0.0,0.0,0.0,0.0,0.0,0.0,0.0,0.0,0.0,0.0,0.0,0.0,0.0,0.0,0.0,1.7114,1.7702,1.829,1.8891,1.9199,1.9359,1.9372,2.0441,2.1002,2.1015,2.2445,2.3153,2.318,2.3474,2.3621,2.3634,2.3621,2.346,2.3166,2.2859,2.2726,2.2579,2.1189,2.0802,2.0949,2.008,1.9412,1.8878,1.8597,1.8303,1.805,1.8023,1.825,1.8544,1.8571,1.8958,1.9573,2.0414,2.0494,2.0561,2.1683,2.2231,2.2699,2.3567,2.3794,2.3875,2.4155,2.4222,2.4289,2.4543,2.4556,2.4262,0.0,0.0,2.3527,2.3313,2.35,2.3995,2.4903,2.5037,2.4943,0.0,0.0,0.0,0.0,0.0,0.0,2.5545,0.0,2.6012,2.6039,2.656,2.7134,2.7709,2.7989,2.8136,2.8136,2.8136,2.8136,2.8136,2.8136,2.8136,2.8136,2.8136,2.7682,2.6934,2.7776,2.7669,2.6786,2.524,2.4691,2.4314,1.9628,1.7673,1.7312,1.4922,1.3851,1.381,0.0,0.0,0.0,0.0,0.0,0.0,0.0,0.0,0.0,0.0,0.0,0.0,0.0,0.0,0.0,0.0,0.0,0.0,1.7101,1.7502,1.8063,1.8891,1.8998,1.9145,1.9359,1.9439,1.9586,1.9813,2.0414,2.0815,2.1029,2.1323,2.1577,2.1777,2.1563,2.1416,2.1336,2.1029,2.0775,2.0548,2.0174,2.0067,2.0067,1.9399,1.9052,1.8878,1.8597,0.0,0.0,0.0,0.0,0.0,0.0,1.9893,2.0054,2.0281,2.0909,2.1603,2.1911,2.2699,2.3527,2.3981,2.4088,2.4168,2.4462,2.4529,2.4422,2.4062,2.3447,2.2779,0.0,0.0,0.0,2.2485,2.2539,0.0,2.4235,2.4422,0.0,2.493,0.0,2.5518,2.5798,2.6226,0.0,0.0,2.6306,2.6787,2.7228,2.7402,2.7642,2.8016,2.8096,2.8136,2.8136,2.8136,2.8136,2.8136,2.8136,2.8136,2.8136,2.8136,2.8016,2.7816,2.8043,2.8016,2.7649,2.564,2.5726,2.6914,2.2021,2.0278,1.9904,1.7484,1.5549,1.3987,0.0,0.0,0.0,0.0,0.0,0.0,0.0,0.0,0.0,0.0,0.0,0.0,0.0,0.0,0.0,0.0,0.0,0.0,0.0,1.7114,1.7542,1.8303,1.821,1.8223,1.8384,1.8357,1.8477,1.8784,1.9212,1.9573,1.9853,2.0027,2.0254,2.0521,2.0361,2.0294,2.0281,2.0107,1.9947,0.0,0.0,1.9386,1.9546,1.8958,1.8811,1.8878,0.0,0.0,0.0,0.0,0.0,1.9559,2.0655,2.0909,2.0909,2.1443,0.0,2.2458,2.2846,2.3447,2.4035,2.4329,2.4396,2.4329,2.4115,2.4062,2.3861,2.314,2.2579,0.0,2.1296,2.0869,0.0,0.0,0.0,0.0,2.4209,2.4502,2.4756,0.0,2.5531,0.0,2.652,2.6841,2.6934,0.0,2.6787,2.6961,2.7295,2.7442,2.7696,2.8123,2.8136,2.8136,2.8136,2.8136,2.8136,2.8136,2.8136,2.8136,2.8136,2.8136,2.7936,2.7589,0.0,2.7923,2.7423,2.5579,2.5556,2.6236,2.26,2.0529,1.9479,1.8165,1.6238,1.4156,0.0,0.0,0.0,0.0,0.0,0.0,0.0,0.0,0.0,0.0,1.6473,1.646,0.0,0.0,0.0,0.0,0.0,0.0,0.0,0.0,1.6967,1.7555,1.7301,1.7271,1.7208,1.7382,1.7622,1.7929,1.8437,1.8824,1.9078,1.9118,1.9265,1.9506,1.9506,1.9506,1.9506,1.9506,1.9506,1.9439,1.8677,1.8731,1.9199,0.0,0.0,0.0,0.0,0.0,0.0,0.0,2.0174,1.984,2.1563,2.1964,2.1977,2.2979,2.3153,2.3207,2.3941,2.4209,2.4329,2.4569,2.4636,2.4436,2.3674,2.3407,2.3086,2.2218,0.0,2.159,2.0869,2.0909,2.1256,2.1884,0.0,2.3207,2.4195,2.477,2.517,2.5424,2.5758,2.6199,2.6814,2.7081,2.7348,2.7669,2.7268,2.7001,2.7001,2.7241,2.7615,2.8123,2.8136,2.8136,2.8136,2.8136,2.8136,2.8136,2.8136,2.8136,2.8136,2.8136,2.7722,2.7041,2.7802,2.7709,2.6892,2.56,2.5203,2.4861,2.26,2.0529,1.8627,1.8104,1.6553,1.4646,0.0,0.0,0.0,0.0,0.0,0.0,0.0,0.0,0.0,0.0,1.6166,1.6313,0.0,0.0,0.0,0.0,0.0,0.0,0.0,0.0,0.0,1.7555,1.7301,1.7261,1.7502,1.7088,1.7007,1.7301,1.7408,1.7488,1.7542,1.7782,1.7916,1.7969,1.7969,1.7969,1.7969,1.7969,1.7969,1.7956,1.7796,1.8103,1.8637,0.0,0.0,0.0,0.0,0.0,0.0,0.0,2.0575,2.0708,2.2231,2.2846,2.3006,2.2953,2.3434,2.3955,2.3875,2.4195,2.4569,2.4623,2.4636,2.4596,2.4449,2.3848,0.0,0.0,2.1577,2.0935,2.1015,2.0882,2.1015,2.1857,2.2485,2.2846,2.2806,2.4115,2.5104,0.0,0.0,0.0,0.0,0.0,0.0,0.0,2.7829,2.7909,2.7909,2.7963,2.8043,2.8136,2.8136,2.8136,2.8136,2.8136,2.8136,2.8136,2.8136,2.8136,2.8136,2.8136,2.8056,2.7923,2.8083,0.0,2.7923,2.7733,2.7617,2.7279,2.5032,2.3824,2.2955,1.9141,1.7588,1.6896,0.0,0.0,0.0,0.0,0.0,0.0,0.0,1.6486,1.6326,1.5885,1.5818,1.5872,1.6019,1.5912,1.5832,0.0,0.0,0.0,0.0,0.0,0.0,0.0,0.0,0.0,1.7582,1.7154,0.0,0.0,0.0,1.6994,1.7154,0.0,0.0,1.7355,1.7355,1.7435,1.7582,1.7582,1.7582,1.7582,1.7582,1.7943,0.0,0.0,0.0,0.0,0.0,0.0,0.0,0.0,2.012,2.0334,2.2258,2.318,2.346,2.3006,2.3607,2.4329,2.3888,2.4195,2.4636,2.4636,2.4636,2.4396,2.346,0.0,0.0,0.0,2.0388,2.004,2.0174,1.996,0.0,2.1937,2.2445,2.2899,2.3688,2.4676,0.0,2.5518,2.5919,2.64,0.0,0.0,0.0,2.7455,2.7602,2.7816,2.8123,2.8136,2.8136,2.8136,2.8136,2.8136,2.8136,2.8136,2.8136,2.8136,2.8136,2.8136,2.8136,2.8136,2.8136,2.8136,2.8136,0.0,2.7495,2.7949,2.7869,2.733,2.6761,2.5726,2.4508,2.2267,1.9836,1.7588,0.0,0.0,0.0,0.0,0.0,0.0,1.642,1.6259,1.6072,1.5778,1.5591,1.5551,1.5712,1.5738,1.5765,0.0,0.0,0.0,0.0,0.0,0.0,0.0,0.0,0.0,0.0,0.0,0.0,0.0,0.0,0.0,0.0,0.0,0.0,0.0,0.0,0.0,1.7582,1.7582,1.7582,0.0,0.0,0.0,0.0,0.0,0.0,0.0,0.0,0.0,0.0,0.0,1.9506,1.9706,2.1683,2.2792,2.3313,2.2966,2.3621,2.4382,2.4048,2.4289,2.4636,2.4636,2.4636,2.4222,2.2632,2.2124,0.0,0.0,1.9492,1.9426,1.9613,0.0,1.9987,0.0,2.2311,2.2832,2.4556,2.4997,2.5371,0.0,2.6253,0.0,2.7054,2.7201,0.0,2.7442,2.7455,2.7655,2.8123,2.8136,2.8136,2.8136,2.8136,2.8136,2.8136,2.8136,2.8136,2.8136,2.8136,2.8136,2.8136,2.8136,2.8136,2.8136,2.8136,0.0,0.0,2.7776,2.7615,2.6907,2.7802,2.7096,2.5373,2.4861,2.2439,1.915,0.0,0.0,0.0,0.0,0.0,0.0,1.6633,1.6219,1.5765,1.5471,1.5645,1.5698,1.5458,1.5431,1.5538,0.0,0.0,0.0,0.0,0.0,0.0,0.0,0.0,0.0,0.0,0.0,0.0,0.0,0.0,0.0,0.0,0.0,0.0,0.0,0.0,0.0,0.0,1.7582,0.0,0.0,0.0,0.0,0.0,0.0,0.0,0.0,0.0,0.0,0.0,0.0,0.0,1.9492,2.0241,2.1243,2.2245,2.2726,0.0,0.0,2.4422,2.4596,2.4636,2.4636,2.4636,2.4382,2.342,0.0,0.0,2.0748,1.992,1.9613,2.0414,2.0535,0.0,0.0,0.0,2.2164,2.3674,2.3915,2.4529,2.6159,0.0,0.0,2.7909,2.7562,0.0,2.8016,2.8056,2.8083,2.8136,2.8136,2.8136,2.8136,2.8136,2.8136,2.8136,2.8136,2.8136,2.8136,2.8136,2.8136,2.8136,2.8136,2.8136,2.8136,2.8136,2.7642,0.0,2.7776,2.7615,2.6907,2.7802,2.8136,2.763,2.5556,2.4508,2.347,0.0,0.0,0.0,0.0,0.0,0.0,1.6192,1.5979,1.5792,1.5671,1.5605,1.5524,1.5404,1.5391,1.5511,1.5805,0.0,0.0,0.0,0.0,0.0,0.0,0.0,0.0,0.0,0.0,0.0,1.7582,0.0,0.0,0.0,0.0,0.0,0.0,0.0,0.0,0.0,0.0,0.0,0.0,0.0,0.0,0.0,0.0,0.0,0.0,0.0,0.0,0.0,0.0,0.0,0.0,1.9052,1.9626,0.0,0.0,2.2338,2.3273,2.35,2.4088,2.4636,2.4636,2.4636,2.4262,2.2846,0.0,2.159,2.0174,1.9613,1.9479,1.9826,1.9746,0.0,0.0,0.0,0.0,2.3981,2.4289,2.4943,2.6707,2.6921,0.0,0.0,0.0,2.7362,2.7602,2.7615,2.7776,2.8123,2.8136,2.8136,2.8136,2.8136,2.8136,2.8136,2.8136,2.8136,2.8136,2.8136,2.8136,2.8136,2.8136,2.8136,2.8136,2.8136,2.7348,0.0,2.7562,2.7308,2.6172,2.7589,2.8136,2.8136,2.7109,2.5896,2.4166,0.0,0.0,0.0,0.0,0.0,1.6099,1.5979,1.5818,1.5698,1.5698,1.5524,1.5364,1.5284,1.5418,1.5578,1.5698,1.5778,0.0,0.0,0.0,0.0,0.0,0.0,0.0,0.0,0.0,1.7582,1.7582,1.7582,1.7582,0.0,0.0,0.0,0.0,0.0,0.0,0.0,0.0,0.0,0.0,0.0,0.0,0.0,0.0,0.0,0.0,0.0,0.0,0.0,0.0,0.0,0.0,0.0,0.0,0.0,0.0,2.1523,2.2659,2.2926,2.3794,2.4636,2.4636,2.4436,2.3848,0.0,0.0,2.1176,1.9679,1.9372,1.9372,1.9372,1.9199,1.9533,2.1002,0.0,2.1737,2.4062,2.4382,2.4997,2.668,0.0,2.7054,0.0,2.7522,2.7522,2.7522,2.7522,2.7709,2.8123,2.8136,2.8136,2.8136,2.8136,2.8136,2.8136,2.8136,2.8136,2.8136,2.8136,2.8056,2.7896,2.8056,2.8043,2.7896,2.807,2.7295,0.0,2.7522,2.7255,2.6052,2.7549,2.8136,2.8136,2.8136,2.7109,2.5373,0.0,0.0,0.0,0.0,0.0,0.0,1.6219,1.5778,1.5404,1.5404,1.5404,1.5284,1.5003,1.5484,1.5712,1.5431,1.5658,0.0,0.0,0.0,0.0,0.0,0.0,0.0,0.0,0.0,1.7582,1.7582,1.7582,1.7582,1.7582,1.7582,1.7582,0.0,0.0,0.0,0.0,0.0,0.0,0.0,0.0,0.0,0.0,0.0,0.0,0.0,0.0,0.0,0.0,0.0,0.0,0.0,0.0,1.7595,1.7943,0.0,2.1069,2.2191,2.3086,2.3968,2.4636,2.4636,2.3981,2.31,0.0,0.0,2.0441,1.9546,1.9372,1.9372,1.9372,1.9359,1.984,2.1309,2.155,2.2071,2.3567,2.3781,2.4329,0.0,0.0,2.6547,2.7989,2.8136,2.8136,2.8136,2.8136,0.0,2.8136,2.8136,2.8136,2.8136,2.8136,2.8136,2.8136,2.8136,2.8136,2.8136,2.8136,2.7843,2.7295,2.7883,2.7829,2.7308,2.7896,2.7642,0.0,2.7776,2.7615,2.6894,2.7789,2.8136,2.8136,2.8136,2.8136,2.7448,0.0,0.0,0.0,0.0,0.0,0.0,1.5952,1.5818,1.5698,1.5698,1.5698,1.5578,1.5297,1.5605,1.5712,1.5418,1.5845,0.0,0.0,0.0,0.0,0.0,0.0,0.0,0.0,0.0,1.7582,1.7582,1.7582,1.7582,1.7582,1.7582,1.7582,1.7582,1.7582,0.0,0.0,0.0,0.0,0.0,0.0,0.0,0.0,0.0,0.0,0.0,0.0,0.0,0.0,0.0,0.0,0.0,0.0,0.0,0.0,1.8263,1.9399,2.0641,2.1336,2.2151,2.2819,2.2819,2.2619,2.2178,2.1296,2.0882,2.0428,1.9546,1.9372,1.9372,1.9372,1.9372,1.9786,2.1042,2.1256,2.1977,0.0,0.0,0.0,2.6653,2.7201,2.7629,0.0,0.0,2.7709,2.811,2.7776,2.7722,2.8123,2.8136,2.8136,2.8136,2.8136,2.8136,2.8136,2.8136,2.8136,2.8136,2.8136,2.7722,2.6987,2.7789,2.7709,2.7001,2.7802,2.7642,0.0,2.7776,2.7615,2.6907,2.7802,2.8136,2.8136,2.8136,2.8136,2.7799,0.0,0.0,0.0,0.0,0.0,0.0,1.5832,1.5832,1.5832,1.5832,1.5832,1.5712,1.5431,1.5752,1.5832,1.5431,1.6139,0.0,0.0,0.0,0.0,0.0,0.0,0.0,1.7582,1.7582,1.7582,1.7582,1.7475,1.7475,1.7582,1.7475,1.7475,1.7582,1.7582,1.7582,0.0,0.0,0.0,0.0,0.0,0.0,1.6834,0.0,0.0,0.0,0.0,0.0,0.0,0.0,0.0,0.0,0.0,0.0,0.0,0.0,1.8237,1.9319,2.012,2.1149,2.1991,2.1991,2.1737,2.1349,2.0802,0.0,2.0027,1.9479,1.9626,1.976,1.9426,1.9639,2.0067,2.0681,0.0,0.0,0.0,0.0,0.0,2.6119,0.0,0.0,0.0,2.7816,2.7749,2.811,2.7802,2.7749,2.8123,2.8136,2.8136,2.8136,2.8136,2.8136,2.8136,2.8136,2.8136,2.8136,2.8136,2.7736,2.7014,2.7789,2.7722,2.7028,2.7802,2.7829,0.0,2.7909,2.7816,2.7375,2.7923,2.8136,2.8136,2.8136,2.8136,2.7799,0.0,0.0,0.0,0.0,0.0,0.0,0.0,1.5845,1.5845,1.5832,1.5845,1.5752,1.5458,1.5912,1.6019,1.5471,1.6446,0.0,0.0,0.0,0.0,0.0,0.0,0.0,1.7582,1.7582,1.7582,1.7582,1.7315,1.7315,1.7569,1.7315,1.7328,1.7582,1.7582,1.7582,0.0,0.0,0.0,0.0,1.7128,1.678,0.0,0.0,0.0,0.0,0.0,0.0,0.0,0.0,0.0,0.0,0.0,0.0,0.0,0.0,0.0,0.0,0.0,2.0668,2.1777,2.179,2.1189,2.0588,2.0588,0.0,0.0,1.9452,2.0107,2.0428,1.9613,2.0174,2.0668,0.0,0.0,0.0,0.0,2.3327,0.0,0.0,2.6253,0.0,2.803,2.8123,2.8136,2.8136,2.8136,2.8136,2.8136,2.8136,2.8136,2.8136,2.8136,2.8136,2.8136,2.8136,2.811,2.8056,2.811,2.7789,2.7161,2.7843,2.7816,0.0,2.7883,2.8136,0.0,2.8136,2.8136,2.8136,2.8136,2.8136,2.8136,2.8136,2.8136,2.7968,0.0,0.0,0.0,0.0,0.0,0.0,0.0,0.0,0.0,0.0,1.6032,1.6059,1.5765,1.5845,1.5872,0.0,0.0,0.0,0.0,0.0,0.0,0.0,0.0,0.0,1.7582,1.7582,1.7582,1.7582,1.7515,1.7515,1.7582,1.7515,1.7515,1.7582,1.7582,1.7582,0.0,0.0,0.0,0.0,1.6901,1.6593,0.0,0.0,0.0,0.0,1.6967,1.7194,0.0,0.0,0.0,0.0,0.0,0.0,0.0,0.0,1.7221,1.7702,1.7756,0.0,1.9693,1.9933,1.9826,1.9679,0.0,0.0,0.0,0.0,0.0,2.0615,2.0401,2.1082,2.1577,0.0,0.0,0.0,2.3394,0.0,0.0,0.0,0.0,0.0,2.7509,2.7883,2.8136,2.8136,2.8136,2.8136,2.8136,2.8136,2.8136,2.8136,2.8136,2.8136,2.8136,2.8136,2.7802,2.7134,2.7816,2.7362,2.5972,2.7468,2.7696,2.6974,2.7789,2.8136,2.8136,2.8136,2.8136,2.8136,2.8136,2.8136,2.8136,2.8136,2.8136,2.8136,0.0,0.0,0.0,0.0,0.0,0.0,0.0,0.0,0.0,0.0,1.6086,1.6152,1.5858,1.6192,1.6273,0.0,0.0,0.0,0.0,0.0,0.0,0.0,0.0,1.7582,1.7582,1.7582,1.7582,1.7582,1.7448,1.7448,1.7582,1.7448,1.7462,1.7582,1.7582,1.7582,1.7569,0.0,0.0,0.0,1.662,0.0,0.0,0.0,0.0,0.0,1.678,1.7034,0.0,1.7488,1.7582,1.7555,0.0,0.0,0.0,0.0,1.7034,1.7408,1.7515,1.8223,1.9065,1.9626,1.9559,1.9466,1.988,0.0,0.0,0.0,0.0,2.0508,2.0655,2.1176,0.0,0.0,2.2071,0.0,0.0,0.0,0.0,2.5531,2.66,2.7321,0.0,2.7802,2.8136,2.8136,2.8136,2.8136,2.8136,2.8136,2.8136,2.8136,2.8136,2.8136,2.8136,2.8136,2.7696,2.6827,2.7722,2.7428,2.6159,2.7522,2.7883,2.7428,2.7509,2.7762,2.811,2.7709,2.7776,2.8136,2.8136,2.8136,2.8136,2.8136,2.8136,2.8136,0.0,0.0,0.0,0.0,0.0,0.0,0.0,0.0,0.0,0.0,0.0,0.0,0.0,0.0,0.0,0.0,0.0,0.0,0.0,0.0,0.0,0.0,1.7582,1.7582,1.7582,1.7582,1.7555,1.7515,1.7275,1.7248,1.7448,1.7248,1.7275,1.7515,1.7515,1.7488,1.7435,1.7181,0.0,0.0,1.6366,0.0,0.0,0.0,0.0,0.0,0.0,0.0,0.0,1.7475,1.7582,1.7528,1.7235,0.0,0.0,0.0,0.0,0.0,1.7742,1.8357,1.9092,2.0054,1.9826,1.9599,2.0481,0.0,0.0,0.0,0.0,0.0,0.0,2.1336,0.0,0.0,0.0,0.0,2.4075,2.5024,2.5585,2.5585,2.6213,0.0,2.7228,2.7802,2.8136,2.8136,2.8136,2.8136,2.8136,2.8136,2.8136,2.8136,2.8136,2.8136,2.8136,2.8136,2.7696,2.6827,2.7722,2.7682,2.6854,2.7736,2.8136,2.8096,0.0,0.0,2.8083,2.7335,2.7468,2.8136,2.8136,2.8136,2.8136,2.8136,2.8136,2.8136,0.0,0.0,0.0,0.0,0.0,0.0,0.0,0.0,0.0,0.0,0.0,0.0,0.0,0.0,0.0,0.0,0.0,0.0,0.0,0.0,0.0,1.7569,1.7582,1.7582,1.7582,1.7582,1.7462,1.7208,1.7168,1.7048,1.6847,1.7048,1.7181,1.7208,1.7208,1.7074,1.6834,1.6794,1.6607,1.6339,1.6286,0.0,0.0,0.0,0.0,0.0,0.0,0.0,0.0,1.7395,1.7582,1.7528,1.7235,0.0,0.0,0.0,0.0,0.0,1.7194,1.7903,1.8891,2.0267,1.9987,1.9599,2.0481,0.0,0.0,0.0,0.0,0.0,0.0,2.326,0.0,0.0,0.0,0.0,0.0,0.0,2.5892,2.5892,0.0,2.7709,2.7308,2.7802,2.8136,2.8136,2.8136,2.8136,2.8136,2.8136,2.8136,2.8136,2.8136,2.8136,2.8136,2.8136,2.7696,2.6827,2.7722,2.7682,2.6854,2.7736,2.8136,2.8136,0.0,2.8016,2.8136,2.7989,2.8016,2.8136,2.8136,2.8136,2.8136,2.8136,2.8136,2.8136,0.0,0.0,0.0,0.0,0.0,0.0,0.0,0.0,0.0,0.0,0.0,0.0,0.0,0.0,0.0,0.0,0.0,0.0,0.0,0.0,1.7435,1.7569,1.7582,1.7582,1.7582,1.7582,1.7435,1.7154,1.7154,1.6994,1.6714,1.6847,1.6994,1.7141,1.6981,1.6834,1.67,1.654,1.6393,1.6259,0.0,0.0,0.0,0.0,0.0,0.0,0.0,0.0,0.0,0.0,1.7582,1.7502,1.7048,0.0,0.0,0.0,0.0,0.0,1.7462,1.805,1.8958,2.0895,2.0361,1.9853,2.1683,0.0,0.0,0.0,0.0,0.0,0.0,0.0,0.0,0.0,0.0,0.0,2.5331,2.5838,2.6306,0.0,0.0,2.7562,2.7295,2.7802,2.8136,2.8136,2.8136,2.8136,2.8136,2.8136,2.8136,2.8136,2.8136,2.8136,2.8136,2.8136,2.7696,2.6827,2.7722,2.7682,2.6854,2.7736,2.8136,2.8123,0.0,2.7696,2.811,2.7629,2.7709,2.8136,2.8136,2.8136,2.8136,2.8136,2.8136,2.8136,0.0,0.0,0.0,0.0,0.0,0.0,0.0,0.0,0.0,0.0,0.0,0.0,0.0,0.0,0.0,0.0,0.0,0.0,0.0,1.7422,1.7582,1.7582,1.7582,1.7582,1.7582,1.7515,1.7341,1.7048,1.6981,1.686,1.67,1.6633,1.6767,1.7034,1.674,1.6567,1.6486,1.6259,1.6166,1.6152,0.0,0.0,0.0,0.0,0.0,0.0,0.0,0.0,0.0,0.0,0.0,0.0,0.0,0.0,0.0,1.6259,1.642,1.6887,1.7716,1.821,1.8998,2.1149,0.0,2.0067,2.2726,0.0,0.0,0.0,0.0,0.0,0.0,2.2378,0.0,0.0,0.0,0.0,0.0,2.652,2.6894,2.7415,2.7468,2.7468,2.7468,2.7883,2.8136,2.8136,2.8136,2.8136,2.8136,2.8136,2.8136,2.8136,2.8136,2.8136,2.8136,2.8136,2.7802,2.7134,2.7816,2.7789,2.7161,2.7829,2.8136,2.811,2.7428,2.7522,2.8096,2.7415,2.7535,2.8136,2.8136,2.8136,2.8136,2.8136,2.8136,2.8136,0.0,0.0,0.0,0.0,0.0,0.0,0.0,0.0,0.0,0.0,0.0,0.0,0.0,0.0,0.0,0.0,0.0,0.0,0.0,1.7422,1.7582,1.7582,1.7582,1.7582,1.7582,1.7315,1.7034,1.674,1.6473,1.646,1.67,1.6433,1.646,1.6727,1.6433,1.6152,1.5885,1.5872,1.5858,1.5858,1.5832,0.0,0.0,0.0,0.0,0.0,0.0,0.0,0.0,0.0,0.0,0.0,0.0,0.0,1.6246,1.5952,1.6259,1.6834,1.7448,1.805,1.8865,2.0388,2.0067,0.0,2.2726,0.0,0.0,0.0,0.0,0.0,0.0,0.0,2.3915,2.4836,2.5545,2.6266,2.7054,0.0,2.7722,2.8043,2.8083,2.8083,2.8083,2.8123,2.8136,2.8136,2.8136,2.8136,2.8136,2.8136,2.8136,2.8136,2.8136,2.8136,2.8136,2.8136,2.811,2.8043,2.811,2.811,2.8056,2.811,2.8136,2.8136,2.8083,2.8083,2.8136,2.807,2.8083,2.8136,2.8136,2.8136,2.8136,2.8136,2.8136,2.8136,0.0,0.0,0.0,0.0,0.0,0.0,0.0,0.0,0.0,0.0,0.0,0.0,0.0,0.0,0.0,0.0,0.0,0.0,0.0,1.7515,1.7582,1.7582,1.7582,1.7502,1.7315,1.7208,1.6914,1.6433,1.6326,1.642,1.67,1.6406,1.6433,1.6687,1.6206,1.5939,1.5832,1.5832,1.5832,1.5845,1.6032,1.6112,0.0,0.0,0.0,0.0,0.0,0.0,0.0,0.0,1.7021,1.6807,1.6393,1.6273,1.6219,1.5912,1.638,1.7074,1.7475,1.8156,1.9199,2.1029,0.0,0.0,0.0,0.0,0.0,0.0,0.0,0.0,0.0,0.0,2.4756,2.5264,2.5999,2.668,2.7188,2.7509,2.7802,2.811,2.8136,2.8136,2.8136,2.8136,2.8136,2.8136,2.8136,2.8136,2.8136,2.8136,2.8136,2.8136,2.8136,2.8136,2.8136,2.8136,2.8136,2.8136,2.8136,2.8136,2.8136,2.8136,2.8136,2.8136,2.8136,2.8136,2.8136,2.8136,2.8136,2.8136,2.8136,2.8136,2.8136,2.8136,2.8136,2.8136,0.0,0.0,0.0,0.0,0.0,0.0,0.0,0.0,0.0,0.0,0.0,0.0,0.0,0.0,0.0,0.0,0.0,0.0,1.7569,1.7582,1.7582,1.7582,1.7582,1.7448,1.7257,1.7154,1.686,1.6273,1.6179,1.6326,1.67,1.6406,1.6433,1.6687,1.6286,1.6112,1.6112,1.6112,1.6112,1.6126,1.6326,1.6406,0.0,0.0,0.0,0.0,0.0,0.0,0.0,0.0,1.674,1.6513,1.6219,1.6126,1.6126,1.6112,1.6607,1.7248,1.7742,1.8384,1.9345,0.0,0.0,0.0,0.0,0.0,0.0,0.0,0.0,0.0,0.0,0.0,0.0,0.0,2.6119,2.6827,2.7215,2.7602,2.7909,2.8123,2.8136,2.8136,2.8136,2.8136,2.8136,2.8136,2.8136,2.8136,2.8136,2.8136,2.8136,2.8136,2.8136,2.8136,2.8136,2.8136,2.8136,2.8136,2.8136,2.8136,2.8136,2.8136,2.8136,2.8136,2.8136,2.8136,2.8136,2.8136,2.8136,2.8136,2.8136,2.8136,2.8136,2.8136,2.8136,2.8136,0.0,0.0,0.0,0.0,0.0,0.0,0.0,0.0,1.5832,1.5832,1.6086,0.0,0.0,0.0,0.0,0.0,0.0,0.0,1.7582,1.7582,1.7582,1.7582,1.7582,1.7448,1.7257,1.7141,1.686,1.6273,1.5979,1.6126,1.67,1.6406,1.6433,1.67,1.6714,1.6714,1.67,1.6714,1.6714,1.67,1.6714,1.6714,1.6714,0.0,0.0,0.0,0.0,0.0,0.0,0.0,1.6273,1.6219,1.5925,1.5832,1.5952,1.654,1.6927,1.7355,1.8263,1.8704,1.9212,0.0,0.0,0.0,0.0,0.0,0.0,0.0,0.0,0.0,0.0,0.0,0.0,2.513,2.5825,2.66,2.7188,2.7776,2.8136,2.8136,2.8136,2.8136,2.8136,2.8136,2.8136,2.8136,2.8136,2.8136,2.8136,2.8136,2.8136,2.8136,2.8136,2.8136,2.8136,2.8136,2.8136,2.8136,2.8136,2.8136,2.8136,2.8136,2.8136,2.8136,2.8136,2.8136,2.8136,2.8136,2.8136,2.8136,2.8136,2.8136,2.8136,2.8136,2.8136,2.8136,0.0,0.0,0.0,0.0,0.0,0.0,0.0,0.0,1.5899,1.6112,1.6219,0.0,0.0,0.0,0.0,0.0,0.0,0.0,1.7582,1.7582,1.7582,1.7582,1.7582,1.7448,1.7257,1.674,1.6446,1.6273,1.6179,1.6233,1.6406,1.6526,1.662,1.674,1.7368,1.7301,1.674,1.7382,1.7288,1.6727,1.6941,1.7021,1.7048,0.0,0.0,0.0,0.0,0.0,0.0,0.0,0.0,0.0,1.5858,1.5979,1.6339,1.7355,1.7702,1.7996,1.9105,1.9319,0.0,0.0,0.0,0.0,0.0,0.0,0.0,0.0,0.0,0.0,0.0,0.0,0.0,2.5745,2.6426,2.7134,2.7522,2.7896,2.8136,2.8136,2.8136,2.8136,2.8136,2.8136,2.8136,2.8136,2.8136,2.8136,2.8136,2.8136,2.8136,2.8136,2.8136,2.8136,2.8136,2.8136,2.8136,2.8136,2.8136,2.8136,2.8136,2.8136,2.8136,2.8136,2.8136,2.8136,2.8136,2.8136,2.8136,2.8136,2.8136,2.8136,2.8136,2.8136,2.8136,2.8136,0.0,0.0,0.0,0.0,0.0,0.0,0.0,0.0,1.6072,1.6246,1.6473,1.6754,0.0,0.0,0.0,0.0,0.0,0.0,0.0,1.7582,1.7582,1.7582,1.7582,1.7448,1.7257,1.6687,1.6393,1.6273,1.6152,1.6219,1.6446,1.662,1.6767,1.6914,1.7569,1.7555,1.7088,1.7635,1.7555,1.7074,1.7248,1.7328,1.7341,0.0,0.0,0.0,0.0,0.0,0.0,0.0,0.0,0.0,1.6005,1.6526,1.7275,1.7862,1.8357,1.8931,1.9893,2.0027,0.0,0.0,0.0,0.0,0.0,0.0,0.0,0.0,0.0,0.0,0.0,2.5999,0.0,2.6333,2.6934,2.7495,2.7669,2.7949,2.8136,2.8136,2.8136,2.8136,2.8136,2.8136,2.8136,2.8136,2.8136,2.8136,2.8136,2.8136,2.8136,2.8136,2.8136,2.8136,2.8136,2.8136,2.8136,2.8136,2.8136,2.8136,2.8136,2.8136,2.8136,2.8136,2.8136,2.8136,2.8136,2.8136,2.8136,2.8136,2.8136,2.8136,2.8136,2.8136,2.8136,2.8136,0.0,0.0,1.5832,1.5832,0.0,0.0,0.0,0.0,1.6326,1.6353,1.682,1.7154,0.0,0.0,0.0,0.0,0.0,0.0,0.0,1.7582,1.7582,1.7582,1.7582,1.7448,1.7257,1.686,1.658,1.6313,1.6019,1.6139,1.666,1.6727,1.6887,1.7271,1.7542,1.7662,1.7582,1.7662,1.7662,1.7582,1.7582,1.7582,1.7582,1.7582,0.0,0.0,0.0,0.0,0.0,0.0,0.0,0.0,1.6313,1.7261,1.8343,1.8183,1.8931,1.9947,2.0615,0.0,0.0,0.0,0.0,0.0,0.0,0.0,0.0,0.0,0.0,2.6333,2.6413,2.664,2.6841,2.6894,2.7348,2.7709,2.7736,2.7976,2.8136,2.8136,2.8136,2.8136,2.8136,2.8136,2.8136,2.8136,2.8136,2.8136,2.8136,2.8136,2.8136,2.8136,2.8136,2.8136,2.8136,2.8136,2.8136,2.8136,2.8136,2.8136,2.8136,2.8136,2.8136,2.8136,2.8136,2.8136,2.8136,2.8136,2.8136,2.8136,2.8136,2.8136,2.8136,2.8136,2.8136,2.8136,0.0,0.0,1.5832,1.5832,0.0,0.0,0.0,0.0,0.0,1.6927,0.0,0.0,0.0,0.0,0.0,0.0,0.0,0.0,0.0,1.7582,1.7582,1.7582,1.7582,1.7448,1.7257,1.686,1.6673,1.6607,1.6326,1.6246,1.638,1.6834,1.7088,1.7194,1.8196,1.8237,1.7622,1.833,1.8223,1.7582,1.7582,1.7582,1.7582,1.7582,1.7542,0.0,0.0,0.0,0.0,0.0,0.0,0.0,1.6607,1.6994,1.7649,1.8758,1.9426,2.008,2.1349,2.1363,0.0,0.0,2.1911,2.2806,2.4997,2.5358,2.5438,2.6146,2.5972,2.5919,2.66,2.6774,2.6974,2.7442,2.7615,2.7776,2.8016,2.8096,2.8136,2.8136,2.8136,2.8136,2.8136,2.8136,2.8136,2.8136,2.8136,2.8136,2.8136,2.8136,2.8136,2.8136,2.8136,2.8136,2.8136,2.8136,2.8136,2.8136,2.8136,2.8136,2.8136,2.8136,2.8136,2.8136,2.8136,2.8136,2.8136,2.8136,2.8136,2.8136,2.8136,2.8136,2.8136,2.8136,2.8136,2.8136,0.0,0.0,0.0,0.0,0.0,0.0,0.0,0.0,0.0,0.0,0.0,0.0,0.0,0.0,0.0,0.0,0.0,0.0,0.0,0.0,1.7582,1.7582,1.7448,1.7235,1.6941,1.678,1.6633,1.65,1.6633,1.6687,1.67,1.7007,1.7221,1.7382,1.8009,1.8023,1.7609,1.8076,1.8009,1.7582,1.7582,1.7582,1.7582,1.7582,1.7502,1.7341,1.7034,0.0,0.0,0.0,0.0,0.0,0.0,0.0,1.8303,1.8798,1.9452,2.0201,2.1109,0.0,0.0,2.2592,0.0,2.4222,2.5464,2.5838,2.6026,2.6333,2.6253,2.6279,2.6734,2.7054,2.7335,2.7642,2.7816,2.7963,2.8123,2.8136,2.8136,2.8136,2.8136,2.8136,2.8136,2.8136,2.8136,2.8136,2.8136,2.8136,2.8136,2.8136,2.8136,2.8136,2.8136,2.8136,2.8136,2.8136,2.8136,2.8136,2.8136,2.8136,2.8136,2.8136,2.8136,2.8136,2.8136,2.8136,2.8136,2.8136,2.8136,2.8136,2.8136,2.8136,2.8136,2.8136,2.8136,2.8136,0.0,0.0,0.0,0.0,0.0,0.0,0.0,0.0,0.0,0.0,0.0,0.0,0.0,0.0,0.0,0.0,0.0,0.0,0.0,0.0,0.0,1.7582,1.7301,1.7061,1.686,1.6754,1.6633,1.65,1.6941,1.7248,1.7462,1.7462,1.7582,1.7809,1.7809,1.7729,1.7582,1.7582,1.7582,1.7582,1.7582,1.7609,1.7662,0.0,0.0,1.7368,1.7261,1.7101,1.6914,1.682,0.0,0.0,0.0,0.0,1.8971,1.8544,1.9239,2.0227,2.0521,0.0,2.2472,2.4209,2.493,0.0,2.5598,2.5959,2.6266,2.6373,2.6613,2.6841,2.6894,2.7335,2.7722,2.7762,2.7989,2.8136,2.8136,2.8136,2.8136,2.8136,2.8136,2.8136,2.8136,2.8136,2.8136,2.8136,2.8136,2.8136,2.8136,2.8136,2.8136,2.8136,2.8136,2.8136,2.8136,2.8136,2.8136,2.8136,2.8136,2.8136,2.8136,2.8136,2.8136,2.8136,2.8136,2.8136,2.8136,2.8136,2.8136,2.8136,2.8136,2.8136,2.8136,2.8136,2.8136,2.8136,0.0,0.0,0.0,0.0,0.0,0.0,0.0,0.0,0.0,0.0,1.7555,1.7582,0.0,1.7582,1.7582,1.7582,1.7582,1.7582,1.7582,0.0,0.0,1.7582,1.7301,1.7248,1.7462,1.6967,1.6941,1.7408,1.7235,0.0,0.0,0.0,0.0,1.8744,1.8744,1.8317,1.7582,1.7582,1.7582,1.7582,1.7582,1.7742,1.7983,0.0,0.0,0.0,0.0,1.7675,1.7782,1.7261,1.7288,0.0,0.0,0.0,1.7862,1.805,1.8945,1.992,0.0,0.0,2.2726,0.0,2.4315,2.4409,0.0,0.0,2.5772,0.0,2.6613,2.6894,2.7161,2.7482,2.7789,2.8043,2.8123,2.8136,2.8136,2.8136,2.8136,2.8136,2.8136,2.8136,2.8136,2.8136,2.8136,2.8136,2.8136,2.8136,2.8136,2.8136,2.8136,2.8136,2.8136,2.8136,2.8136,2.8136,2.8136,2.8136,2.8136,2.8136,2.8136,2.8136,2.8136,2.8136,2.8136,2.8136,2.8136,2.8136,2.8136,2.8136,2.8136,2.8136,2.8136,2.8136,2.8136,2.8136,0.0,0.0,0.0,0.0,0.0,0.0,0.0,0.0,0.0,0.0,0.0,1.7582,1.7582,1.7582,1.7582,1.7582,1.7582,1.7582,1.7582,1.7435,1.7341,1.7341,1.7061,1.6954,1.7088,1.6994,1.7088,1.7341,1.7368,0.0,0.0,1.9653,1.9399,0.0,0.0,1.8878,1.7622,1.829,1.829,1.7862,1.8023,1.817,0.0,0.0,0.0,0.0,0.0,0.0,0.0,0.0,0.0,1.7582,1.7582,0.0,0.0,0.0,1.8531,1.9386,2.0828,2.1323,2.2031,0.0,2.4315,2.4022,2.5959,2.5932,2.5678,2.6266,2.6747,2.7108,2.7241,2.7642,2.7989,2.8123,2.8136,2.8136,2.8136,2.8136,2.8136,2.8136,2.8136,2.8136,2.8136,2.8136,2.8136,2.8136,2.8136,2.8136,2.8136,2.8136,2.8136,2.8136,2.8136,2.8136,2.8136,2.8136,2.8136,2.8136,2.8136,2.8136,2.8136,2.8136,2.8136,2.8136,2.8136,2.8136,2.8136,2.8136,2.8136,2.8136,2.8136,2.8136,2.8136,2.8136,2.8136,2.8136,0.0,0.0,0.0,0.0,0.0,0.0,0.0,0.0,0.0,0.0,0.0,1.7582,1.7582,0.0,0.0,0.0,1.7582,1.7555,1.7475,1.7341,1.7221,1.7154,1.6941,1.6847,1.6927,1.7074,1.7181,1.7261,0.0,0.0,1.9907,2.0134,1.992,0.0,2.0054,0.0,0.0,0.0,0.0,0.0,0.0,0.0,0.0,0.0,0.0,0.0,0.0,0.0,0.0,0.0,0.0,0.0,0.0,0.0,0.0,0.0,0.0,0.0,0.0,0.0,2.1349,2.4142,2.3968,2.3581,0.0,0.0,2.5451,0.0,2.676,2.7268,2.7268,2.7749,2.8136,2.8136,2.8136,2.8136,2.8136,2.8136,2.8136,2.8136,2.8136,2.8136,2.8136,2.8136,2.8136,2.8136,2.8136,2.8136,2.8136,2.8136,2.8136,2.8136,2.8136,2.8136,2.8136,2.8136,2.8136,2.8136,2.8136,2.8136,2.8136,2.8136,2.8136,2.8136,2.8136,2.8136,2.8136,2.8136,2.8136,2.8136,2.8136,2.8136,2.8136,2.8136,2.8136,2.8136,0.0,0.0,0.0,0.0,0.0,0.0,0.0,0.0,0.0,0.0,0.0,1.7582,1.7582,1.7582,1.7582,1.7582,1.7582,1.7462,1.7194,1.7422,1.7435,1.7154,1.7141,0.0,1.7528,1.7288,1.7288,0.0,0.0,0.0,1.9011,1.984,2.0361,2.0588,2.0628,2.0601,2.0481,0.0,0.0,0.0,0.0,0.0,0.0,0.0,0.0,0.0,0.0,0.0,0.0,0.0,0.0,0.0,0.0,0.0,0.0,0.0,0.0,0.0,0.0,2.0708,0.0,2.2605,2.2726,2.2792,0.0,0.0,2.485,2.5438,2.6466,2.7268,2.7268,2.7749,2.8136,2.8136,2.8136,2.8136,2.8136,2.8136,2.8136,2.8136,2.8136,2.8136,2.8136,2.8136,2.8136,2.8136,2.8136,2.8136,2.8136,2.8136,2.8136,2.8136,2.8136,2.8136,2.8136,2.8136,2.8136,2.8136,2.8136,2.8136,2.8136,2.8136,2.8136,2.8136,2.8136,2.8136,2.8136,2.8136,2.8136,2.8136,2.8136,2.8136,2.8136,2.8136,2.8136,2.8136,0.0,0.0,0.0,0.0,0.0,0.0,0.0,0.0,0.0,0.0,0.0,0.0,0.0,1.7582,1.7582,1.7582,1.7582,1.7622,1.7716,1.7462,1.7261,1.7154,1.7154,1.7194,1.7301,1.7382,1.7475,0.0,0.0,1.8143,1.9212,1.9533,2.0134,2.0989,2.1951,2.1537,2.0187,2.1296,0.0,0.0,0.0,0.0,0.0,0.0,0.0,0.0,0.0,0.0,0.0,0.0,0.0,0.0,0.0,0.0,0.0,0.0,0.0,0.0,0.0,0.0,0.0,2.2352,2.2071,2.1804,2.3754,2.4289,2.4476,2.4863,2.6186,2.7148,2.6774,2.7495,2.8136,2.8136,2.8136,2.8136,2.8136,2.8136,2.8136,2.8136,2.8136,2.8136,2.8136,2.8136,2.8136,2.8136,2.7789,2.7749,2.8123,2.7789,2.7749,2.8136,2.8136,2.8136,2.8136,2.8136,2.8136,2.8136,2.8136,2.8136,2.8136,2.8136,2.8136,2.8136,2.8136,2.8136,2.8136,2.8136,2.8136,2.8136,2.8136,2.8136,2.8136,2.8136,2.8136,2.8136,0.0,0.0,0.0,0.0,0.0,1.7582,1.7582,1.7582,1.7582,0.0,0.0,0.0,0.0,0.0,1.7742,1.7742,1.7649,1.7622,1.7742,1.7462,1.7248,1.7154,1.7248,1.7288,1.7288,1.7288,1.7382,0.0,0.0,0.0,0.0,1.9332,1.9973,2.0869,2.2151,2.2031,0.0,0.0,0.0,2.0494,0.0,0.0,2.0281,0.0,0.0,0.0,0.0,0.0,0.0,0.0,0.0,0.0,0.0,0.0,0.0,0.0,0.0,0.0,2.0027,0.0,0.0,0.0,2.1323,2.1162,2.3033,2.3848,2.4289,2.4569,2.5959,2.7028,2.6734,2.7402,2.803,2.8123,2.8136,2.8136,2.8136,2.8136,2.8136,2.8136,2.8136,2.8136,2.8136,2.8136,2.8136,2.8136,2.7776,0.0,2.8123,2.7776,2.7736,2.8136,2.8136,2.8136,2.8136,2.8136,2.8136,2.8136,2.8136,2.8136,2.8136,2.8136,2.8136,2.8136,2.8136,2.8136,2.8136,2.8136,2.8136,2.8136,2.8136,2.8136,2.8136,2.8136,2.8136,2.8136,0.0,0.0,1.7555,1.7555,1.7555,1.7555,1.7555,1.7555,1.7555,1.7569,0.0,0.0,0.0,0.0,0.0,1.805,1.7756,1.7462,1.7194,1.7435,1.7462,1.7181,1.7435,1.7582,1.7582,1.7021,1.7021,0.0,0.0,0.0,0.0,0.0,1.9933,2.0241,2.1136,2.2004,2.2819,0.0,2.3287,2.314,0.0,2.2004,2.183,0.0,0.0,0.0,2.167,2.1256,0.0,0.0,0.0,0.0,0.0,0.0,0.0,0.0,0.0,0.0,0.0,0.0,0.0,0.0,2.0441,2.0895,2.1764,2.31,2.4249,2.4543,2.5772,2.6881,2.7175,2.7482,2.7789,2.8083,2.8136,2.8136,2.8136,2.8136,2.8136,2.8136,2.8136,2.8136,2.8136,2.8136,2.8136,2.8136,2.8123,2.8123,2.8136,2.8136,2.8136,2.8136,2.8136,2.8136,2.8136,2.8136,2.8136,2.8136,2.8136,2.8136,2.8136,2.8136,2.8136,2.8136,2.8136,2.8136,2.8136,2.8136,2.8136,2.8136,2.8136,2.8136,2.8136,2.8136,2.8136,2.8123,0.0,1.6941,1.6941,1.6941,1.6941,1.6941,1.6941,1.6941,1.7021,0.0,0.0,0.0,0.0,0.0,1.7796,1.8023,1.7756,1.7649,1.7782,1.7662,1.7542,1.7462,1.7542,1.7582,1.7582,1.7422,1.7528,0.0,0.0,0.0,0.0,0.0,0.0,0.0,2.0521,2.1056,2.1376,2.2752,0.0,0.0,2.2979,2.2498,0.0,0.0,0.0,0.0,0.0,2.1911,0.0,0.0,2.1229,2.0321,0.0,0.0,0.0,0.0,0.0,0.0,1.9372,0.0,0.0,0.0,0.0,0.0,2.1203,2.2325,2.3327,2.3621,2.5024,2.6226,2.6306,2.6907,2.7482,2.7776,2.8003,2.8136,2.8136,2.8136,2.8136,2.8136,2.8136,2.8136,2.8136,2.8136,2.8136,0.0,2.7749,2.7696,2.8123,2.8136,2.8136,2.8136,2.8136,2.8136,2.8136,2.8136,2.8136,2.8136,2.8136,2.8136,2.8136,2.8136,2.8136,2.8136,2.8136,2.8136,2.8136,2.8136,2.8136,2.8136,2.8136,2.8136,2.8136,2.8136,2.8003,2.7816,1.67,1.67,1.67,1.67,1.6807,1.6887,1.6887,1.6994,1.7128,0.0,0.0,0.0,0.0,0.0,0.0,1.8036,1.7756,1.7662,1.7836,1.7689,1.7582,1.7582,1.7702,1.7769,1.7769,1.7649,1.7796,0.0,0.0,0.0,0.0,0.0,0.0,0.0,1.9907,2.0134,0.0,0.0,0.0,0.0,2.2846,0.0,0.0,2.2939,2.2899,0.0,0.0,0.0,2.2832,2.302,2.2258,0.0,0.0,0.0,0.0,0.0,0.0,0.0,0.0,0.0,0.0,0.0,0.0,0.0,2.1136,2.2298,2.3327,2.3634,2.4997,2.6066,2.5812,2.6293,2.6774,2.6947,2.7215,2.7589,2.807,2.8136,2.8136,2.8136,2.8136,2.8136,2.8136,2.8136,2.8136,2.8136,2.7829,2.7776,2.8123,2.8136,2.8136,2.8136,2.8136,2.8136,2.8136,2.8136,2.8136,2.8136,2.8136,2.8136,2.8136,2.8136,2.8136,2.8136,2.8136,2.8136,2.8136,2.8136,2.8136,2.8136,2.8136,2.807,2.7963,2.7963,2.7776,2.7522,0.0,1.666,1.666,1.67,1.6927,1.7101,1.7101,1.7315,1.7502,0.0,0.0,0.0,0.0,0.0,0.0,0.0,1.7769,1.7635,1.7635,1.7662,1.7689,1.7689,1.7943,1.809,1.809,1.7822,1.7969,0.0,0.0,0.0,0.0,0.0,0.0,0.0,1.9372,1.9372,1.9412,0.0,0.0,2.302,2.2392,2.3046,0.0,0.0,2.3394,0.0,2.4315,2.4088,2.3487,2.4235,2.3447,0.0,0.0,0.0,0.0,0.0,1.9973,0.0,0.0,0.0,0.0,0.0,0.0,0.0,2.1269,2.2525,2.3621,2.3941,2.5064,2.5852,2.5411,2.5531,2.5718,2.5758,2.5985,2.6573,2.7776,2.8003,2.803,2.8003,2.8056,2.811,2.8136,2.8136,2.8136,2.8136,2.8136,2.8136,2.8136,2.8136,2.8136,2.8136,2.8136,2.8136,2.8136,2.8136,2.8136,2.8136,2.8136,2.8136,2.8136,2.8136,2.8136,2.8136,2.8136,2.8136,2.8136,2.8136,2.8136,2.8136,2.811,2.7936,2.7696,2.7669,2.7468,2.7215,1.6313,1.6353,1.6433,1.666,1.6754,1.6794,1.6794,1.6847,1.6967,1.7208,1.7435,0.0,0.0,0.0,0.0,0.0,1.7849,1.7956,1.7956,1.8183,1.8317,1.8317,1.837,1.841,1.841,1.8343,1.849,0.0,0.0,0.0,0.0,0.0,0.0,0.0,1.9372,1.9372,0.0,0.0,0.0,2.163,2.2659,0.0,2.2966,2.3995,2.3794,2.31,2.4235,2.4222,2.3674,0.0,2.3354,2.2819,0.0,0.0,0.0,0.0,0.0,0.0,0.0,0.0,0.0,0.0,0.0,0.0,2.0748,2.1443,2.2138,2.2659,2.318,2.3661,2.4048,2.4155,2.4275,2.4502,2.4596,2.5117,2.6533,2.7134,2.7348,2.7108,2.7495,2.7883,2.8123,2.8136,2.8136,2.8136,2.8136,2.8136,2.8136,2.8136,2.8136,2.8136,2.8136,2.8136,2.8136,2.8136,2.8136,2.8136,2.8136,2.8136,2.8136,2.8136,2.8136,2.8136,2.8136,2.8136,2.8136,2.8136,2.8136,2.8123,2.7883,2.7749,2.7669,2.7442,2.7161,2.6907,1.646,1.6486,1.654,1.6687,1.6834,1.6927,1.6927,1.7048,1.7194,1.7341,1.7488,0.0,0.0,0.0,0.0,0.0,0.0,0.0,0.0,1.841,1.849,1.849,1.8624,1.8704,1.8704,1.8851,1.8998,0.0,0.0,0.0,0.0,0.0,0.0,0.0,0.0,0.0,0.0,0.0,2.004,2.1203,2.2245,0.0,2.3207,2.4235,2.4356,2.4048,2.4649,2.477,2.4569,2.4128,2.3888,0.0,0.0,2.1603,2.0775,0.0,1.9706,1.9399,0.0,0.0,0.0,2.0134,0.0,0.0,0.0,2.1456,2.2071,2.2352,2.2899,2.3273,2.3126,2.322,2.3313,2.3313,2.3434,2.3794,2.4529,2.5772,2.672,2.7014,2.7308,2.7535,2.7696,2.7709,2.7762,2.7909,2.7923,2.7989,2.8136,2.8136,2.8136,2.8136,2.8136,2.8136,2.8136,2.8136,2.8136,2.8136,2.8136,2.8136,2.8136,2.8136,2.8136,2.8136,2.8136,2.8056,2.7923,2.7923,2.7843,2.7709,2.7696,2.7522,2.7241,2.7094,2.6854,2.66,1.6807,1.6794,1.6807,1.686,1.7074,1.7235,1.7235,1.7435,1.7609,1.7662,0.0,0.0,0.0,0.0,0.0,0.0,0.0,0.0,0.0,0.0,1.9275,1.8664,1.8878,1.9011,1.9011,1.9239,1.9372,1.9372,0.0,0.0,0.0,0.0,0.0,0.0,0.0,0.0,0.0,0.0,0.0,2.1416,0.0,2.2792,2.3674,2.4436,2.4796,2.493,2.5104,2.5317,2.5424,2.4836,0.0,2.4142,2.3794,2.2539,0.0,0.0,0.0,0.0,0.0,0.0,0.0,0.0,0.0,2.0748,0.0,0.0,0.0,2.2164,2.2752,2.3033,2.2298,2.2365,2.2432,2.2138,2.2325,2.2565,2.2672,2.4182,2.5585,2.6413,2.66,2.6694,2.676,2.6907,2.7188,2.7589,2.7615,2.7749,2.8043,2.8056,2.8083,2.8136,2.8136,2.8136,2.8136,2.8136,2.8136,2.8136,2.8136,2.8136,2.8136,2.8136,2.8136,2.8136,2.8083,2.7923,2.7696,2.7642,2.7442,2.7201,2.7442,2.7241,2.6814,2.676,2.6587,2.6386,1.7154,1.7101,1.7181,1.7435,1.7515,1.7528,1.7528,1.7555,0.0,0.0,0.0,0.0,0.0,0.0,0.0,0.0,0.0,0.0,2.1639,0.0,0.0,1.9421,1.9292,1.9319,1.9319,1.9345,1.9372,1.9372,0.0,0.0,0.0,0.0,0.0,0.0,1.9372,0.0,0.0,0.0,2.1203,0.0,2.2926,2.3086,0.0,2.4502,2.473,2.4409,2.5184,2.5478,2.5424,0.0,2.4449,2.4102,0.0,2.2512,0.0,0.0,0.0,0.0,0.0,0.0,0.0,0.0,2.0681,0.0,0.0,0.0,2.1256,2.1256,0.0,2.1376,0.0,0.0,0.0,2.0922,2.1122,2.1483,2.2017,2.2512,2.306,2.3701,2.4235,2.4649,2.4903,2.5638,2.644,2.7255,2.7321,2.7442,2.7736,2.7749,2.7869,2.8136,2.8136,2.8136,2.8136,2.8136,2.8136,2.8136,2.8136,2.8136,2.8136,2.8136,2.8136,2.8123,2.7869,2.7722,2.7682,2.7415,2.7134,2.6881,2.6907,2.6881,2.6787,2.6533,2.6413,2.6386,1.7422,1.7395,1.7435,1.7555,1.7582,1.7649,1.7822,1.7996,0.0,0.0,0.0,0.0,0.0,0.0,0.0,0.0,0.0,0.0,0.0,0.0,0.0,0.0,0.0,0.0,1.9372,1.9372,1.9372,1.9372,1.9372,0.0,0.0,0.0,0.0,0.0,1.9546,0.0,2.0681,0.0,0.0,0.0,0.0,0.0,0.0,2.4583,2.5144,2.5251,2.5438,2.5732,2.5879,0.0,2.501,0.0,0.0,0.0,0.0,0.0,0.0,0.0,0.0,0.0,0.0,0.0,0.0,0.0,0.0,0.0,2.1109,0.0,0.0,0.0,0.0,0.0,0.0,0.0,2.1029,2.1203,2.1443,2.1577,2.2138,2.3434,2.3808,0.0,2.4836,2.477,2.5117,2.6172,2.6253,2.6373,2.6667,2.7175,2.7575,2.7883,2.7883,2.7963,2.8136,2.8136,2.8136,2.8136,2.8136,2.8136,2.8136,2.8136,2.8043,2.7883,2.7749,2.7509,2.7175,2.7054,2.6841,2.6573,2.6573,2.6573,2.656,2.6426,2.6386,2.6386,1.7716,0.0,0.0,0.0,1.7782,1.7903,1.813,1.8624,0.0,0.0,0.0,0.0,2.0708,2.138,0.0,0.0,0.0,2.6937,0.0,0.0,2.4439,0.0,0.0,0.0,0.0,0.0,1.9372,1.9372,1.9372,0.0,0.0,0.0,0.0,0.0,0.0,2.0094,2.0815,0.0,0.0,2.2939,2.3313,2.3701,2.4128,2.4823,2.5491,2.6052,2.5825,2.6026,2.6239,2.5211,2.5384,0.0,2.4623,0.0,0.0,0.0,0.0,0.0,2.2298,0.0,0.0,0.0,0.0,0.0,0.0,0.0,0.0,0.0,0.0,0.0,0.0,0.0,0.0,0.0,0.0,2.1056,2.0895,2.0935,2.147,2.2766,2.314,0.0,0.0,2.3901,2.4088,2.4863,2.5211,2.5518,2.5825,2.6667,2.7281,2.7575,2.7575,2.7722,2.8016,2.8016,2.8056,2.8136,2.8136,2.8096,2.8016,2.8016,2.7856,2.7575,2.7495,2.7215,2.6814,2.6734,2.6587,2.6386,2.6386,2.6386,2.6386,2.6386,2.6386,2.6386,1.8036,1.8036,0.0,0.0,0.0,0.0,1.8477,0.0,0.0,0.0,0.0,0.0,0.0,0.0,0.0,0.0,0.0,3.2409,3.0591,0.0,2.903,0.0,0.0,0.0,0.0,0.0,0.0,1.9372,0.0,0.0,0.0,0.0,0.0,0.0,0.0,2.0027,2.1136,2.171,2.2806,2.4195,2.4783,2.5358,2.5812,0.0,2.5625,2.6373,2.636,0.0,0.0,2.5692,2.5317,0.0,0.0,0.0,0.0,0.0,0.0,0.0,0.0,0.0,0.0,2.2632,0.0,0.0,0.0,0.0,2.1109,0.0,0.0,0.0,0.0,0.0,0.0,0.0,0.0,0.0,0.0,2.0508,2.0708,2.0762,2.1523,0.0,0.0,2.2939,2.3661,0.0,2.4449,2.5224,2.5518,2.636,2.6974,2.7268,2.7281,2.7415,2.7709,2.7709,2.7856,2.8136,2.8136,2.7989,2.7709,2.7709,2.7549,2.7268,2.6974,2.6841,2.68,2.652,2.64,2.6386,2.6386,2.6386,2.6386,2.6386,2.6386,2.6386,1.845,0.0,0.0,0.0,0.0,0.0,0.0,1.9279,0.0,0.0,0.0,0.0,0.0,0.0,2.8601,0.0,0.0,3.2758,3.1552,3.1265,0.0,0.0,0.0,2.3626,0.0,0.0,0.0,0.0,0.0,0.0,0.0,0.0,0.0,0.0,0.0,2.0201,0.0,0.0,0.0,0.0,0.0,2.5317,2.5678,0.0,0.0,2.6386,2.6386,2.6386,0.0,2.5705,2.5705,2.5892,2.5598,2.5237,2.5064,2.5745,2.505,0.0,0.0,0.0,2.4569,2.4262,0.0,0.0,0.0,0.0,0.0,0.0,0.0,0.0,0.0,0.0,0.0,0.0,0.0,0.0,0.0,0.0,1.9813,1.9813,2.0414,0.0,0.0,0.0,0.0,0.0,2.3086,0.0,2.346,2.4863,2.5798,2.6092,2.6667,2.7108,2.7415,2.7415,2.7455,2.7562,2.7562,2.7509,2.7415,2.7415,2.7255,2.6961,2.6867,2.6707,2.6533,2.6426,2.6386,2.6386,2.6386,2.6386,2.6386,2.6386,2.6386,2.6386,1.8811,0.0,0.0,0.0,0.0,0.0,0.0,0.0,0.0,0.0,2.4781,0.0,2.8826,0.0,3.0303,0.0,3.2753,3.3322,3.3378,3.232,0.0,3.1559,2.8006,0.0,0.0,0.0,0.0,0.0,0.0,1.9533,0.0,0.0,0.0,0.0,0.0,2.0134,2.1029,0.0,2.3287,0.0,0.0,2.5464,0.0,0.0,2.6213,2.6386,0.0,2.6386,2.6333,2.5945,2.6079,2.6319,2.5945,2.5825,2.5905,2.6279,2.5718,2.5064,2.5438,2.5545,0.0,2.5157,2.4649,0.0,2.3848,0.0,0.0,0.0,0.0,0.0,0.0,0.0,0.0,0.0,0.0,0.0,0.0,1.9573,0.0,1.9212,1.9907,0.0,0.0,0.0,0.0,0.0,0.0,0.0,0.0,2.4115,2.517,2.5358,2.6213,2.6814,2.7108,2.7108,2.7161,2.7268,2.7268,2.7215,2.7108,2.7108,2.6947,2.6667,2.6667,2.656,2.6386,2.6386,2.6386,2.6386,2.6386,2.6386,2.6386,2.6386,2.6386,2.6386,1.9118,0.0,0.0,0.0,1.9212,0.0,0.0,0.0,2.4314,0.0,2.729,2.8327,2.9529,3.0319,3.1304,3.2271,3.3043,0.0,3.582,3.3281,0.0,0.0,3.1439,2.9756,3.1742,0.0,0.0,0.0,0.0,0.0,0.0,0.0,0.0,0.0,1.9386,0.0,2.0762,2.1951,2.3166,2.4342,2.5144,2.5825,2.6279,2.5718,2.5879,2.6386,2.6386,2.6386,2.6386,2.6386,2.6386,2.6386,2.6386,2.6386,2.6386,2.6386,2.6386,2.6386,2.6386,2.6386,2.6186,2.5358,0.0,0.0,0.0,0.0,2.3768,0.0,0.0,0.0,0.0,0.0,0.0,0.0,0.0,0.0,0.0,0.0,0.0,0.0,1.988,0.0,0.0,0.0,0.0,0.0,0.0,0.0,0.0,2.4022,2.4983,2.5077,2.5852,2.644,2.68,2.676,2.6907,2.7228,2.7228,2.7068,2.68,2.68,2.6653,2.6386,2.6386,2.6386,2.6386,2.6386,2.6386,2.6386,2.6386,2.6386,2.6386,2.6386,2.6386,2.6386,1.9426,1.9319,1.9345,0.0,1.9853,2.0889,0.0,0.0,0.0,0.0,3.0178,3.1443,3.3123,3.4165,3.4373,3.3758,3.4367,0.0,0.0,0.0,0.0,3.5976,3.3494,3.1914,3.1797,2.9065,0.0,2.4789,0.0,0.0,2.0655,0.0,0.0,0.0,0.0,0.0,2.0775,2.2405,2.3901,2.5157,2.4943,2.5211,0.0,0.0,2.5879,2.6386,2.6386,2.6386,2.6386,2.6386,2.6386,2.6386,2.6386,2.6386,2.6386,2.6386,2.6386,2.6386,2.6386,2.6386,2.6333,2.6106,2.5558,2.5024,0.0,0.0,0.0,0.0,0.0,0.0,0.0,0.0,0.0,0.0,0.0,0.0,0.0,0.0,0.0,1.8303,0.0,0.0,0.0,0.0,0.0,0.0,0.0,0.0,2.2378,0.0,2.3714,2.5037,2.4663,2.5104,2.6493,2.5852,2.5892,2.6613,2.6613,2.6573,2.6507,2.6507,2.6466,2.6386,2.6386,2.6386,2.6386,2.6386,2.6386,2.6386,2.6386,2.6386,2.6386,2.6386,2.6386,2.6386,1.9533,1.9372,0.0,1.9372,0.0,0.0,2.3958,0.0,0.0,3.1217,3.2691,0.0,3.5354,3.6172,3.6289,3.5547,3.5234,0.0,0.0,0.0,0.0,3.6523,3.504,3.3853,3.3426,3.13,0.0,2.6698,0.0,0.0,2.1216,0.0,0.0,0.0,0.0,2.0201,2.0989,2.2899,2.4409,2.5478,2.5157,2.5813,0.0,2.6053,2.6676,2.7829,2.704,2.6694,2.66,2.6734,2.6774,2.6774,2.6774,2.6774,2.6774,2.6774,2.6774,2.6774,2.6774,2.6774,2.6774,2.6774,2.6306,2.5838,2.5838,2.5358,2.4917,0.0,0.0,0.0,0.0,0.0,0.0,0.0,0.0,0.0,0.0,0.0,0.0,0.0,1.8624,0.0,0.0,1.9145,0.0,0.0,0.0,0.0,0.0,0.0,2.3153,2.3888,2.4195,2.4636,2.5237,2.4756,2.4943,2.5812,2.5812,2.6012,2.6386,2.6386,2.6386,2.6386,2.6386,2.6386,2.6386,2.6386,2.6386,2.6386,2.6386,2.6386,2.6386,2.6386,2.6386,2.6386,1.9883,0.0,0.0,0.0,0.0,0.0,0.0,2.7296,0.0,3.3019,0.0,3.582,3.6504,3.7012,3.7266,3.7226,0.0,3.5605,3.7109,3.5098,3.4883,3.7207,3.623,3.5644,3.5644,3.3652,0.0,0.0,0.0,0.0,0.0,0.0,0.0,0.0,0.0,0.0,0.0,2.338,2.4824,2.5963,2.5963,2.7339,2.9204,2.7198,2.779,2.9427,2.7852,2.7134,2.6921,2.7175,2.7268,2.7268,2.7268,2.7268,2.7268,2.7268,2.7268,2.7268,2.7268,2.7268,2.7268,2.7268,2.7068,2.6881,2.6881,2.6653,2.6453,2.6453,2.6413,2.6159,0.0,0.0,0.0,0.0,0.0,0.0,0.0,0.0,0.0,0.0,0.0,0.0,1.7301,1.8651,0.0,0.0,0.0,0.0,0.0,0.0,2.2819,2.2605,2.3981,2.4476,2.3955,2.3834,2.4262,2.5251,2.513,2.5545,2.6386,2.6386,2.6386,2.6386,2.6386,2.6386,2.6386,2.6386,2.6386,2.6386,2.6386,2.6386,2.6386,2.6386,2.6386,2.6386,0.0,0.0,0.0,0.0,0.0,2.6802,3.003,3.1559,3.2939,3.4796,3.5899,3.6367,3.6152,3.6836,3.7168,3.6816,3.6504,0.0,0.0,0.0,0.0,3.7266,3.709,3.6973,3.6973,3.6518,3.5293,0.0,0.0,0.0,0.0,0.0,0.0,0.0,0.0,0.0,2.3327,2.3688,0.0,2.8041,2.8041,2.8399,2.9105,2.913,2.8602,2.7703,2.7673,2.7428,2.7201,2.7241,2.7268,2.7268,2.7268,2.7268,2.7268,2.7268,2.7268,2.7268,2.7268,2.7268,2.7268,2.7268,2.7228,2.7188,2.7188,2.6961,2.6747,2.6747,2.656,2.6346,2.6186,0.0,0.0,0.0,0.0,0.0,0.0,0.0,0.0,0.0,0.0,1.9052,0.0,0.0,0.0,0.0,0.0,2.0067,2.1336,0.0,2.1617,0.0,2.3113,2.3514,0.0,0.0,2.4569,2.6146,2.5424,2.5545,2.6386,2.6386,2.6386,2.6386,2.6386,2.6386,2.6386,2.6386,2.6386,2.6386,2.6386,2.6386,2.6386,2.6386,2.6386,2.6386,0.0,0.0,0.0,0.0,0.0,0.0,0.0,3.3737,0.0,3.5977,3.6797,3.7246,3.7031,3.7578,3.7871,3.7676,3.7246,3.7187,3.7637,3.7246,3.7285,3.793,3.7734,0.0,3.6992,3.7187,3.6093,3.3441,0.0,0.0,0.0,0.0,0.0,2.0494,0.0,2.3865,0.0,0.0,0.0,3.015,3.0688,3.1598,3.2757,3.2219,3.2284,3.2314,3.1523,3.1227,3.078,2.8524,2.7722,2.7722,2.7722,2.7722,2.7722,2.7722,2.7722,2.7722,2.7722,2.7722,2.7722,2.7722,2.7602,2.7495,2.7495,2.7268,2.7001,2.6854,2.6707,2.6426,2.5825,2.4903,0.0,0.0,0.0,0.0,0.0,0.0,0.0,0.0,0.0,0.0,0.0,0.0,0.0,0.0,0.0,1.9479,2.0802,0.0,2.1416,0.0,0.0,0.0,2.4396,0.0,2.4422,2.5705,2.5277,2.5545,2.6386,2.6386,2.6386,2.6386,2.6386,2.6386,2.6386,2.6386,2.6386,2.6386,2.6386,2.6386,2.6386,2.6386,2.6386,2.6386,0.0,2.5255,0.0,0.0,2.9527,0.0,3.245,3.5199,3.7109,3.6953,3.7519,3.7969,3.8047,3.8359,3.8496,3.832,3.7851,3.7695,3.8008,3.7734,3.7793,3.8281,3.8144,3.7754,3.709,3.7402,3.6463,0.0,0.0,0.0,0.0,0.0,0.0,0.0,0.0,0.0,0.0,0.0,3.1672,3.247,3.3416,3.4793,3.6192,3.5295,3.5605,3.6518,3.5198,3.4651,3.4164,3.0759,2.9286,2.8796,2.8305,2.8136,2.8136,2.8136,2.8136,2.8136,2.8136,2.8136,2.8136,2.8136,2.7963,2.7789,2.7789,2.7562,2.7268,2.6974,2.6814,2.6453,2.5531,2.5211,0.0,0.0,0.0,0.0,0.0,0.0,0.0,0.0,0.0,0.0,1.9199,0.0,0.0,0.0,1.817,1.8891,2.0254,2.0588,2.1229,0.0,0.0,2.3487,2.3674,0.0,2.4302,2.5358,2.517,2.5545,2.6386,2.6386,2.6386,2.6386,2.6386,2.6386,2.6386,2.6386,2.6386,2.6386,2.6386,2.6386,2.6386,2.6386,2.6386,2.6386,0.0,0.0,0.0,0.0,0.0,0.0,3.6483,3.6677,3.6992,3.7715,3.7871,3.8066,3.8476,3.8555,3.8262,3.748,3.8047,3.7832,3.6348,3.7637,3.8144,3.7441,3.8125,3.8476,3.8398,3.8437,3.8078,0.0,0.0,0.0,0.0,0.0,0.0,0.0,0.0,0.0,0.0,3.1314,3.2946,3.5145,3.5628,3.6192,3.6569,3.6844,3.6095,3.4942,3.4813,3.4651,3.4651,3.4164,3.271,3.0744,2.8796,2.8136,2.8136,2.8136,2.8136,2.8136,2.8136,2.8136,2.8136,2.8136,2.8123,2.8096,2.8096,2.7869,2.7575,2.7281,2.68,2.64,2.6293,2.5611,2.4796,0.0,0.0,0.0,0.0,0.0,0.0,0.0,0.0,0.0,0.0,1.8343,0.0,0.0,1.7649,1.8531,2.0535,1.9933,2.0294,2.1977,2.2111,2.2539,2.3367,2.3634,2.4609,2.6253,2.5464,2.5545,2.6386,2.6386,2.6386,2.6386,2.6386,2.6386,2.6386,2.6386,2.6386,2.6386,2.6386,2.6386,2.6386,2.6386,2.6386,2.6386,0.0,0.0,0.0,0.0,0.0,0.0,0.0,3.7422,3.8027,3.8613,3.8476,3.8379,3.8555,3.8574,3.8437,3.8086,3.8379,3.8281,3.7598,3.8203,3.8418,3.8086,3.8398,3.8574,3.8574,3.8574,3.8496,0.0,0.0,0.0,0.0,0.0,0.0,0.0,0.0,3.2135,3.3409,3.5085,3.657,3.7743,3.8198,3.8633,3.9031,3.9448,3.9224,3.8566,3.8566,3.8566,3.839,3.7099,3.5137,3.3038,3.0744,3.0093,2.9941,2.8628,2.8136,2.8136,2.8136,2.8136,2.8136,2.8136,2.8136,2.8136,2.8136,2.8056,2.7883,2.7589,2.7054,2.66,2.6426,2.6106,2.5571,0.0,0.0,0.0,0.0,0.0,0.0,0.0,0.0,0.0,0.0,0.0,0.0,0.0,0.0,1.7729,1.9279,1.9693,2.0695,2.2458,0.0,2.3741,2.5144,2.4756,2.517,2.6386,2.6039,2.6052,2.6386,2.6386,2.6386,2.6386,2.6386,2.6386,2.6386,2.6386,2.6386,2.6386,2.6386,2.6386,2.6386,2.6386,2.6386,2.6386,3.5743,0.0,3.3954,0.0,3.6328,3.7148,3.6894,3.793,3.8769,3.8809,3.8906,3.8965,3.8965,3.8965,3.8867,3.8594,3.8809,3.875,3.8223,3.8672,3.8789,3.8398,3.8633,0.0,3.8574,3.8574,3.8574,3.8574,3.5868,0.0,0.0,0.0,0.0,0.0,3.3855,3.5009,3.5936,3.7982,3.8926,3.9258,3.9844,4.0254,4.0566,4.1016,4.1172,4.1172,4.1172,4.1172,4.0997,3.9374,3.7896,3.596,3.2546,3.1392,3.091,2.8796,2.8136,2.8136,2.8136,2.8136,2.8136,2.8136,2.8136,2.8136,2.8136,2.8136,2.803,2.7655,2.7175,2.6734,2.644,2.6386,2.6106,2.5224,0.0,0.0,0.0,0.0,0.0,0.0,2.3273,2.2726,2.3033,2.0975,0.0,0.0,0.0,1.7796,1.8824,1.9573,2.0748,0.0,0.0,0.0,2.5464,2.4957,2.5264,2.6386,2.6386,2.6386,2.6386,2.6386,2.6386,2.6386,2.6386,2.6386,2.6386,2.6386,2.6386,2.6386,2.6386,2.6386,2.6386,2.6386,2.6386,2.6386,3.7266,3.7598,3.7871,3.7871,3.8242,3.8262,3.7422,3.8379,3.8887,3.8047,3.9062,3.9883,3.9883,3.9883,3.9531,3.8652,3.9375,3.9141,3.7422,3.8926,3.9297,0.0,0.0,3.9004,3.8594,3.8574,3.8574,3.8574,0.0,0.0,3.4153,0.0,3.3145,3.656,3.5869,3.6553,3.8594,3.9004,3.9199,3.9277,4.0156,4.0527,4.0566,4.1016,4.1172,4.1172,4.1172,4.1172,4.1172,4.1172,4.1172,4.0021,3.3512,3.1392,3.091,2.8796,2.8136,2.8136,2.8136,2.8136,2.8136,2.8136,2.8136,2.8136,2.8136,2.8136,2.7976,2.7388,2.7028,2.6734,2.644,2.6386,2.6106,2.5224,0.0,0.0,0.0,0.0,0.0,0.0,2.2552,2.2111,2.2405,2.1096,0.0,0.0,0.0,0.0,0.0,0.0,0.0,2.1523,2.1015,0.0,2.334,2.3647,2.4663,2.6386,2.6386,2.6386,2.6386,2.6386,2.6386,2.6386,2.6386,2.6386,2.6386,2.6386,2.6386,2.6386,2.6386,2.6386,2.6386,2.6386,2.6386,2.6386,3.6484,3.748,3.8184,3.7598,3.834,3.8906,3.8633,3.9199,3.9687,3.9687,4.0059,4.043,4.0723,4.0254,3.9785,0.0,3.918,3.9023,0.0,3.9023,3.9082,3.9258,3.8945,3.8711,3.8574,3.8281,3.8125,3.8125,0.0,0.0,0.0,3.5623,3.6371,3.8008,3.8067,3.8374,3.9023,3.9492,3.9844,4.0117,4.041,4.0703,4.0976,4.1113,4.1172,4.1172,4.1172,4.1172,4.1172,4.1172,4.1172,4.0529,3.6922,3.5782,3.546,3.3186,3.1572,3.0426,3.0426,2.9286,2.8136,2.8136,2.8136,2.8136,2.8136,2.8136,2.7976,2.7388,2.7188,2.6974,2.648,2.6386,2.6106,2.5224,2.5585,0.0,0.0,0.0,0.0,0.0,2.3567,2.3166,2.3861,2.2418,0.0,0.0,0.0,0.0,0.0,0.0,0.0,0.0,2.3567,0.0,2.5411,2.4917,2.5237,2.6386,2.6386,2.6386,2.6386,2.6386,2.6386,2.6386,2.6386,2.6386,2.6386,2.6386,2.6386,2.6386,2.6386,2.6386,2.6386,2.6386,2.6266,2.6092,3.7031,3.7969,3.8633,3.8105,3.8809,3.9355,3.9023,3.9629,4.0098,4.0039,4.0449,4.0879,4.1152,4.0703,0.0,4.0371,3.9863,3.9785,4.0332,3.9863,3.9726,4.0117,3.9609,3.9238,3.9082,3.8809,0.0,3.8672,3.8398,3.8281,3.8281,3.8281,3.8555,3.9082,3.9355,3.9453,3.9492,3.9941,4.0273,4.0527,4.0703,4.0937,4.1172,4.1172,4.1172,4.1172,4.1172,4.1172,4.1172,4.1172,4.1172,4.0997,3.9531,3.9198,3.8548,3.5621,3.3186,3.1392,3.1392,2.9774,2.8136,2.8136,2.8136,2.8136,2.8136,2.8136,2.7976,2.7388,2.7268,2.7081,2.6493,2.6386,2.6213,2.5665,2.6026,2.6199,2.5651,0.0,0.0,0.0,0.0,0.0,0.0,2.3634,2.2779,0.0,0.0,0.0,0.0,0.0,0.0,2.3821,2.4342,2.501,2.5892,2.5358,2.5518,2.6386,2.6386,2.6386,2.6386,2.6386,2.6386,2.6386,2.6386,2.6386,2.6386,2.6386,2.6386,2.6386,2.6386,2.6386,2.6373,2.6266,2.6106,2.5945,3.8496,3.8906,3.9238,0.0,3.959,0.0,3.8848,3.9766,4.0273,3.9453,4.041,4.1172,4.1172,4.1172,4.1172,4.1172,0.0,0.0,0.0,4.1113,4.0937,4.0586,4.0508,4.0293,3.9902,3.9863,3.9863,3.9902,3.9902,3.9902,3.9902,3.9902,3.9902,3.9902,3.9922,3.9941,3.9961,4.0391,4.0566,4.0605,4.1016,4.1172,4.1172,4.1172,4.1172,4.1172,4.1172,4.1172,4.1172,4.1172,4.1172,4.1172,4.1172,4.1172,4.0353,3.6281,3.3512,3.1887,3.1722,3.0093,2.8473,2.8305,2.8136,2.8136,2.8136,2.8136,2.7976,2.7388,2.7268,2.7081,2.6493,2.6386,2.6386,2.6386,2.6386,2.6373,2.6306,0.0,0.0,0.0,0.0,0.0,0.0,2.4703,2.4583,0.0,0.0,0.0,0.0,0.0,2.1724,2.3487,2.3808,2.4342,2.5157,2.517,2.5585,2.6386,2.6386,2.6386,2.6386,2.6386,2.6386,2.6386,2.6386,2.6386,2.6386,2.6386,2.6386,2.6386,2.6373,2.636,2.6319,2.6039,2.5919,2.5852,0.0,0.0,3.9512,3.8848,3.9648,4.0312,4.0098,4.0605,4.0937,4.0723,4.0976,4.1172,4.1172,4.1172,4.1172,4.1172,4.0566,4.0469,4.1133,4.0566,4.0449,4.0996,4.0391,4.0,3.9902,3.9551,3.9531,3.9902,3.9902,3.9902,3.9902,3.9902,3.9902,3.9902,4.0234,4.0371,4.041,4.084,4.1016,4.1035,4.1133,4.1172,4.1172,4.1172,4.1172,4.1172,4.1172,4.1172,4.1172,4.1172,4.1172,4.1172,4.1172,4.1172,4.1016,4.0021,3.8073,3.5943,3.4327,3.2381,3.026,2.8642,2.8136,2.8136,2.8136,2.8136,2.7976,2.7388,2.7268,2.7081,2.6493,2.6386,2.6386,2.6386,2.6386,2.6159,2.5478,2.5211,2.4836,0.0,2.4489,2.4823,2.4957,2.5384,2.5237,0.0,0.0,0.0,2.4275,2.3714,2.4075,2.5611,2.5732,2.5865,2.6079,2.6079,2.6186,2.6386,2.6386,2.6386,2.6386,2.6386,2.6386,2.6386,2.6386,2.6386,2.6386,2.6386,2.6386,2.6373,2.6146,2.6052,2.6026,2.5732,2.5478,2.5277,3.8535,3.9394,4.0039,3.9551,4.0215,4.082,4.082,4.1016,4.1172,4.1172,4.1172,4.1172,4.1172,4.1172,4.1172,4.1172,4.0742,4.0684,4.1152,4.0742,4.0684,4.1152,4.0723,4.0488,4.0488,4.0234,4.0234,4.0488,4.0488,4.0488,4.0488,4.0488,4.0488,4.0488,4.0723,4.082,4.084,4.1074,4.1172,4.1172,4.1172,4.1172,4.1172,4.1172,4.1172,4.1172,4.1172,4.1172,4.1172,4.1172,4.1172,4.1172,4.1172,4.1172,4.1172,4.1172,3.9688,3.7419,3.5298,3.3022,3.091,2.8796,2.8136,2.8136,2.8136,2.8136,2.7976,2.7388,2.7268,2.7081,2.6493,2.6386,2.6386,2.6386,2.6052,2.5625,2.5144,2.473,2.4449,2.4382,2.4783,2.5237,2.5638,2.5972,2.5892,2.5251,2.469,0.0,2.517,2.4823,2.5157,2.6346,2.6386,2.6386,2.6386,2.6386,2.6386,2.6386,2.6386,2.6386,2.6386,2.6386,2.6386,2.6386,2.6386,2.6386,2.6386,2.6386,2.6306,2.6172,2.6012,2.5879,2.5718,2.5424,2.5224,2.5064,4.0078,4.0371,4.0625,4.0625,4.0918,4.1172,4.1172,4.1172,4.1172,4.1172,4.1172,4.1172,4.1172,4.1172,4.1172,4.1172,4.1172,4.1172,4.1172,4.1172,4.1172,4.1172,4.1172,4.1172,4.1172,4.1172,4.1172,4.1172,4.1172,4.1172,4.1172,4.1172,4.1172,4.1172,4.1172,4.1172,4.1172,4.1172,4.1172,4.1172,4.1172,4.1172,4.1172,4.1172,4.1172,4.1172,4.1172,4.1172,4.1172,4.1172,4.1172,4.1172,4.1172,4.1172,4.1172,4.1172,3.9864,3.7896,3.5799,3.3349,3.091,2.9118,2.8473,2.8136,2.8136,2.8136,2.7976,2.7388,2.7268,2.7081,2.6493,2.6386,2.6346,2.6213,2.5571,2.5037,2.4903,0.0,2.4249,2.4997,2.5197,2.5571,2.6319,2.6386,2.6386,2.6386,2.5692,2.5598,2.6346,2.5678,2.5625,2.6373,2.6386,2.6386,2.6386,2.6386,2.6386,2.6386,2.6386,2.6386,2.6386,2.6386,2.6386,2.6386,2.6386,2.636,2.6319,2.6319,2.6146,2.5892,2.5838,2.5665,2.5411,2.5117,2.501,2.497,4.0898,4.1035,4.1074,4.1074,4.1133,4.1172,4.1172,4.1172,4.1172,4.1172,4.1172,4.1172,4.1172,4.1172,4.1172,4.1172,4.1172,4.1172,4.1172,4.1172,4.1172,4.1172,4.1172,4.1172,4.1172,4.1172,4.1172,4.1172,4.1172,4.1172,4.1172,4.1172,4.1172,4.1172,4.1172,4.1172,4.1172,4.1172,4.1172,4.1172,4.1172,4.1172,4.1172,4.1172,4.1172,4.1172,4.1172,4.1172,4.1172,4.1172,4.1172,4.1172,4.1172,4.1172,4.1172,4.1172,4.0997,4.0197,3.8054,3.4489,3.1407,3.091,2.9607,2.8136,2.8136,2.8136,2.7976,2.7388,2.7268,2.7081,2.6493,2.6386,2.6146,2.5398,2.517,2.4823,2.4075,0.0,2.493,2.5064,2.5732,2.6239,2.6373,2.6386,2.6386,2.6386,2.6266,2.6239,2.6386,2.6253,2.6253,2.6386,2.6386,2.6386,2.6386,2.6386,2.6386,2.6386,2.6386,2.6386,2.6386,2.6386,2.6386,2.6386,2.6386,2.6253,2.6026,2.6026,2.5852,2.5558,2.5317,2.5184,2.5117,2.481,2.4703,2.4703,4.1133,4.1172,4.1172,4.1172,4.1172,4.1172,4.1172,4.1172,4.1172,4.1172,4.1172,4.1172,4.1172,4.1172,4.1172,4.1172,4.1172,4.1172,4.1172,4.1172,4.1172,4.1172,4.1172,4.1172,4.1172,4.1172,4.1172,4.1172,4.1172,4.1172,4.1172,4.1172,4.1172,4.1172,4.1172,4.1172,4.1172,4.1172,4.1172,4.1172,4.1172,4.1172,4.1172,4.1172,4.1172,4.1172,4.1172,4.1172,4.1172,4.1172,4.1172,4.1172,4.1172,4.1172,4.1172,4.1172,4.0353,3.8882,3.6762,3.3839,3.1076,2.9941,2.8964,2.8136,2.8136,2.8136,2.7976,2.7388,2.7268,2.7081,2.6493,2.6386,2.6253,2.5852,2.5384,0.0,2.4529,2.4823,2.5077,2.5077,2.5852,2.6386,2.6386,2.6386,2.6386,2.6386,2.6386,2.6386,2.6386,2.6386,2.6386,2.6386,2.6386,2.6386,2.6386,2.6386,2.6386,2.6386,2.6386,2.6386,2.6386,2.6386,2.6386,2.6386,2.6226,2.6079,2.5945,2.5785,2.5545,2.5264,2.513,2.4983,2.4823,2.469,2.4636,2.4636,4.1172,4.1172,4.1172,4.1172,4.1172,4.1172,4.1172,4.1172,4.1172,4.1172,4.1172,4.1172,4.1172,4.1172,4.1172,4.1172,4.1172,4.1172,4.1172,4.1172,4.1172,4.1172,4.1172,4.1172,4.1172,4.1172,4.1172,4.1172,4.1172,4.1172,4.1172,4.1172,4.1172,4.1172,4.1172,4.1172,4.1172,4.1172,4.1172,4.1172,4.1172,4.1172,4.1172,4.1172,4.1172,4.1172,4.1172,4.1172,4.1172,4.1172,4.1172,4.1172,4.1172,4.1172,4.1172,4.1172,4.0021,3.839,3.6602,3.4164,3.1722,3.0107,2.8964,2.8136,2.8136,2.8136,2.7976,2.7388,2.7268,2.7081,2.6493,2.6386,2.6319,2.6119,0.0,0.0,0.0,2.5077,2.5157,2.5358,2.5972,2.6386,2.6386,2.6386,2.6386,2.6386,2.6386,2.6386,2.6386,2.6386,2.6386,2.6386,2.6386,2.6386,2.6386,2.6386,2.6386,2.6386,2.6386,2.6386,2.6386,2.6386,2.636,2.6279,2.6052,2.5879,2.5732,2.5504,2.5237,2.497,2.497,2.4836,2.4636,2.4636,2.4636,2.4636,4.1172,4.1172,4.1172,4.1172,4.1172,4.1172,4.1172,4.1172,4.1172,4.1172,4.1172,4.1172,4.1172,4.1172,4.1172,4.1172,4.1172,4.1172,4.1172,4.1172,4.1172,4.1172,4.1172,4.1172,4.1172,4.1172,4.1172,4.1172,4.1172,4.1172,4.1172,4.1172,4.1172,4.1172,4.1172,4.1172,4.1172,4.1172,4.1172,4.1172,4.1172,4.1172,4.1172,4.1172,4.1172,4.1172,4.1172,4.1172,4.1172,4.1172,4.1172,4.1172,4.1172,4.1172,4.1172,4.1172,4.1016,4.0841,4.0685,3.7578,3.4489,3.4327,3.1241,2.8136,2.8136,2.8136,2.7976,2.7388,2.7268,2.7081,2.6493,2.6386,2.6119,2.5304,0.0,0.0,2.5077,2.5077,2.5384,2.6199,2.6346,2.6386,2.6386,2.6386,2.6386,2.6386,2.6386,2.6386,2.6386,2.6386,2.6386,2.6386,2.6386,2.6386,2.6386,2.6386,2.6386,2.6386,2.6386,2.6386,2.6386,2.6386,2.6239,2.5985,2.5972,2.5651,2.5144,2.5117,2.493,2.4676,2.4676,2.4649,2.4636,2.4636,2.4636,2.4636,4.1172,4.1172,4.1172,4.1172,4.1172,4.1172,4.1172,4.1172,4.1172,4.1172,4.1172,4.1172,4.1172,4.1172,4.1172,4.1172,4.1172,4.1172,4.1172,4.1172,4.1172,4.1172,4.1172,4.1172,4.1172,4.1172,4.1172,4.1172,4.1172,4.1172,4.1172,4.1172,4.1172,4.1172,4.1172,4.1172,4.1172,4.1172,4.1172,4.1172,4.1172,4.1172,4.1172,4.1172,4.1172,4.1172,4.1172,4.1172,4.1172,4.1172,4.1172,4.1172,4.1172,4.1172,4.1172,4.1172,4.1172,4.1172,4.1172,3.904,3.6121,3.3349,3.1392,2.9774,2.8473,2.8003,2.7749,2.7348,2.7121,2.6867,2.6466,2.6386,2.6279,2.5945,0.0,2.5892,2.5892,2.5892,2.6012,2.6346,2.6386,2.6386,2.6386,2.6386,2.6386,2.6386,2.6386,2.6386,2.6386,2.6386,2.6386,2.6386,2.6386,2.6386,2.6386,2.6386,2.6386,2.6386,2.6386,2.6386,2.6386,2.6386,2.6226,2.5945,2.5758,2.5451,2.5064,2.4877,2.4743,2.4636,2.4636,2.4636,2.4636,2.4636,2.4636,2.4636,4.1172,4.1172,4.1172,4.1172,4.1172,4.1172,4.1172,4.1172,4.1172,4.1172,4.1172,4.1172,4.1172,4.1172,4.1172,4.1172,4.1172,4.1172,4.1172,4.1172,4.1172,4.1172,4.1172,4.1172,4.1172,4.1172,4.1172,4.1172,4.1172,4.1172,4.1172,4.1172,4.1172,4.1172,4.1172,4.1172,4.1172,4.1172,4.1172,4.1172,4.1172,4.1172,4.1172,4.1172,4.1172,4.1172,4.1172,4.1172,4.1172,4.1172,4.1172,4.1172,4.1172,4.1172,4.1172,4.1172,4.1172,4.1172,4.1172,4.0021,3.7896,3.3512,3.1887,3.091,2.8628,2.7909,2.7615,2.7321,2.7028,2.6734,2.644,2.6386,2.6386,2.6386,2.6386,2.6386,2.6386,2.6386,2.6386,2.6386,2.6386,2.6386,2.6386,2.6386,2.6386,2.6386,2.6386,2.6386,2.6386,2.6386,2.6386,2.6386,2.6386,2.6386,2.6386,2.6386,2.6386,2.6386,2.6386,2.6386,2.6386,2.6293,2.6092,2.5798,2.5504,2.5211,2.493,2.4716,2.4636,2.4636,2.4636,2.4636,2.4636,2.4636,2.4636,2.4636,4.1172,4.1172,4.1172,4.1172,4.1172,4.1172,4.1172,4.1172,4.1172,4.1172,4.1172,4.1172,4.1172,4.1172,4.1172,4.1172,4.1172,4.1172,4.1172,4.1172,4.1172,4.1172,4.1172,4.1172,4.1172,4.1172,4.1172,4.1172,4.1172,4.1172,4.1172,4.1172,4.1172,4.1172,4.1172,4.1172,4.1172,4.1172,4.1172,4.1172,4.1172,4.1172,4.1172,4.1172,4.1172,4.1172,4.1172,4.1172,4.1172,4.1172,4.1172,4.1172,4.1172,4.1172,4.1172,4.1172,4.1172,4.1172,4.1172,4.1172,4.0197,3.5799,3.3022,3.091,2.8628,2.7909,2.7615,2.7321,2.7028,2.6734,2.644,2.6386,2.6386,2.6386,2.6386,2.6386,2.6386,2.6386,2.6386,2.6386,2.6386,2.6386,2.6386,2.6386,2.6386,2.6386,2.6386,2.6386,2.6386,2.6386,2.6386,2.6386,2.6386,2.6386,2.6386,2.6386,2.6386,2.6386,2.6386,2.6386,2.6373,2.6092,2.5798,2.5491,2.5211,2.4917,2.4636,2.4636,2.4636,2.4636,2.4636,2.4636,2.4636,2.4636,2.4636,2.4636,4.1172,4.1172,4.1172,4.1172,4.1172,4.1172,4.1172,4.1172,4.1172,4.1172,4.1172,4.1172,4.1172,4.1172,4.1172,4.1172,4.1172,4.1172,4.1172,4.1172,4.1172,4.1172,4.1172,4.1172,4.1172,4.1172,4.1172,4.1172,4.1172,4.1172,4.1172,4.1172,4.1172,4.1172,4.1172,4.1172,4.1172,4.1172,4.1172,4.1172,4.1172,4.1172,4.1172,4.1172,4.1172,4.1172,4.1172,4.1172,4.1172,4.1172,4.1172,4.1172,4.1172,4.1172,4.1172,4.1172,4.1172,4.1172,4.1172,4.1172,4.0509,3.7737,3.5298,3.3122,3.063,2.8729,2.7308,2.7014,2.672,2.6493,2.64,2.6386,2.6386,2.6386,2.6386,2.6386,2.6386,2.6386,2.6386,2.6386,2.6386,2.6386,2.6386,2.6386,2.6386,2.6386,2.6386,2.6386,2.6386,2.6386,2.6386,2.6386,2.6386,2.6386,2.6386,2.6386,2.6386,2.6386,2.6386,2.6279,2.6079,2.5999,2.5678,2.5197,2.5117,2.4917,2.4636,2.4636,2.4636,2.4636,2.4636,2.4636,2.4636,2.4636,2.4636,2.4636,4.1172,4.1172,4.1172,4.1172,4.1172,4.1172,4.1172,4.1172,4.1172,4.1172,4.1172,4.1172,4.1172,4.1172,4.1172,4.1172,4.1172,4.1172,4.1172,4.1172,4.1172,4.1172,4.1172,4.1172,4.1172,4.1172,4.1172,4.1172,4.1172,4.1172,4.1172,4.1172,4.1172,4.1172,4.1172,4.1172,4.1172,4.1172,4.1172,4.1172,4.1172,4.1172,4.1172,4.1172,4.1172,4.1172,4.1172,4.1172,4.1172,4.1172,4.1172,4.1172,4.1172,4.1172,4.1172,4.1172,4.1172,4.1172,4.1172,4.1172,4.0802,3.9324,3.6693,3.3904,3.1609,2.8981,2.7041,2.6854,2.6587,2.6386,2.6386,2.6386,2.6386,2.6386,2.6386,2.6386,2.6386,2.6386,2.6386,2.6386,2.6386,2.6386,2.6386,2.6386,2.6386,2.6386,2.6386,2.6386,2.6386,2.6386,2.6386,2.6386,2.6386,2.6386,2.6386,2.6386,2.6386,2.6386,2.6279,2.6132,2.5945,2.5718,2.5411,2.5077,2.4957,2.4796,2.4636,2.4636,2.4636,2.4636,2.4636,2.4636,2.4636,2.4636,2.4636,2.4636,4.1172,4.1172,4.1172,4.1172,4.1172,4.1172,4.1172,4.1172,4.1172,4.1172,4.1172,4.1172,4.1172,4.1172,4.1172,4.1172,4.1172,4.1172,4.1172,4.1172,4.1172,4.1172,4.1172,4.1172,4.1172,4.1172,4.1172,4.1172,4.1172,4.1172,4.1172,4.1172,4.1172,4.1172,4.1172,4.1172,4.1172,4.1172,4.1172,4.1172,4.1172,4.1172,4.1172,4.1172,4.1172,4.1172,4.1172,4.1172,4.1172,4.1172,4.1172,4.1172,4.1172,4.1172,4.1172,4.1172,4.1172,4.1172,4.1172,4.1152,4.1016,4.0625,3.7421,3.3848,3.1618,2.9105,2.7121,2.7094,2.6733,2.6386,2.6702,2.6544,2.6386,2.6386,2.6386,2.6386,2.6386,2.6386,2.6386,2.6386,2.6386,2.6386,2.6386,2.6386,2.6386,2.6386,2.6386,2.6386,2.6386,2.6386,2.6386,2.6386,2.6386,2.6386,2.6386,2.6386,2.6373,2.6346,2.6079,2.5932,2.5865,2.5331,2.5064,2.5024,2.4756,2.4636,2.4636,2.4636,2.4636,2.4636,2.4636,2.4636,2.4636,2.4636,2.4636,2.4636,4.1172,4.1172,4.1172,4.1172,4.1172,4.1172,4.1172,4.1172,4.1172,4.1172,4.1172,4.1172,4.1172,4.1172,4.1172,4.1172,4.1172,4.1172,4.1172,4.1172,4.1172,4.1172,4.1172,4.1172,4.1172,4.1172,4.1172,4.1172,4.1172,4.1172,4.1172,4.1172,4.1172,4.1172,4.1172,4.1172,4.1172,4.1172,4.1172,4.1172,4.1172,4.1172,4.1172,4.1172,4.1172,4.1172,4.1172,4.1172,4.1172,4.1172,4.1172,4.1172,4.1172,4.1172,4.1172,4.1172,4.1172,4.1172,4.1172,4.0918,4.0644,4.0547,3.8117,3.5138,3.3109,3.0821,2.9093,2.8831,2.7504,2.6847,2.853,2.7462,2.6386,2.6386,2.6386,2.6386,2.6386,2.6386,2.6386,2.6386,2.6386,2.6386,2.6386,2.6386,2.6386,2.6386,2.6386,2.6386,2.6386,2.6386,2.6386,2.6386,2.6386,2.6386,2.6386,2.6386,2.6279,2.6052,2.5985,2.5718,2.5264,2.5144,2.4957,2.473,2.4663,2.4636,2.4636,2.4636,2.4636,2.4636,2.4636,2.4636,2.4636,2.4636,2.4636,2.4636,4.1172,4.1172,4.1172,4.1172,4.1172,4.1172,4.1172,4.1172,4.1172,4.1172,4.1172,4.1172,4.1172,4.1172,4.1172,4.1172,4.1172,4.1172,4.1172,4.1172,4.1172,4.1172,4.1172,4.1172,4.1172,4.1172,4.1172,4.1172,4.1172,4.1172,4.1172,4.1172,4.1172,4.1172,4.1172,4.1172,4.1172,4.1172,4.1172,4.1172,4.1172,4.1172,4.1172,4.1172,4.1172,4.1172,4.1172,4.1172,4.1172,4.1172,4.1172,4.1172,4.1172,4.1172,4.1172,4.1172,4.1172,4.1133,4.0918,4.0703,4.041,4.0,3.8763,3.7052,3.5047,3.2747,3.1042,3.0854,2.9293,2.8218,2.9138,2.7762,2.6386,2.6386,2.6386,2.6386,2.6386,2.6386,2.6386,2.6386,2.6386,2.6386,2.6386,2.6386,2.6386,2.6386,2.6386,2.6386,2.6386,2.6386,2.6386,2.6386,2.6386,2.6386,2.6386,2.6253,2.6039,2.5745,2.5745,2.5518,2.5077,2.493,2.4783,2.4636,2.4636,2.4636,2.4636,2.4636,2.4636,2.4636,2.4636,2.4636,2.4636,2.4636,2.4636,2.4636,4.1172,4.1172,4.1172,4.1172,4.1172,4.1172,4.1172,4.1172,4.1172,4.1172,4.1172,4.1172,4.1172,4.1172,4.1172,4.1172,4.1172,4.1172,4.1172,4.1172,4.1172,4.1172,4.1172,4.1172,4.1172,4.1172,4.1172,4.1172,4.1172,4.1172,4.1172,4.1172,4.1172,4.1172,4.1172,4.1172,4.1172,4.1172,4.1172,4.1172,4.1172,4.1172,4.1172,4.1172,4.1172,4.1172,4.1172,4.1172,4.1172,4.1172,4.1172,4.1172,4.1172,4.1172,4.1172,4.1172,4.1172,4.1074,4.0644,4.0469,4.0215,3.9394,3.9141,3.8638,3.696,3.4696,3.2944,3.2944,3.113,2.9449,2.9898,2.8076,2.6386,2.6386,2.6386,2.6386,2.6386,2.6386,2.6386,2.6386,2.6386,2.6386,2.6386,2.6386,2.6386,2.6386,2.6386,2.6386,2.6386,2.6386,2.6386,2.6386,2.6386,2.636,2.6319,2.6079,2.5785,2.5438,2.5438,2.5291,2.4997,2.4743,2.4636,2.4636,2.4636,2.4636,2.4636,2.4636,2.4636,2.4636,2.4636,2.4636,2.4636,2.4636,2.4636,2.4636,4.1172,4.1172,4.1172,4.1172,4.1172,4.1172,4.1172,4.1172,4.1172,4.1172,4.1172,4.1172,4.1172,4.1172,4.1172,4.1172,4.1172,4.1172,4.1172,4.1172,4.1172,4.1172,4.1172,4.1172,4.1172,4.1172,4.1172,4.1172,4.1172,4.1172,4.1172,4.1172,4.1172,4.1172,4.1172,4.1172,4.1172,4.1172,4.1172,4.1172,4.1172,4.1172,4.1172,4.1172,4.1172,4.1172,4.1172,4.1172,4.1172,4.1172,4.1172,4.1172,4.1172,4.1172,4.1172,4.1172,4.1172,4.1074,4.0644,4.0254,3.9863,3.9336,3.8926,3.8652,3.836,3.6627,3.505,3.505,3.2016,2.9898,3.1743,2.8997,2.6386,2.6386,2.6386,2.6386,2.6386,2.6386,2.6386,2.6386,2.6386,2.6386,2.6386,2.6386,2.6386,2.6386,2.6386,2.6386,2.6386,2.6386,2.6386,2.6386,2.6386,2.6266,2.6012,2.5972,2.5678,2.5144,2.5144,2.4983,2.469,2.4649,2.4636,2.4636,2.4636,2.4636,2.4636,2.4636,2.4636,2.4636,2.4636,2.4636,2.4636,2.4636,2.4636,2.4636,4.1172,4.1172,4.1172,4.1172,4.1172,4.1172,4.1172,4.1172,4.1172,4.1172,4.1172,4.1172,4.1172,4.1172,4.1172,4.1172,4.1172,4.1172,4.1172,4.1172,4.1172,4.1172,4.1172,4.1172,4.1172,4.1172,4.1172,4.1172,4.1172,4.1172,4.1172,4.1172,4.1172,4.1172,4.1172,4.1172,4.1172,4.1172,4.1172,4.1172,4.1172,4.1172,4.1172,4.1172,4.1172,4.1172,4.1172,4.1172,4.1172,4.1172,4.1172,4.1172,4.1172,4.1172,4.1172,4.1172,4.1172,4.1074,4.0644,4.0215,3.9785,3.9316,3.8887,3.8574,3.8574,3.7951,3.7198,3.7198,3.4001,3.1437,3.2353,2.9138,2.6386,2.6386,2.6386,2.6386,2.6386,2.6386,2.6386,2.6386,2.6386,2.6386,2.6386,2.6386,2.6386,2.6386,2.6386,2.6386,2.6386,2.6386,2.6386,2.6386,2.6226,2.6092,2.5959,2.5638,2.5331,2.5077,2.4917,2.4756,2.4636,2.4636,2.4636,2.4636,2.4636,2.4636,2.4636,2.4636,2.4636,2.4636,2.4636,2.4636,2.4636,2.4636,2.4636,2.4636]}]]